[[{"header":{"parameterUnit":"m.s-1","parameterCategory":1,"la1":30.6,"la2":28.766,"lo1":-90.7593,"lo2":-88.6598,"dx":0.0162,"dy":0.0183,"nx":116,"ny":114,"refTime":"2023-01-21T18:00:00:Z","depth":0,"parameterNumber":2,"parameterNumberName":"U-component_of_WINDS"},"data":[0.0,0.0,0.0,0.0,0.0,0.0,0.0,0.0,0.0,0.0,0.0,0.0,0.0,0.0,0.0,0.0,0.0,0.0,0.0,0.0,0.0,0.0,0.0,0.0,0.0,0.0,0.0,0.0,0.0,0.0,0.0,0.0,0.0,0.0,0.0,0.0,0.0,0.0,0.0,0.0,0.0,0.0,0.0,0.0,0.0,0.0,0.0,0.0,0.0,0.0,0.0,0.0,0.0,0.0,0.0,0.0,0.0,0.0,0.0,0.0,0.0,0.0,0.0,0.0,0.0,0.0,0.0,0.0,0.0,0.0,0.0,0.0,0.0,0.0,0.0,0.0,0.0,0.0,0.0,0.0,0.0,0.0,0.0,0.0,0.0,0.0,0.0,0.0,0.0,0.0,0.0,0.0,0.0,0.0,0.0,0.0,0.0,0.0,0.0,0.0,0.0,0.0,0.0,0.0,0.0,0.0,0.0,0.0,0.0,0.0,0.0,0.0,0.0,0.0,0.0,0.0,0.0,0.0,0.0,0.0,0.0,0.0,0.0,0.0,0.0,0.0,0.0,0.0,0.0,0.0,0.0,0.0,0.0,0.0,0.0,0.0,0.0,0.0,0.0,0.0,0.0,0.0,0.0,0.0,0.0,0.0,0.0,0.0,0.0,0.0,0.0,0.0,0.0,0.0,0.0,0.0,0.0,0.0,0.0,0.0,0.0,0.0,0.0,0.0,0.0,0.0,0.0,0.0,0.0,0.0,0.0,0.0,0.0,0.0,0.0,0.0,0.0,0.0,0.0,0.0,0.0,0.0,0.0,0.0,0.0,0.0,0.0,0.0,0.0,0.0,0.0,0.0,0.0,0.0,0.0,0.0,0.0,0.0,0.0,0.0,0.0,0.0,0.0,0.0,0.0,0.0,0.0,0.0,0.0,0.0,0.0,0.0,0.0,0.0,0.0,0.0,0.0,0.0,0.0,0.0,0.0,0.0,0.0,0.0,0.0,0.0,0.0,0.0,0.0,0.0,0.0,0.0,0.0,0.0,0.0,0.0,0.0,0.0,0.0,0.0,0.0,0.0,0.0,0.0,0.0,0.0,0.0,0.0,0.0,0.0,0.0,0.0,0.0,0.0,0.0,0.0,0.0,0.0,0.0,0.0,0.0,0.0,0.0,0.0,0.0,0.0,0.0,0.0,0.0,0.0,0.0,0.0,0.0,0.0,0.0,0.0,0.0,0.0,0.0,0.0,0.0,0.0,0.0,0.0,0.0,0.0,0.0,0.0,0.0,0.0,0.0,0.0,0.0,0.0,0.0,0.0,0.0,0.0,0.0,0.0,0.0,0.0,0.0,0.0,0.0,0.0,0.0,0.0,0.0,0.0,0.0,0.0,0.0,0.0,0.0,0.0,0.0,0.0,0.0,0.0,0.0,0.0,0.0,0.0,0.0,0.0,0.0,0.0,0.0,0.0,0.0,0.0,0.0,0.0,0.0,0.0,0.0,0.0,0.0,0.0,0.0,0.0,0.0,0.0,0.0,0.0,0.0,0.0,0.0,0.0,0.0,0.0,0.0,0.0,0.0,0.0,0.0,0.0,0.0,0.0,0.0,0.0,0.0,0.0,0.0,0.0,0.0,0.0,0.0,0.0,0.0,0.0,0.0,0.0,0.0,0.0,0.0,0.0,0.0,0.0,0.0,0.0,0.0,0.0,0.0,0.0,0.0,0.0,0.0,0.0,0.0,0.0,0.0,0.0,0.0,0.0,0.0,0.0,0.0,0.0,0.0,0.0,0.0,0.0,0.0,0.0,0.0,0.0,0.0,0.0,0.0,0.0,0.0,0.0,0.0,0.0,0.0,0.0,0.0,0.0,0.0,0.0,0.0,0.0,0.0,0.0,0.0,0.0,0.0,0.0,0.0,0.0,0.0,0.0,0.0,0.0,0.0,0.0,0.0,0.0,0.0,0.0,0.0,0.0,0.0,0.0,0.0,0.0,0.0,0.0,0.0,0.0,0.0,0.0,0.0,0.0,0.0,0.0,0.0,0.0,0.0,0.0,0.0,0.0,0.0,0.0,0.0,0.0,0.0,0.0,0.0,0.0,0.0,0.0,0.0,0.0,0.0,0.0,0.0,0.0,0.0,0.0,0.0,0.0,0.0,0.0,0.0,0.0,0.0,0.0,0.0,0.0,0.0,0.0,0.0,0.0,0.0,0.0,0.0,0.0,0.0,0.0,0.0,0.0,0.0,0.0,0.0,0.0,0.0,0.0,0.0,0.0,0.0,0.0,0.0,0.0,0.0,0.0,0.0,0.0,0.0,0.0,0.0,0.0,0.0,0.0,0.0,0.0,0.0,0.0,0.0,0.0,0.0,0.0,0.0,0.0,0.0,0.0,0.0,0.0,0.0,0.0,0.0,0.0,0.0,0.0,0.0,0.0,0.0,0.0,0.0,0.0,0.0,0.0,0.0,0.0,0.0,0.0,0.0,0.0,0.0,0.0,0.0,0.0,0.0,0.0,0.0,0.0,0.0,0.0,0.0,0.0,0.0,0.0,0.0,0.0,0.0,0.0,0.0,0.0,0.0,0.0,0.0,0.0,0.0,0.0,0.0,0.0,0.0,0.0,0.0,0.0,0.0,0.0,0.0,0.0,0.0,0.0,0.0,0.0,0.0,0.0,0.0,0.0,0.0,0.0,0.0,0.0,0.0,0.0,0.0,0.0,0.0,0.0,0.0,0.0,0.0,0.0,0.0,0.0,0.0,0.0,0.0,0.0,0.0,0.0,0.0,0.0,0.0,0.0,0.0,0.0,0.0,0.0,0.0,0.0,0.0,0.0,0.0,0.0,0.0,0.0,0.0,0.0,0.0,0.0,0.0,0.0,0.0,0.0,0.0,0.0,0.0,0.0,0.0,0.0,0.0,0.0,0.0,0.0,0.0,0.0,0.0,0.0,0.0,0.0,0.0,0.0,0.0,0.0,0.0,0.0,0.0,0.0,0.0,0.0,0.0,0.0,0.0,0.0,0.0,0.0,0.0,0.0,0.0,0.0,0.0,0.0,0.0,0.0,0.0,0.0,0.0,0.0,0.0,0.0,0.0,0.0,0.0,0.0,0.0,0.0,0.0,0.0,0.0,0.0,0.0,0.0,0.0,0.0,0.0,0.0,0.0,0.0,0.0,0.0,0.0,0.0,0.0,0.0,0.0,0.0,0.0,0.0,0.0,0.0,0.0,0.0,0.0,0.0,0.0,0.0,0.0,0.0,0.0,0.0,0.0,0.0,0.0,0.0,0.0,0.0,0.0,0.0,0.0,0.0,0.0,0.0,0.0,0.0,0.0,0.0,0.0,0.0,0.0,0.0,0.0,0.0,0.0,0.0,0.0,0.0,0.0,0.0,0.0,0.0,0.0,0.0,0.0,0.0,0.0,0.0,0.0,0.0,0.0,0.0,0.0,0.0,0.0,0.0,0.0,0.0,0.0,0.0,0.0,0.0,0.0,0.0,0.0,0.0,0.0,0.0,0.0,0.0,0.0,0.0,0.0,0.0,0.0,0.0,0.0,0.0,0.0,0.0,0.0,0.0,0.0,0.0,0.0,0.0,0.0,0.0,0.0,0.0,0.0,0.0,0.0,0.0,0.0,0.0,0.0,0.0,0.0,0.0,0.0,0.0,0.0,0.0,0.0,0.0,0.0,0.0,0.0,0.0,0.0,0.0,0.0,0.0,0.0,0.0,0.0,0.0,0.0,0.0,0.0,0.0,0.0,0.0,0.0,0.0,0.0,0.0,0.0,0.0,0.0,0.0,0.0,0.0,0.0,0.0,0.0,0.0,0.0,0.0,0.0,0.0,0.0,0.0,0.0,0.0,0.0,0.0,0.0,0.0,0.0,0.0,0.0,0.0,0.0,0.0,0.0,0.0,0.0,0.0,0.0,0.0,0.0,0.0,0.0,0.0,0.0,0.0,0.0,0.0,0.0,0.0,0.0,0.0,0.0,0.0,0.0,0.0,0.0,0.0,0.0,0.0,0.0,0.0,0.0,0.0,0.0,0.0,0.0,0.0,0.0,0.0,0.0,0.0,0.0,0.0,0.0,0.0,0.0,0.0,0.0,0.0,0.0,0.0,0.0,0.0,0.0,0.0,0.0,0.0,0.0,0.0,0.0,0.0,0.0,0.0,0.0,0.0,0.0,0.0,0.0,0.0,0.0,0.0,0.0,0.0,0.0,0.0,0.0,0.0,0.0,0.0,0.0,0.0,0.0,0.0,0.0,0.0,0.0,0.0,0.0,0.0,0.0,0.0,0.0,0.0,0.0,0.0,0.0,0.0,0.0,0.0,0.0,0.0,0.0,0.0,0.0,0.0,0.0,0.0,0.0,0.0,0.0,0.0,0.0,0.0,0.0,0.0,0.0,0.0,0.0,0.0,0.0,0.0,0.0,0.0,0.0,0.0,0.0,0.0,0.0,0.0,0.0,0.0,0.0,0.0,0.0,0.0,0.0,0.0,0.0,0.0,0.0,0.0,0.0,0.0,0.0,0.0,0.0,0.0,0.0,0.0,0.0,0.0,0.0,0.0,0.0,0.0,0.0,0.0,0.0,0.0,0.0,0.0,0.0,0.0,0.0,0.0,0.0,0.0,0.0,0.0,0.0,0.0,0.0,0.0,0.0,0.0,0.0,0.0,0.0,0.0,0.0,0.0,0.0,0.0,0.0,0.0,0.0,0.0,0.0,0.0,0.0,0.0,0.0,0.0,0.0,0.0,0.0,0.0,0.0,0.0,0.0,0.0,0.0,0.0,0.0,0.0,0.0,0.0,0.0,0.0,0.0,0.0,0.0,0.0,0.0,0.0,0.0,0.0,0.0,0.0,0.0,0.0,0.0,0.0,0.0,0.0,0.0,0.0,0.0,0.0,0.0,0.0,0.0,0.0,0.0,0.0,0.0,0.0,0.0,0.0,0.0,0.0,0.0,0.0,0.0,0.0,0.0,0.0,0.0,0.0,0.0,0.0,0.0,0.0,0.0,0.0,0.0,0.0,0.0,0.0,0.0,0.0,0.0,0.0,0.0,0.0,0.0,0.0,0.0,0.0,0.0,0.0,0.0,0.0,0.0,0.0,0.0,0.0,0.0,0.0,0.0,0.0,0.0,0.0,0.0,0.0,0.0,0.0,0.0,0.0,0.0,0.0,0.0,0.0,0.0,0.0,0.0,0.0,0.0,0.0,0.0,0.0,0.0,0.0,0.0,0.0,0.0,0.0,0.0,0.0,0.0,0.0,0.0,0.0,0.0,0.0,0.0,0.0,0.0,0.0,0.0,0.0,0.0,0.0,0.0,0.0,0.0,0.0,0.0,0.0,0.0,0.0,0.0,0.0,0.0,0.0,0.0,0.0,0.0,0.0,0.0,0.0,0.0,0.0,0.0,0.0,0.0,0.0,0.0,0.0,0.0,0.0,0.0,0.0,0.0,0.0,0.0,0.0,0.0,0.0,0.0,0.0,0.0,0.0,0.0,0.0,0.0,0.0,0.0,0.0,0.0,0.0,0.0,0.0,0.0,0.0,0.0,0.0,0.0,0.0,0.0,0.0,0.0,0.0,0.0,0.0,0.0,0.0,0.0,0.0,0.0,0.0,0.0,0.0,0.0,0.0,0.0,0.0,0.0,0.0,0.0,0.0,0.0,0.0,0.0,0.0,0.0,0.0,0.0,0.0,0.0,0.0,0.0,0.0,0.0,0.0,0.0,0.0,0.0,0.0,0.0,0.0,0.0,0.0,0.0,0.0,0.0,0.0,0.0,0.0,0.0,0.0,0.0,0.0,0.0,0.0,0.0,0.0,0.0,0.0,0.0,0.0,0.0,0.0,0.0,0.0,0.0,0.0,0.0,0.0,0.0,0.0,0.0,0.0,0.0,0.0,0.0,0.0,0.0,0.0,0.0,0.0,0.0,0.0,0.0,0.0,0.0,0.0,0.0,0.0,0.0,0.0,0.0,0.0,0.0,0.0,0.0,0.0,0.0,0.0,0.0,0.0,0.0,0.0,0.0,0.0,0.0,0.0,0.0,0.0,0.0,0.0,0.0,0.0,0.0,0.0,0.0,0.0,0.0,0.0,0.0,0.0,0.0,0.0,1.0073,1.0019,0.0,0.0,0.0,0.0,0.0,0.0,0.0,0.0,0.0,0.0,0.0,0.0,0.0,0.0,0.0,0.0,0.0,0.0,0.0,0.0,0.0,0.0,0.0,0.0,0.0,0.0,0.0,0.0,0.0,0.0,0.0,0.0,0.0,0.0,0.0,0.0,0.0,0.0,0.0,0.0,0.0,0.0,0.0,0.0,0.0,0.0,0.0,0.0,0.0,0.0,0.0,0.0,0.0,0.0,0.0,0.0,0.0,0.0,0.0,0.0,0.0,0.0,0.0,0.0,0.0,0.0,0.0,0.0,0.0,0.0,0.0,0.0,0.0,0.0,0.0,0.0,0.0,0.0,0.0,0.0,0.0,0.0,0.0,0.0,0.0,0.0,0.0,0.0,0.0,0.0,0.0,0.0,0.0,0.0,0.0,0.0,0.0,0.0,0.0,0.0,0.0,0.0,0.0,0.0,0.0,0.0,0.0,0.0,0.0,0.0,0.0,0.0,0.0,0.0,1.0636,1.0337,0.0,0.0,0.0,0.0,0.0,0.0,0.0,0.0,0.0,0.0,0.0,0.0,0.0,0.0,0.0,0.0,0.0,0.0,0.0,0.0,0.0,0.0,0.0,0.0,0.0,0.0,0.0,0.0,0.0,0.0,0.0,0.0,0.0,0.0,0.0,0.0,0.0,0.0,0.0,0.0,0.0,0.0,0.0,0.0,0.0,0.0,0.0,0.0,0.0,0.0,0.0,0.0,0.0,0.0,0.0,0.0,0.0,0.0,0.0,0.0,0.0,0.0,0.0,0.0,0.0,0.0,0.0,0.0,0.0,0.0,0.0,0.0,0.0,0.0,0.0,0.0,0.0,0.0,0.0,0.0,0.0,0.0,0.0,0.0,0.0,0.0,0.0,0.0,0.0,0.0,0.0,0.0,0.0,0.0,0.0,0.0,0.0,0.0,0.0,0.0,0.0,0.0,0.0,0.0,0.0,0.0,0.0,0.0,1.128,1.1545,1.1823,1.2094,1.2305,1.2386,1.1389,1.0887,1.0758,1.0683,0.0,0.0,0.0,0.0,0.0,0.0,0.0,0.0,0.0,0.0,0.0,0.0,0.0,0.0,0.0,0.0,0.0,0.0,0.0,0.0,0.0,0.0,2.8984,2.9375,2.9394,2.9394,0.0,0.0,0.0,0.0,0.0,0.0,0.0,0.0,0.0,0.0,0.0,0.0,3.4297,3.5373,3.578,3.5582,2.9725,0.0,0.0,0.0,0.0,0.0,0.0,0.0,0.0,0.0,0.0,0.0,0.0,0.0,0.0,0.0,0.0,0.0,0.0,0.0,0.0,0.0,0.0,0.0,0.0,0.0,0.0,0.0,0.0,0.0,0.0,0.0,0.0,0.0,0.0,0.0,0.0,0.0,0.0,0.0,0.0,0.0,0.0,0.0,0.9788,0.9395,0.0,0.0,0.0,0.0,0.0,0.0,0.0,0.0,0.0,0.0,0.0,0.0,0.0,1.128,1.1823,1.1843,1.1993,1.2264,1.2305,1.2413,1.2589,1.2766,1.2922,1.3044,1.2888,0.0,1.1823,1.1436,0.0,0.0,0.0,0.0,0.0,0.0,0.0,0.0,0.0,0.0,0.0,0.0,0.0,0.0,0.0,0.0,0.0,0.0,0.0,0.0,0.0,2.9355,2.9707,2.9902,3.0605,3.0723,2.998,0.0,0.0,0.0,0.0,0.0,0.0,0.0,0.0,0.0,3.3691,3.4961,3.584,3.7129,3.7832,3.7949,3.5003,3.2748,3.1173,2.947,0.0,0.0,0.0,0.0,0.0,0.0,0.0,0.0,0.0,0.0,0.0,0.0,0.0,0.0,0.0,0.0,0.0,0.0,0.0,0.0,0.0,0.0,0.0,0.0,0.0,0.0,0.0,0.0,0.0,0.0,0.0,0.0,0.0,0.0,0.0,0.0,0.0,0.0,0.0,0.9964,1.0134,0.968,1.0161,1.0412,0.0,0.0,0.0,0.0,0.0,0.0,0.0,0.0,0.0,1.143,1.1592,1.1837,1.2189,1.244,1.2671,1.2881,1.3132,1.3336,1.3492,1.3722,1.3865,1.3933,1.4014,1.3777,1.3261,1.2467,1.2013,1.1775,0.0,0.0,0.0,0.0,1.1009,1.0948,0.0,0.0,0.0,0.0,0.0,0.0,0.0,0.0,0.0,0.0,0.0,0.0,2.9394,3.0273,3.0898,3.1016,3.2031,3.2148,3.0937,3.1582,0.0,0.0,0.0,0.0,0.0,0.0,0.0,0.0,3.5312,3.6758,3.7851,3.9141,3.9844,4.0059,3.9941,3.8067,3.4733,3.3376,3.1345,0.0,0.0,0.0,0.0,0.0,0.0,0.0,0.0,0.0,0.0,0.0,0.0,0.0,0.0,0.0,0.0,0.0,0.0,0.0,0.0,0.0,0.0,0.0,0.0,0.0,0.0,0.0,0.0,0.0,0.0,0.0,0.0,0.0,0.0,0.0,0.0,0.0,0.0,1.012,1.0337,0.993,1.0446,1.0717,0.0,0.0,0.0,0.0,0.0,0.0,1.1484,1.1545,1.1748,1.2162,1.2325,1.2515,1.2745,1.3078,1.3336,1.3519,1.3892,1.415,1.4312,1.4563,1.4685,1.4692,1.4801,1.4726,1.4448,1.3431,1.2901,1.2691,1.2277,1.2054,1.1959,1.1959,1.1891,1.1803,0.0,0.0,0.0,0.0,0.0,0.0,0.0,0.0,0.0,0.0,0.0,2.9394,3.0644,3.1914,3.2832,3.3223,3.3691,3.3594,3.2715,3.1973,3.1348,0.0,0.0,0.0,0.0,0.0,0.0,3.5254,3.7383,3.9277,4.0976,4.2246,4.3301,4.4082,4.3633,4.2266,3.9775,3.5824,3.4043,3.3472,0.0,0.0,0.0,0.0,0.0,0.0,0.0,0.0,0.0,0.0,0.0,0.0,0.0,0.0,0.0,0.0,0.0,0.0,0.0,0.0,0.0,0.0,0.0,0.0,0.0,0.0,0.0,0.0,0.0,0.0,0.0,0.0,0.0,0.0,0.0,0.0,0.0,0.0,0.0,1.0073,1.069,0.0,0.0,0.0,0.0,1.1538,1.1823,1.2115,1.242,1.2569,1.2793,1.3091,1.3254,1.3539,1.398,1.4007,1.4156,1.4448,1.4618,1.4774,1.493,1.5079,1.5147,1.5147,1.516,1.5153,1.5065,1.4156,1.3614,1.3322,1.3024,1.2901,1.2895,1.2895,1.2888,1.2861,0.0,0.0,0.0,0.0,0.0,0.0,0.0,0.0,0.0,2.8457,2.9238,3.0234,3.1562,3.3086,3.4414,3.543,3.5898,3.5898,3.5332,3.3945,0.0,0.0,0.0,0.0,0.0,0.0,3.5449,3.7441,3.9316,4.084,4.1992,4.3008,4.3808,4.4394,4.4219,4.3887,4.3262,4.0298,3.8231,3.678,3.3853,3.1024,0.0,0.0,0.0,0.0,0.0,0.0,0.0,0.0,0.0,0.0,0.0,0.0,0.0,0.0,0.0,0.0,0.0,0.0,0.0,0.0,0.0,0.0,0.0,0.0,0.0,0.0,0.0,0.0,0.0,0.0,0.0,0.0,0.0,0.0,0.0,0.0,0.0,1.105,1.1633,0.0,1.1877,1.2054,1.2257,1.2467,1.2664,1.2908,1.3214,1.3281,1.3444,1.3743,1.3899,1.4102,1.4353,1.455,1.4706,1.4808,1.4957,1.5052,1.5106,1.516,1.5181,1.5181,1.5181,1.5181,1.516,1.4835,1.4529,1.4224,1.3831,1.3675,1.3675,1.3675,1.3675,1.3682,0.0,0.0,0.0,0.0,0.0,0.0,0.0,0.0,0.0,2.8437,2.9629,3.0976,3.2441,3.4375,3.5996,3.7012,3.748,3.7363,3.6504,3.4824,0.0,0.0,0.0,0.0,0.0,3.5644,3.7441,3.9453,4.0898,4.2109,4.3105,4.3672,4.4336,4.5039,4.5039,4.5351,4.5781,4.4199,4.1953,3.9316,3.7754,3.5249,3.2247,0.0,0.0,0.0,0.0,0.0,0.0,0.0,0.0,0.0,0.0,0.0,0.0,0.0,0.0,0.0,0.0,0.0,0.0,0.0,0.0,0.0,0.0,0.0,0.0,0.0,0.0,0.0,0.0,0.0,0.0,0.0,0.0,0.0,0.0,0.0,1.1518,1.1877,1.244,1.2807,1.2807,1.2942,1.3098,1.3247,1.3444,1.3661,1.3912,1.4027,1.417,1.4367,1.4516,1.4645,1.474,1.4943,1.5038,1.5045,1.514,1.5181,1.5181,1.5181,1.5181,1.5181,1.5181,1.5181,1.5181,1.5181,1.5065,1.4862,1.4563,1.4448,1.4448,1.4448,1.4448,1.4448,0.0,0.0,0.0,0.0,0.0,0.0,0.0,0.0,2.7949,2.8789,3.0059,3.1543,3.3262,3.5762,3.748,3.7969,3.8359,3.7871,3.6211,3.4414,0.0,0.0,0.0,0.0,3.5488,3.7598,3.9531,4.125,4.209,4.3164,4.4433,4.4433,4.5117,4.6348,4.6348,4.6816,4.7598,4.7187,4.4844,4.1348,4.0801,3.8632,3.5394,0.0,0.0,0.0,0.0,0.0,0.0,0.0,0.0,0.0,0.0,0.0,0.0,0.0,0.0,0.0,0.0,0.0,0.0,0.0,0.0,0.0,0.0,0.0,0.0,0.0,0.0,0.0,0.0,0.0,0.0,0.0,0.0,0.0,1.0711,1.1389,1.2026,1.2488,1.3071,1.3437,1.3444,1.358,1.3729,1.3865,1.4163,1.4394,1.4523,1.4821,1.4984,1.4977,1.5113,1.5181,1.5181,1.5181,1.5181,1.5181,1.5181,1.5181,1.5181,1.5181,1.5181,1.5181,1.5181,1.5181,1.5181,1.5181,1.5181,1.5181,1.5181,1.5181,1.5181,1.5181,1.5181,1.514,0.0,0.0,0.0,0.0,0.0,0.0,0.0,2.6641,2.75,2.8359,2.9883,3.1777,3.4101,3.6113,3.7969,3.9668,3.9062,3.8379,3.791,3.5078,0.0,0.0,0.0,0.0,3.8105,3.9961,4.1601,4.3008,4.3887,4.4668,4.5332,4.5332,4.6016,4.7226,4.7226,4.7695,4.8516,4.873,4.7832,4.6016,4.3086,4.0938,3.9203,0.0,0.0,0.0,0.0,0.0,0.0,0.0,0.0,0.0,0.0,0.0,0.0,0.0,0.0,0.0,0.0,0.0,0.0,0.0,0.0,0.0,0.0,0.0,0.0,0.0,0.0,0.0,0.0,0.0,0.0,0.0,0.0,1.282,1.164,1.2081,1.2725,1.339,1.3905,1.4251,1.436,1.4509,1.4618,1.4658,1.4936,1.5072,1.5004,1.5181,1.5242,1.5126,1.516,1.5181,1.5181,1.5181,1.5181,1.5181,1.5181,1.5181,1.5181,1.5181,1.5181,1.5181,1.5181,1.5181,1.5181,1.5181,1.5181,1.5181,1.5181,1.5181,1.5181,1.5181,1.5181,1.5153,0.0,0.0,0.0,0.0,0.0,0.0,0.0,2.6348,2.7266,2.7949,2.9844,3.1914,3.3945,3.5879,3.7617,3.9043,3.832,3.7539,3.6992,3.4902,0.0,0.0,0.0,3.8223,4.0254,4.2168,4.3613,4.4531,4.5391,4.6055,4.6484,4.666,4.7324,4.8398,4.8398,4.8769,4.9433,4.9687,4.9492,4.8828,4.6387,4.4785,4.339,3.8365,3.7148,3.7483,3.3075,3.2746,3.3893,3.0377,0.0,0.0,0.0,0.0,0.0,0.0,0.0,0.0,0.0,0.0,0.0,0.0,0.0,0.0,0.0,0.0,0.0,0.0,0.0,0.0,0.0,0.0,0.0,0.0,1.5802,1.5745,1.4284,1.3554,1.3383,1.4129,1.4509,1.4787,1.4997,1.5099,1.5181,1.5248,1.5411,1.5466,1.5377,1.5459,1.5466,1.5377,1.5371,1.5371,1.5371,1.5371,1.5371,1.5371,1.5309,1.5276,1.5276,1.5215,1.5181,1.5181,1.5181,1.5181,1.5181,1.5181,1.5181,1.5181,0.0,0.0,0.0,0.0,1.5181,1.5153,0.0,0.0,0.0,0.0,0.0,0.0,0.0,2.6094,2.707,2.7598,2.9785,3.1797,3.3144,3.5137,3.6601,3.7168,3.6758,3.5937,0.0,0.0,0.0,3.5703,3.8594,4.0781,4.207,4.416,4.5449,4.5898,4.668,4.7324,4.7812,4.8183,4.8828,4.9668,4.9668,4.9922,5.0312,5.0312,5.0312,5.0293,4.9902,4.8741,4.6703,4.1851,3.9937,3.9055,3.3791,3.3273,3.4418,2.9864,0.0,0.0,0.0,0.0,0.0,0.0,0.0,0.0,0.0,0.0,0.0,0.0,0.0,0.0,0.0,0.0,0.0,0.0,0.0,0.0,0.0,0.0,0.0,0.0,1.9064,1.9182,1.7998,1.5701,1.4368,1.4685,1.4916,1.5126,1.5384,1.5425,1.5493,1.5628,1.5669,1.5676,1.5642,1.5669,0.0,0.0,0.0,1.5642,1.5642,1.5642,1.5642,1.5635,1.5499,1.5425,1.5404,1.5269,1.5201,1.5181,1.5181,1.5181,1.5181,1.5181,1.5181,1.5181,1.5181,1.5181,1.5181,1.5181,1.5181,1.514,0.0,0.0,0.0,0.0,0.0,0.0,0.0,2.5586,2.6387,2.7519,2.9004,3.0586,3.2226,3.3711,3.5176,3.666,3.5742,3.4824,0.0,0.0,3.5976,3.7871,4.0508,4.2558,4.3867,4.5644,4.6777,4.7207,4.7715,4.8359,4.916,4.9238,4.9726,5.0547,5.0547,5.0801,5.1191,5.1191,5.1191,5.1172,5.1094,4.8691,4.5015,4.1487,3.9807,3.8464,3.4647,3.5202,3.725,3.4128,3.5025,3.7009,3.4203,0.0,0.0,0.0,0.0,0.0,0.0,0.0,0.0,0.0,0.0,0.0,0.0,0.0,0.0,0.0,0.0,0.0,0.0,0.0,0.0,2.1511,2.2303,2.2477,2.1309,1.9089,1.6915,1.5087,1.516,1.535,1.5404,1.552,1.5608,1.5635,1.5859,1.5893,1.5649,1.5866,1.5886,1.5649,1.5642,1.5642,1.5642,1.5642,1.5642,1.5642,1.5608,0.0,1.5411,1.5377,1.5296,1.5181,1.5181,1.5181,1.5181,1.5181,1.5181,1.5181,1.5181,1.5181,1.5181,1.5181,1.5181,1.516,0.0,0.0,0.0,0.0,0.0,0.0,0.0,2.5488,2.6367,2.7226,2.8457,2.9746,3.1035,3.2148,3.3144,3.4023,3.3496,0.0,0.0,3.5508,3.7305,3.9453,4.2226,4.4141,4.5019,4.6914,4.8008,4.8223,4.9082,4.9726,5.0176,5.0391,5.0703,5.1113,5.1113,5.123,5.1426,5.1426,5.1426,5.1426,5.1426,4.9295,4.5716,4.28,4.1205,3.9836,3.5381,3.5441,3.7208,3.4241,3.5472,3.7468,3.4457,3.3265,3.256,0.0,0.0,0.0,0.0,0.0,0.0,0.0,0.0,0.0,0.0,0.0,0.0,0.0,0.0,2.3006,0.0,0.0,2.5146,2.516,2.5878,2.5884,2.4632,2.3494,2.1382,1.76,1.6067,1.5472,1.5615,1.5771,1.5893,1.5967,1.6178,1.6239,1.609,1.6218,1.6198,1.5981,1.5974,1.594,1.5859,1.5859,1.5859,1.5859,1.5784,1.5669,1.552,1.5445,1.5323,1.5181,1.5181,1.5181,1.5181,1.5181,1.5181,1.5181,1.5181,1.5181,1.5181,1.5181,1.5181,1.516,0.0,0.0,0.0,0.0,0.0,0.0,0.0,0.0,2.6309,2.6836,2.793,2.8965,2.9746,3.0605,3.1015,3.076,0.0,0.0,0.0,3.6035,3.8379,4.0547,4.3535,4.5351,4.5781,4.7812,4.8945,4.9121,5.0254,5.084,5.0937,5.1269,5.1426,5.1426,5.1426,5.1426,5.1426,5.1426,5.1426,5.1426,5.1426,5.0021,4.7941,4.4807,4.2907,4.1016,3.5942,3.4917,3.5744,3.3211,3.458,3.6625,3.3442,3.2981,3.3323,3.0483,2.88,0.0,0.0,0.0,0.0,0.0,0.0,0.0,0.0,0.0,2.3006,2.3247,2.4048,2.485,2.5331,2.6186,2.7175,2.823,2.8898,2.883,2.772,2.7247,2.5241,2.0584,1.7756,1.6173,1.5872,1.6035,1.6191,1.6341,1.6483,1.6551,1.6524,1.6524,1.6456,1.6313,1.6279,1.6205,1.6083,1.6083,1.6083,1.6083,1.5954,1.5818,1.5676,1.5527,1.5371,1.5221,1.5194,1.5181,1.5181,1.5181,1.5181,1.5181,1.5181,1.5181,1.5181,1.5181,1.5181,1.5167,0.0,0.0,0.0,0.0,0.0,0.0,0.0,0.0,0.0,2.6348,2.7246,2.7988,2.8457,2.9277,2.9315,0.0,0.0,0.0,3.1967,3.5716,3.8828,4.0996,4.3984,4.5801,4.623,4.7949,4.9238,5.0019,5.0547,5.0996,5.1367,5.1406,5.1426,5.1426,5.1426,5.1426,5.1426,5.1426,5.1426,5.1426,5.1426,5.1231,5.0608,4.7941,4.3842,3.912,3.5983,3.4165,3.3476,3.3735,3.4661,3.5975,3.5794,3.6144,3.6305,3.4661,0.0,2.9692,0.0,0.0,0.0,2.2712,2.2792,2.2939,0.0,0.0,2.4796,2.4823,2.5732,2.6547,2.6613,2.7575,2.8577,2.9232,2.9833,3.0341,3.032,2.8495,2.6126,2.3254,2.0798,1.8379,1.6234,1.6191,1.6341,1.6483,1.6639,1.6666,1.653,1.6524,1.6456,1.6313,1.6178,1.6096,1.6083,1.6083,1.6083,1.6083,1.6062,1.5974,1.5825,1.5676,1.5527,1.5377,1.5242,1.5181,1.5181,1.5181,1.5181,1.5181,1.5181,1.5181,1.5181,1.5181,1.5181,1.5187,0.0,0.0,0.0,0.0,0.0,0.0,0.0,0.0,0.0,0.0,2.6519,2.6893,2.5773,2.6002,0.0,0.0,0.0,0.0,3.0038,3.2685,3.5736,3.9418,4.2144,4.4409,4.6289,4.8242,4.9551,5.0176,5.084,5.1269,5.1426,5.1426,5.1426,5.1426,5.1426,5.1426,5.1426,5.1426,5.1426,5.1426,5.1426,5.1426,5.0978,4.7876,4.5007,4.1998,3.7745,3.4422,0.0,3.2305,3.2517,3.2859,3.3457,3.3201,3.2426,3.1306,2.9574,0.0,2.5763,0.0,0.0,0.0,2.4289,2.477,2.5197,2.5705,2.6146,2.6319,2.7161,2.7909,2.8083,2.8938,2.9766,0.0,3.0595,3.0969,3.1263,3.0194,2.8029,2.41,2.247,2.0237,1.6446,1.6293,1.6456,1.6517,1.6748,1.6856,1.6788,1.6788,1.668,1.6442,1.6368,1.63,1.6218,1.6123,1.6123,1.6212,1.6123,1.6001,1.5845,1.5703,1.5506,1.5276,1.5208,1.5181,1.5181,1.5181,1.5181,1.5181,1.5181,1.5181,1.5181,1.5181,1.5201,1.5228,0.0,0.0,0.0,0.0,0.0,0.0,0.0,0.0,0.0,0.0,0.0,2.5706,2.3961,0.0,0.0,0.0,0.0,0.0,0.0,2.9897,3.2838,3.6813,3.9174,4.1978,4.5006,4.7059,4.8737,5.0,5.084,5.1308,5.1426,5.1426,5.1426,5.1426,5.1426,5.1426,5.1426,5.1426,5.1426,5.1426,5.1426,5.1367,5.0959,4.8001,4.5543,4.3174,3.8009,3.4333,3.1524,3.0442,2.974,2.9419,3.0301,2.9847,2.8845,2.811,2.68,2.5384,2.4449,0.0,0.0,2.4983,2.5718,2.6413,2.6787,2.7161,2.7522,2.7816,2.8457,2.9032,2.9245,2.9873,3.0448,3.0742,3.1102,3.1423,3.1637,3.0897,2.8588,2.4229,2.2685,2.0401,1.6265,1.6239,1.6476,1.6517,1.6809,1.6978,1.6978,1.6937,1.6815,1.6592,1.6544,1.6456,1.6313,1.6239,1.6239,1.6307,1.6198,1.609,1.5967,1.5744,1.5472,1.5181,1.5181,1.5181,1.5181,1.5181,1.5181,1.5181,1.5181,1.5181,1.5181,1.5181,1.5201,1.504,0.0,0.0,0.0,0.0,0.0,0.0,0.0,0.0,0.0,0.0,0.0,0.0,0.0,0.0,0.0,0.0,0.0,0.0,0.0,2.8089,3.1093,3.3292,3.5304,3.8168,4.2202,4.3615,4.5964,4.9551,5.041,5.1035,5.1426,5.1426,5.1426,5.1426,5.1426,5.1426,5.1426,5.1426,5.1426,5.1426,5.1426,5.1191,5.0683,4.9394,4.5894,4.0966,3.5948,3.2902,3.0925,0.0,2.7001,2.6667,2.7549,2.7789,0.0,2.7375,2.6052,0.0,0.0,0.0,2.4903,2.6052,2.6787,2.7375,2.7963,2.8551,2.9058,2.9352,2.9659,2.9873,2.9887,3.014,3.0448,3.0742,3.1276,3.1664,3.1664,2.9708,2.6984,2.3841,2.0962,1.8412,0.0,1.5967,1.6374,1.651,1.6809,1.6978,1.6978,1.6836,1.6754,1.6741,1.6598,1.6456,1.6313,1.6442,1.6442,1.6307,1.6307,1.63,1.6279,1.5839,1.5472,1.5181,1.5181,1.5181,1.5181,1.5181,1.5181,1.5181,1.5181,1.5181,1.5181,1.5181,1.5181,1.4798,0.0,0.0,0.0,0.0,0.0,0.0,0.0,0.0,0.0,0.0,0.0,0.0,0.0,0.0,0.0,0.0,0.0,0.0,0.0,2.4242,2.6698,2.9702,3.2154,3.4935,3.8185,4.0283,4.1983,4.3845,4.4639,4.5204,4.5397,4.5397,4.552,4.5783,4.5783,4.5906,4.6153,4.7978,4.7634,4.5928,4.8995,4.8918,4.6933,4.6265,4.4199,4.0871,0.0,3.062,0.0,0.0,0.0,0.0,2.5625,0.0,0.0,2.4262,0.0,0.0,0.0,0.0,2.6319,2.7308,2.8003,2.8591,2.9179,2.9472,2.9646,2.9753,2.9392,2.9045,2.9045,2.9285,2.9579,2.9873,3.0902,3.1664,3.1664,2.9475,2.6727,2.3645,2.0989,0.0,0.0,0.0,0.0,1.6212,1.6503,1.672,1.6822,1.6876,1.6856,1.6754,1.67,1.6598,1.6449,1.6497,1.6449,1.6307,1.6103,1.5906,1.571,1.5554,1.5377,1.5181,1.5181,1.5181,1.5181,1.5181,1.5181,1.5181,1.5181,1.5181,1.5181,1.5181,1.5181,1.4999,0.0,0.0,0.0,0.0,0.0,0.0,0.0,0.0,0.0,0.0,0.0,0.0,0.0,0.0,0.0,0.0,0.0,0.0,0.0,0.0,2.3419,2.6179,2.8089,3.0665,3.3888,3.5597,3.725,3.8981,3.9824,4.0577,4.108,4.1407,4.1774,4.2007,4.214,4.2211,4.2542,4.439,4.3762,4.1941,4.443,4.4086,4.1693,4.0898,3.9355,0.0,3.1999,2.8397,0.0,0.0,0.0,0.0,0.0,0.0,0.0,0.0,0.0,0.0,0.0,2.6253,2.733,2.7341,2.7733,2.7814,2.7435,2.7328,2.7279,2.7084,2.6659,2.6105,2.5921,2.655,2.7068,2.6773,2.8231,2.9237,2.8777,2.659,2.409,2.2005,1.9381,1.7019,0.0,0.0,0.0,1.59,1.6246,1.649,1.6585,1.6788,1.6849,1.6754,1.6748,1.6673,1.6524,1.6524,1.6422,1.6225,1.6029,1.575,1.5411,1.5411,1.5323,1.5181,1.5181,1.5181,1.5181,1.5181,1.5181,1.5181,1.5181,1.5181,1.5181,1.5181,1.5181,1.5187,0.0,0.0,0.0,0.0,0.0,0.0,0.0,0.0,0.0,0.0,0.0,0.0,0.0,0.0,0.0,0.0,0.0,0.0,0.0,0.0,0.0,2.2699,2.3394,2.5534,2.9215,2.9824,3.1744,3.4959,3.6254,3.7165,3.7905,3.9088,3.9557,3.9607,3.9941,4.0137,4.0486,4.0307,3.9724,3.8703,3.8489,3.7282,3.5686,3.4145,3.227,3.0273,2.8893,0.0,0.0,0.0,0.0,0.0,0.0,0.0,0.0,0.0,0.0,2.4957,2.5989,2.7158,2.7722,2.6044,2.5873,2.5309,2.3106,2.2535,2.2394,2.2117,2.1813,2.1501,0.0,0.0,2.3086,2.2033,2.3671,2.4674,2.3645,2.1206,1.9604,0.0,0.0,0.0,0.0,0.0,0.0,1.5642,0.0,1.6293,1.6307,1.6585,1.6741,1.6748,1.6741,1.6666,1.6524,1.6497,1.6347,1.6069,1.6056,1.5818,1.5398,1.5398,1.5316,1.5181,1.5181,1.5181,1.5181,1.5181,1.5181,1.5181,1.5181,1.5181,1.5181,1.5181,1.5181,1.5181,0.0,0.0,0.0,0.0,0.0,0.0,0.0,0.0,0.0,0.0,0.0,0.0,0.0,0.0,0.0,0.0,0.0,0.0,0.0,0.0,0.0,0.0,0.0,0.0,0.0,0.0,0.0,0.0,2.9295,2.977,3.0173,3.0245,3.0533,3.0809,3.0836,3.108,3.1584,3.3521,3.2859,3.1029,3.4098,3.3851,3.1462,3.1409,3.0544,2.9228,2.6692,0.0,0.0,0.0,0.0,0.0,0.0,0.0,2.2632,0.0,0.0,2.5594,2.512,2.5602,2.6009,2.3849,2.343,2.3289,2.2556,2.2293,2.2107,2.1834,2.1024,2.0092,0.0,0.0,0.0,2.06,2.2252,0.0,2.3534,2.1836,0.0,1.9818,0.0,1.6035,1.5662,1.5764,0.0,0.0,1.5967,1.6069,1.63,1.6483,1.6632,1.6748,1.6639,1.6558,1.6524,1.6191,1.5988,1.5906,1.5689,1.5459,1.5242,1.5242,1.5221,1.5181,1.5181,1.5181,1.5181,1.5181,1.5181,1.5181,1.5181,1.5181,1.5181,1.5181,1.5181,1.5181,0.0,0.0,0.0,0.0,0.0,0.0,0.0,0.0,0.0,0.0,0.0,0.0,0.0,0.0,0.0,0.0,0.0,0.0,0.0,0.0,0.0,0.0,0.0,0.0,0.0,0.0,0.0,0.0,0.0,0.0,2.5331,2.5571,2.5852,2.6159,2.6132,2.6373,2.6948,2.836,2.765,0.0,0.0,2.7955,2.6066,2.6223,2.6028,0.0,0.0,0.0,0.0,0.0,0.0,2.2245,2.2939,2.3527,2.4182,2.5277,0.0,2.5322,2.5098,2.4776,2.4011,2.1558,2.0964,2.0602,1.9077,1.8635,1.84,1.7669,1.6827,0.0,1.5874,0.0,0.0,0.0,0.0,0.0,2.0079,1.9249,1.8496,0.0,1.7214,0.0,1.5981,1.609,1.6185,0.0,1.6103,1.613,1.63,1.6442,1.6558,1.6646,1.6503,1.6395,1.6327,1.6015,1.5818,1.5757,1.552,1.533,1.5181,1.5181,1.5181,1.5181,1.5181,1.5181,1.5181,1.5181,1.5181,1.5181,1.5181,1.5181,1.5181,1.5181,1.5181,1.5181,0.0,0.0,0.0,0.0,0.0,0.0,0.0,0.0,0.0,0.0,0.0,0.0,0.0,0.0,0.0,0.0,0.0,0.0,0.0,0.0,0.0,0.0,0.0,0.0,0.0,0.0,0.0,0.0,0.0,0.0,0.0,0.0,0.0,0.0,0.0,0.0,0.0,2.4155,2.3607,2.2899,2.2619,2.1924,2.1056,0.0,0.0,0.0,0.0,0.0,0.0,0.0,2.2953,2.3193,2.4422,2.5384,2.6213,2.6907,2.5949,2.4893,2.5103,2.3924,2.1798,1.9158,1.8436,1.7692,1.4759,1.3994,1.36,1.2461,0.0,1.1619,1.1328,1.2696,1.3674,1.3019,0.0,1.5917,1.5423,1.5445,1.5635,1.609,1.6137,1.6137,1.6137,1.6279,1.6368,1.6368,1.6388,1.6381,1.6341,1.6435,1.6483,1.6463,1.6361,1.6239,1.6083,1.5913,1.5764,1.5635,1.5466,1.5309,1.5181,1.5181,1.5181,1.5181,1.5181,1.5181,1.5181,1.5181,1.5181,1.5181,1.5181,1.5181,1.5181,1.5181,1.5181,1.5181,0.0,0.0,0.0,0.0,0.0,0.0,0.0,0.0,0.0,0.0,0.0,0.0,0.0,0.0,0.0,0.0,0.0,0.0,0.0,0.0,0.0,0.0,0.0,0.0,0.0,0.0,0.0,0.0,0.0,0.0,0.0,0.0,0.0,0.0,0.0,0.0,0.0,2.1015,2.0909,2.0762,2.0708,2.0708,2.0748,0.0,0.0,0.0,0.0,0.0,0.0,0.0,2.3407,2.3861,2.5277,2.6159,2.6934,2.827,2.6847,2.4863,2.3921,2.1782,1.9344,1.6759,1.5946,1.5385,1.4386,1.3593,0.0,0.0,1.1477,1.1009,1.0704,1.1219,0.0,1.2277,0.0,0.0,0.0,0.0,1.594,0.0,0.0,0.0,0.0,0.0,0.0,0.0,1.6788,1.6754,1.6497,1.6395,1.6286,1.6164,1.6259,1.6239,1.6083,1.5811,1.5662,1.5635,1.5357,1.5208,1.5181,1.5181,1.5181,1.5181,1.5181,1.5181,1.5181,1.5181,1.5181,1.5181,1.5181,1.5181,1.5181,1.5181,1.5181,1.5181,0.0,0.0,0.0,0.0,0.0,0.0,0.0,0.0,0.0,0.0,0.0,0.0,0.0,0.0,0.0,0.0,0.0,0.0,0.0,0.0,0.0,0.0,0.0,0.0,0.0,0.0,0.0,0.0,0.0,0.0,0.0,0.0,0.0,0.0,0.0,0.0,0.0,0.0,0.0,0.0,0.0,0.0,0.0,0.0,0.0,0.0,0.0,0.0,0.0,0.0,2.3394,2.4102,2.6039,2.7255,2.815,2.9018,2.7862,2.5822,2.3841,2.1559,1.9101,1.6444,1.5303,1.4713,1.3722,0.0,0.0,0.0,1.0731,1.0412,1.0181,0.0,0.0,0.0,0.0,0.0,0.0,0.0,0.0,0.0,0.0,0.0,0.0,0.0,1.6666,1.6741,1.6822,1.6795,1.6646,1.6429,1.6279,1.6205,1.6191,1.6157,1.6083,1.5791,1.5642,1.5635,1.533,1.5181,1.5181,1.5181,1.5181,1.5181,1.5181,1.5181,1.5181,1.5181,1.5181,1.5181,1.5181,1.5181,1.5181,1.5181,1.5181,1.5181,0.0,0.0,0.0,0.0,0.0,0.0,0.0,0.0,0.0,0.0,0.0,0.0,0.0,0.0,0.0,0.0,0.0,0.0,0.0,0.0,0.0,0.0,0.0,0.0,0.0,0.0,0.0,0.0,0.0,0.0,0.0,0.0,0.0,0.0,0.0,0.0,0.0,0.0,0.0,0.0,0.0,0.0,0.0,0.0,0.0,0.0,0.0,0.0,0.0,0.0,2.2939,2.3741,2.5785,2.7455,2.8724,2.9018,2.8126,2.6616,2.4726,2.2198,1.9552,1.7245,1.5758,1.457,1.322,1.2515,0.0,0.0,1.0107,0.9951,0.9802,0.0,0.0,0.0,0.0,0.0,0.0,0.0,0.0,0.0,0.0,0.0,0.0,0.0,0.0,1.6592,1.6639,1.6666,1.67,1.6449,1.6293,1.6259,1.6144,1.6069,1.6035,1.5771,1.5622,1.5588,1.5309,1.5181,1.5181,1.5181,1.5181,1.5181,1.5181,1.5181,1.5181,1.5181,1.5181,1.5181,1.5181,1.5181,1.5181,1.5181,1.5181,1.5181,0.0,0.0,0.0,0.0,0.0,0.0,0.0,0.0,0.0,0.0,0.0,0.0,0.0,0.0,0.0,0.0,0.0,0.0,0.0,0.0,0.0,0.0,0.0,0.0,0.0,0.0,0.0,0.0,0.0,0.0,0.0,0.0,0.0,0.0,0.0,0.0,0.0,0.0,0.0,0.0,0.0,0.0,0.0,0.0,0.0,0.0,0.0,0.0,0.0,0.0,0.0,2.2325,2.3367,2.5411,2.7482,2.7776,0.0,0.0,2.7094,2.386,1.9936,1.975,1.7162,1.4407,1.3057,0.0,0.0,1.029,0.9951,0.9795,0.9652,0.9897,1.0304,1.0894,1.126,1.204,0.0,0.0,0.0,0.0,0.0,0.0,0.0,1.5839,1.5981,1.613,1.6273,1.6408,1.6537,1.6395,1.6246,1.6103,1.609,1.6015,1.5879,1.5716,1.5567,1.5432,1.5262,1.5181,1.5181,1.5181,1.5181,1.5181,1.5181,1.5181,1.5181,1.5181,1.5181,1.5181,1.5181,1.5181,1.5181,1.5181,1.5181,1.5181,0.0,0.0,0.0,0.0,0.0,0.0,0.0,0.0,0.0,0.0,0.0,0.0,0.0,0.0,0.0,0.0,0.0,0.0,0.0,0.0,0.0,0.0,0.0,0.0,0.0,0.0,0.0,0.0,0.0,0.0,0.0,0.0,0.0,0.0,0.0,0.0,0.0,0.0,0.0,0.0,0.0,0.0,0.0,0.0,0.0,0.0,0.0,0.0,0.0,0.0,0.0,0.0,2.1002,2.2392,0.0,0.0,2.7004,2.7159,2.6931,2.5872,2.4207,2.2442,1.948,1.653,1.5233,0.0,0.0,1.0249,0.993,0.9747,0.9517,0.9713,0.9964,1.012,1.031,1.0955,0.0,0.0,0.0,0.0,0.0,0.0,0.0,0.0,1.5784,1.5934,1.6083,1.6157,1.6123,1.6069,1.609,1.6218,1.5954,1.5825,1.5852,1.5622,1.5472,1.5411,1.5255,1.5181,1.5181,1.5181,1.5181,1.5181,1.5181,1.5181,1.5181,1.5181,1.5181,1.5181,1.5181,1.5181,1.5181,1.5181,1.5181,1.5181,0.0,0.0,0.0,0.0,0.0,0.0,0.0,0.0,0.0,0.0,0.0,0.0,0.0,0.0,0.0,0.0,0.0,0.0,0.0,0.0,0.0,0.0,0.0,0.0,0.0,0.0,0.0,0.0,0.0,0.0,0.0,0.0,0.0,0.0,0.0,0.0,0.0,0.0,0.0,0.0,0.0,0.0,0.0,0.0,0.0,0.0,0.0,0.0,0.0,0.0,0.0,0.0,0.0,0.0,0.0,0.0,2.6132,2.7601,2.7066,2.7152,2.7025,2.5001,2.1615,1.8623,0.0,0.0,0.0,1.0775,1.0229,0.968,0.9429,0.951,0.9618,0.9612,0.9727,1.0263,1.1525,0.0,0.0,0.0,0.0,0.0,0.0,1.5418,1.5615,1.5716,1.5866,1.5906,1.5798,1.5744,1.5839,1.6103,1.5805,1.5669,1.5723,1.5513,1.5391,1.5343,1.5235,1.5181,1.5181,1.5181,1.5181,1.5181,1.5181,1.5181,1.5181,1.5181,1.5181,1.5181,1.5181,1.5181,1.5181,1.5181,1.5181,1.5181,0.0,0.0,0.0,0.0,0.0,0.0,0.0,0.0,0.0,0.0,0.0,0.0,0.0,0.0,0.0,0.0,0.0,0.0,0.0,0.0,0.0,0.0,0.0,0.0,0.0,0.0,0.0,0.0,0.0,0.0,0.0,0.0,0.0,0.0,0.0,0.0,0.0,0.0,0.0,0.0,0.0,0.0,0.0,0.0,0.0,0.0,0.0,0.0,0.0,0.0,0.0,0.0,0.0,0.0,0.0,0.0,2.4102,2.6734,2.8217,2.7649,2.6676,2.6934,2.3477,1.9881,0.0,0.0,0.0,1.2411,1.0778,0.9564,0.9408,0.9259,0.9259,0.9557,0.9727,1.0188,1.1246,1.1647,0.0,0.0,0.0,0.0,0.0,1.4889,1.5411,1.5418,1.5554,1.5642,1.5642,1.5499,1.5486,1.5642,1.5642,1.5567,1.5418,1.5411,1.5337,1.5181,1.5181,1.5181,1.5181,1.5181,1.5181,1.5181,1.5181,1.5181,1.5181,1.5181,1.5181,1.5181,1.5181,1.5181,1.5181,1.5181,1.5181,1.5181,0.0,0.0,0.0,0.0,0.0,0.0,0.0,0.0,0.0,0.0,0.0,0.0,0.0,0.0,0.0,0.0,0.0,0.0,0.0,0.0,0.0,0.0,0.0,0.0,0.0,0.0,0.0,0.0,0.0,0.0,0.0,0.0,0.0,0.0,0.0,0.0,0.0,0.0,0.0,0.0,0.0,0.0,0.0,0.0,0.0,0.0,0.0,0.0,0.0,0.0,0.0,0.0,0.0,0.0,0.0,0.0,0.0,0.0,2.5144,2.5374,2.5366,2.566,2.3152,2.028,1.9442,0.0,0.0,1.2423,1.1626,1.0801,0.9495,0.9184,0.9286,0.9686,0.9788,1.0114,1.0968,0.0,0.0,0.0,0.0,0.0,0.0,0.0,1.5364,1.5262,1.5398,1.5438,1.533,1.5282,1.5371,1.5628,1.5438,1.5357,1.5411,1.5309,1.5228,1.5181,1.5181,1.5181,1.5181,1.5181,1.5181,1.5181,1.5181,1.5181,1.5181,1.5181,1.5181,1.5181,1.5181,1.5181,1.5181,1.5181,1.5181,1.5181,0.0,0.0,0.0,0.0,0.0,0.0,0.0,0.0,0.0,0.0,0.0,0.0,0.0,0.0,0.0,0.0,0.0,0.0,0.0,0.0,0.0,0.0,0.0,0.0,0.0,0.0,0.0,0.0,0.0,0.0,0.0,0.0,0.0,0.0,0.0,0.0,0.0,0.0,0.0,0.0,0.0,0.0,0.0,0.0,0.0,0.0,0.0,0.0,0.0,0.0,0.0,0.0,0.0,0.0,0.0,0.0,0.0,0.0,0.0,2.3741,2.4382,2.4676,2.3104,0.0,0.0,0.0,0.0,1.3348,1.2399,1.147,0.9546,0.915,0.9245,0.9523,0.9707,1.0025,1.0616,0.0,0.0,0.0,0.0,0.0,0.0,1.5167,1.5282,1.5187,1.5269,1.5282,1.5187,1.5181,1.5269,1.5459,1.5282,1.5228,1.5323,1.5228,1.5181,1.5181,1.5181,1.5181,1.5181,1.5181,1.5181,1.5181,1.5181,1.5181,0.0,1.5181,1.5181,1.5181,1.5181,1.5181,1.5181,1.5181,1.5181,1.5181,0.0,0.0,0.0,0.0,0.0,0.0,0.0,0.0,0.0,0.0,0.0,0.0,0.0,0.0,0.0,0.0,0.0,0.0,0.0,0.0,0.0,0.0,0.0,0.0,0.0,0.0,0.0,0.0,2.513,2.5645,2.6698,0.0,0.0,0.0,0.0,0.0,0.0,0.0,0.0,0.0,0.0,0.0,0.0,0.0,0.0,0.0,0.0,0.0,0.0,0.0,0.0,0.0,0.0,0.0,0.0,0.0,0.0,0.0,0.0,0.0,0.0,0.0,0.0,0.0,0.0,0.0,0.0,0.0,0.0,1.157,0.9653,0.9264,0.9164,0.9198,0.9571,0.9958,1.0256,0.0,0.0,0.0,0.0,0.0,1.4489,1.4923,1.5181,1.5368,1.5556,1.5556,1.5556,1.5556,1.5368,1.5181,1.5181,1.5181,1.5181,1.5181,1.5181,1.5181,1.5181,1.5181,1.5181,1.5181,1.5181,1.5181,1.5181,1.5181,1.5181,1.5181,1.5181,1.5181,1.5181,1.5181,1.5181,1.5181,1.5181,1.5181,0.0,0.0,0.0,0.0,0.0,0.0,0.0,0.0,0.0,0.0,0.0,0.0,0.0,0.0,0.0,0.0,0.0,0.0,0.0,0.0,0.0,0.0,0.0,0.0,0.0,0.0,0.0,2.5522,2.5948,2.6602,2.7419,2.6282,0.0,0.0,0.0,0.0,0.0,0.0,0.0,0.0,0.0,0.0,0.0,0.0,0.0,0.0,0.0,0.0,0.0,0.0,0.0,0.0,0.0,0.0,0.0,0.0,0.0,0.0,0.0,0.0,0.0,0.0,0.0,0.0,0.0,0.0,0.0,0.0,0.0,0.0,0.0,0.9927,0.9266,0.9605,0.9951,1.0236,1.0419,0.0,0.0,0.0,0.0,1.4699,1.4685,1.4991,1.5924,1.7949,1.7949,1.7949,1.7949,1.7949,1.7211,1.5181,1.5181,1.5181,1.5181,1.5181,1.5181,1.5181,1.5181,1.5181,1.5181,1.5181,1.5181,1.5181,1.5181,1.5181,1.5181,1.5181,1.5181,1.5181,1.5181,1.5181,1.5181,1.5181,1.5181,1.5181,0.0,0.0,0.0,0.0,0.0,0.0,0.0,0.0,0.0,0.0,0.0,0.0,0.0,0.0,0.0,0.0,0.0,0.0,0.0,0.0,0.0,0.0,0.0,0.0,0.0,0.0,0.0,0.0,0.0,2.6092,0.0,0.0,0.0,0.0,0.0,0.0,0.0,0.0,0.0,0.0,0.0,0.0,0.0,0.0,0.0,0.0,0.0,0.0,0.0,1.9399,1.9679,2.0013,0.0,0.0,0.0,0.0,0.0,0.0,0.0,0.0,0.0,0.0,0.0,0.0,0.0,0.0,0.0,0.0,0.0,0.0,0.0,0.0,1.1494,1.1787,1.2101,1.2825,0.0,0.0,0.0,0.0,0.0,1.7927,0.0,1.8259,1.8963,2.052,2.0529,2.0159,1.8871,1.8871,1.7763,1.5368,1.5181,1.5181,1.5181,1.5181,1.5181,1.5181,1.5181,1.5181,1.5181,1.5181,1.5181,1.5181,1.5181,1.5181,1.5181,1.5181,1.5181,1.5181,1.5181,1.5181,1.5181,1.5181,1.5181,1.5181,0.0,0.0,0.0,0.0,0.0,0.0,0.0,0.0,0.0,0.0,0.0,0.0,0.0,0.0,0.0,0.0,0.0,0.0,0.0,0.0,0.0,0.0,0.0,0.0,0.0,0.0,0.0,0.0,0.0,0.0,0.0,0.0,0.0,0.0,0.0,0.0,0.0,0.0,0.0,0.0,0.0,0.0,0.0,0.0,0.0,0.0,0.0,0.0,0.0,1.8918,1.9279,1.9693,1.9492,0.0,0.0,0.0,0.0,0.0,0.0,0.0,0.0,0.0,0.0,0.0,0.0,0.0,0.0,0.0,0.0,0.0,0.0,0.0,0.0,0.0,0.0,0.0,0.0,0.0,0.0,0.0,2.1108,0.0,2.2111,2.2222,2.2343,2.3096,2.2739,2.1636,1.9604,1.9056,1.7763,1.5368,1.5181,1.5181,1.5181,1.5181,1.5181,1.5181,1.5181,1.5181,1.5181,1.5181,1.5181,1.5181,1.5181,1.5181,1.5181,1.5181,1.5181,1.5181,1.5181,1.5181,1.5181,1.5181,1.5368,1.5737,0.0,0.0,0.0,0.0,0.0,0.0,0.0,0.0,0.0,0.0,0.0,0.0,0.0,0.0,0.0,0.0,0.0,0.0,0.0,0.0,0.0,0.0,0.0,0.0,0.0,0.0,0.0,0.0,0.0,0.0,2.7793,2.8629,2.7234,0.0,0.0,0.0,0.0,0.0,0.0,0.0,0.0,0.0,0.0,0.0,0.0,0.0,0.0,0.0,0.0,1.8918,1.9158,1.9466,1.9666,0.0,0.0,0.0,0.0,0.0,1.8931,1.9145,0.0,0.0,0.0,0.0,0.0,0.0,0.0,0.0,0.0,0.0,0.0,0.0,0.0,0.0,0.0,0.0,0.0,0.0,0.0,2.1812,0.0,2.2242,2.2138,2.2273,2.3248,2.5491,2.3656,2.2372,2.2004,1.9974,1.7763,1.5368,1.5181,1.5181,1.5181,1.5181,1.5181,1.5181,1.5181,1.5181,1.5181,1.5181,1.5181,1.5181,1.5181,1.5181,1.5181,1.5181,1.5181,1.5181,1.5181,1.5181,1.5181,1.5181,1.6471,1.8685,0.0,0.0,0.0,0.0,0.0,0.0,0.0,0.0,0.0,0.0,0.0,0.0,0.0,0.0,0.0,0.0,0.0,0.0,0.0,0.0,0.0,0.0,0.0,0.0,0.0,0.0,0.0,0.0,0.0,2.7832,2.8711,2.9297,2.7512,2.3778,0.0,0.0,0.0,0.0,0.0,0.0,0.0,0.0,0.0,0.0,0.0,0.0,0.0,0.0,0.0,0.0,1.8651,1.8918,1.9052,0.0,0.0,0.0,0.0,0.0,1.8691,1.8905,0.0,0.0,0.0,0.0,0.0,0.0,0.0,0.0,0.0,0.0,0.0,0.0,0.0,0.0,0.0,0.0,2.3794,2.4115,2.4663,0.0,0.0,2.5808,2.6021,2.6247,2.681,2.8063,2.5866,2.3838,2.2556,2.0159,1.7763,1.5368,1.5181,1.5181,1.5181,1.5181,1.5181,1.5181,1.5181,1.5181,1.5181,1.5181,1.5181,1.5181,1.5181,1.5181,1.5181,1.5181,1.5181,1.5181,1.5181,1.5181,1.5368,1.6658,1.8685,2.1083,0.0,0.0,0.0,0.0,0.0,0.0,0.0,0.0,0.0,0.0,0.0,0.0,0.0,0.0,0.0,0.0,0.0,0.0,0.0,0.0,0.0,0.0,0.0,0.0,0.0,0.0,0.0,2.668,2.7754,2.8867,3.0019,2.9922,2.7846,0.0,0.0,0.0,0.0,0.0,0.0,0.0,0.0,0.0,0.0,0.0,0.0,0.0,0.0,0.0,0.0,0.0,0.0,0.0,0.0,0.0,0.0,1.837,1.8544,1.8677,1.8531,1.8704,1.8998,0.0,0.0,0.0,0.0,0.0,0.0,0.0,0.0,0.0,0.0,0.0,0.0,0.0,0.0,2.636,2.7028,2.7362,2.7622,2.7774,2.7875,2.8011,2.7902,2.794,2.8029,2.8243,2.5855,2.3656,2.182,1.9384,1.7173,1.5181,1.5113,1.5113,1.5181,1.5147,1.5147,1.5181,1.5181,1.5181,1.5181,1.5147,1.5153,1.5181,1.5695,1.6076,1.6104,1.6068,1.6076,1.5917,1.5327,1.5521,1.6479,1.9419,2.181,2.3473,0.0,0.0,0.0,0.0,0.0,0.0,0.0,0.0,0.0,0.0,0.0,0.0,0.0,0.0,0.0,0.0,0.0,0.0,0.0,0.0,0.0,0.0,0.0,0.0,0.0,2.582,2.668,2.7578,2.9219,3.0488,3.1367,3.0976,2.857,2.4641,0.0,0.0,0.0,0.0,0.0,0.0,0.0,0.0,0.0,0.0,0.0,0.0,0.0,0.0,0.0,0.0,0.0,0.0,0.0,0.0,1.7702,1.7996,1.809,1.817,1.8424,1.8704,1.8998,1.9292,0.0,0.0,0.0,0.0,0.0,0.0,0.0,0.0,0.0,0.0,0.0,0.0,0.0,2.8257,2.9138,0.0,2.8795,2.6665,2.6316,2.5434,2.3268,2.3085,2.3096,2.3116,2.0899,1.9419,1.9233,1.671,1.5231,1.5174,1.4916,1.4903,1.5181,1.5052,1.5052,1.5181,1.5181,1.5181,1.5174,1.5045,1.5059,1.5362,1.7419,1.8534,1.8668,1.8509,1.8534,1.8297,1.5953,1.6532,1.9233,2.4021,2.5866,2.6229,0.0,0.0,0.0,0.0,0.0,0.0,0.0,0.0,0.0,0.0,0.0,0.0,0.0,0.0,0.0,0.0,0.0,0.0,0.0,0.0,0.0,0.0,0.0,2.5312,2.5488,2.6328,2.7461,2.8848,3.0586,3.1465,3.1504,3.082,0.0,0.0,0.0,0.0,0.0,0.0,0.0,0.0,0.0,0.0,0.0,0.0,0.0,0.0,0.0,0.0,0.0,0.0,1.7876,1.7862,1.7782,1.7675,1.7649,1.7956,1.8183,1.8343,1.8464,1.8838,1.9225,1.9332,0.0,0.0,0.0,0.0,0.0,0.0,0.0,0.0,0.0,0.0,0.0,0.0,2.7589,2.8951,2.9646,2.8552,2.7328,2.6229,2.4763,2.3473,2.2556,2.2556,2.2556,2.2556,2.0344,1.8871,1.8871,1.642,1.5086,1.5052,1.4943,1.4889,1.4909,1.4855,1.4855,1.4909,1.5092,1.5086,1.4909,1.495,1.495,1.5094,1.7492,1.8634,1.8877,2.0253,2.0894,2.1064,1.9943,2.1077,2.3634,2.532,2.7014,2.8629,0.0,0.0,0.0,0.0,0.0,0.0,0.0,0.0,0.0,0.0,0.0,0.0,0.0,0.0,0.0,0.0,0.0,0.0,0.0,0.0,0.0,0.0,0.0,2.5391,2.5527,2.6504,2.7851,2.957,3.1309,3.1875,3.1309,0.0,0.0,0.0,0.0,0.0,0.0,0.0,0.0,0.0,0.0,0.0,0.0,0.0,0.0,0.0,0.0,0.0,0.0,0.0,1.8183,1.813,1.7822,1.7729,1.7756,1.7862,1.8116,1.833,1.8237,1.8637,0.0,0.0,0.0,0.0,0.0,0.0,0.0,0.0,0.0,0.0,0.0,0.0,0.0,0.0,2.7989,2.9138,2.982,2.7702,2.5866,2.5127,2.2923,2.1083,2.0353,2.0168,2.0141,2.0078,1.866,1.7739,1.7691,1.6032,1.5072,1.4977,1.4875,1.4801,1.474,1.4692,1.4665,1.4672,1.4923,1.4936,1.474,1.4801,1.5153,1.6,1.8397,2.0078,2.0848,2.2388,2.263,2.2232,2.2861,2.443,2.6089,2.6819,2.8207,2.9913,0.0,0.0,0.0,0.0,0.0,0.0,0.0,0.0,0.0,0.0,0.0,0.0,0.0,0.0,0.0,0.0,0.0,0.0,0.0,0.0,0.0,0.0,0.0,2.4609,2.5039,2.6348,2.7851,2.957,3.1309,3.1719,3.0859,3.041,0.0,0.0,0.0,0.0,0.0,0.0,0.0,0.0,0.0,0.0,0.0,0.0,0.0,0.0,0.0,0.0,0.0,0.0,1.849,1.8437,1.8143,1.805,1.7996,1.7689,1.7809,1.7983,1.7689,1.8036,0.0,0.0,0.0,0.0,0.0,0.0,0.0,0.0,0.0,2.4663,2.4649,0.0,0.0,2.6587,2.7829,2.8911,2.9793,2.7702,2.5309,2.2739,2.0344,1.7949,1.5368,1.5181,1.512,1.4984,1.5099,1.512,1.4977,1.497,1.497,1.497,1.4672,1.4584,1.4733,1.4584,1.4509,1.4509,1.4665,1.4733,1.4733,1.4577,1.5838,1.8313,2.0596,2.3095,2.5255,2.5184,2.3664,2.1761,2.447,2.563,2.6211,2.8574,2.9659,2.9913,0.0,0.0,0.0,0.0,0.0,0.0,0.0,0.0,0.0,0.0,0.0,0.0,0.0,0.0,0.0,0.0,0.0,0.0,0.0,0.0,0.0,0.0,0.0,0.0,0.0,0.0,2.7559,2.957,3.0391,3.0351,0.0,0.0,0.0,2.7981,0.0,0.0,0.0,0.0,0.0,0.0,0.0,0.0,0.0,0.0,0.0,0.0,0.0,0.0,0.0,0.0,0.0,0.0,1.845,1.8357,1.8384,1.849,1.845,1.8424,1.8744,0.0,0.0,0.0,0.0,0.0,0.0,0.0,0.0,0.0,0.0,2.6106,2.5905,0.0,0.0,2.7068,2.8136,2.8426,2.7435,2.5127,2.2739,2.0344,1.7763,1.5917,1.5181,1.5092,1.5059,1.5113,1.4964,1.4903,1.497,1.4869,1.476,1.4652,1.4557,1.4482,1.4428,1.4387,1.4367,1.4367,1.4407,1.4428,1.4434,1.4489,1.5712,1.8109,2.0637,2.2998,2.537,2.7071,2.7368,2.65,2.7292,2.7972,2.8549,2.8894,2.9486,2.9913,0.0,0.0,0.0,0.0,0.0,0.0,0.0,0.0,0.0,0.0,0.0,0.0,0.0,0.0,0.0,0.0,0.0,0.0,0.0,0.0,0.0,0.0,0.0,0.0,0.0,2.5586,2.6855,0.0,0.0,0.0,0.0,0.0,0.0,2.8574,0.0,2.8163,0.0,0.0,0.0,0.0,0.0,0.0,0.0,0.0,0.0,0.0,0.0,0.0,0.0,0.0,0.0,0.0,1.8758,1.8744,1.8824,1.8771,1.8624,1.8544,1.8771,0.0,0.0,0.0,0.0,0.0,0.0,0.0,0.0,0.0,0.0,2.7335,2.7281,2.7268,0.0,2.7896,2.847,2.8173,2.6366,2.3881,2.15,1.913,1.6569,1.5099,1.5099,1.4964,1.4889,1.4916,1.4808,1.4753,1.4787,1.476,1.4672,1.4516,1.4509,1.4441,1.4299,1.4299,1.4299,1.4299,1.4299,1.4299,1.4306,1.4387,1.6125,1.9324,2.2751,2.5086,2.6498,2.8076,2.8577,2.8417,2.8417,2.8778,2.9285,2.9112,2.9406,2.9913,0.0,0.0,0.0,0.0,0.0,0.0,0.0,0.0,0.0,0.0,0.0,0.0,0.0,0.0,0.0,0.0,0.0,0.0,0.0,0.0,0.0,0.0,0.0,0.0,0.0,0.0,0.0,0.0,0.0,0.0,0.0,0.0,2.7419,2.8487,0.0,2.7329,0.0,0.0,0.0,0.0,0.0,0.0,0.0,0.0,0.0,0.0,0.0,0.0,0.0,0.0,0.0,0.0,1.9052,1.9172,1.9305,1.8771,1.8571,1.849,0.0,0.0,0.0,0.0,0.0,0.0,0.0,0.0,0.0,0.0,0.0,2.8377,2.8644,2.8016,2.7816,2.8871,2.8818,2.7939,2.5914,2.3623,2.1096,1.8575,1.6221,1.495,1.495,1.4808,1.4665,1.4543,1.4638,1.4645,1.4516,1.4631,1.4638,1.4496,1.4489,1.4421,1.4278,1.4292,1.4292,1.4278,1.4292,1.4292,1.4278,1.4469,1.7063,2.1708,2.6174,2.8083,2.8096,2.8096,2.8123,2.8136,2.8136,2.8511,2.9045,2.9045,2.9406,2.9913,0.0,0.0,0.0,0.0,0.0,0.0,0.0,0.0,0.0,0.0,0.0,0.0,0.0,0.0,0.0,0.0,0.0,0.0,0.0,0.0,0.0,0.0,0.0,0.0,0.0,0.0,0.0,0.0,0.0,0.0,0.0,0.0,0.0,2.5309,0.0,2.6461,0.0,0.0,0.0,0.0,0.0,0.0,0.0,0.0,0.0,0.0,0.0,0.0,0.0,0.0,0.0,0.0,1.9292,1.9466,1.9679,1.9559,1.9199,1.8971,0.0,0.0,0.0,0.0,0.0,0.0,0.0,0.0,0.0,0.0,0.0,2.9486,2.9325,2.9138,2.9018,2.9032,2.8991,2.7559,2.3375,2.2317,2.0346,1.6044,1.5146,1.4787,1.4787,1.4652,1.4597,1.4685,1.4509,1.4428,1.4509,1.4434,1.438,1.4346,1.4346,1.4272,1.4122,1.4238,1.4238,1.4122,1.4245,1.4238,1.4122,1.614,1.9405,2.3687,2.6364,2.7575,2.7789,2.7789,2.7936,2.8136,2.8136,2.8511,2.9045,2.9045,2.9406,2.9913,0.0,0.0,0.0,0.0,0.0,0.0,0.0,0.0,0.0,0.0,0.0,0.0,0.0,0.0,0.0,0.0,0.0,0.0,0.0,0.0,0.0,0.0,0.0,0.0,0.0,0.0,0.0,0.0,0.0,0.0,0.0,0.0,0.0,2.4135,0.0,2.4512,0.0,0.0,0.0,0.0,0.0,0.0,0.0,0.0,0.0,0.0,0.0,0.0,0.0,0.0,0.0,0.0,0.0,0.0,1.9773,1.9639,1.9372,1.9265,0.0,0.0,0.0,0.0,0.0,0.0,0.0,0.0,0.0,0.0,2.9179,2.9499,2.9486,2.9366,2.9219,2.9072,2.8925,2.7232,2.2433,2.1737,1.9962,1.5167,1.4631,1.4631,1.4631,1.4496,1.4414,1.4421,1.4346,1.4299,1.4299,1.4231,1.419,1.419,1.4116,1.4041,1.396,1.4041,1.4041,1.396,1.4041,1.5233,1.7187,1.847,2.0837,2.4115,2.6324,2.7348,2.7509,2.7642,2.7789,2.7949,2.8083,2.843,2.8845,2.8991,2.9325,2.9726,0.0,0.0,0.0,0.0,0.0,0.0,0.0,0.0,0.0,0.0,0.0,0.0,0.0,0.0,0.0,0.0,0.0,0.0,0.0,0.0,0.0,0.0,0.0,0.0,0.0,0.0,0.0,0.0,0.0,0.0,0.0,0.0,0.0,2.3505,0.0,0.0,0.0,0.0,0.0,0.0,0.0,0.0,0.0,0.0,0.0,0.0,0.0,0.0,0.0,0.0,0.0,0.0,0.0,0.0,1.976,1.9506,1.9372,1.9372,0.0,0.0,0.0,0.0,0.0,0.0,0.0,0.0,0.0,0.0,2.8965,2.9112,2.9366,2.9165,2.8951,2.8898,2.8644,2.6866,2.2141,2.1444,1.9517,1.4963,1.4462,1.4462,1.4434,1.4353,1.4238,1.4082,1.4211,1.4224,1.4041,1.4055,1.4061,1.4034,1.3905,1.3831,1.3804,1.3831,1.3831,1.3804,1.3804,1.6156,2.0493,2.0463,2.1803,2.4351,2.6307,2.7148,2.7201,2.7442,2.7575,2.7655,2.7949,2.8257,2.8564,2.8911,2.9232,2.9526,0.0,0.0,0.0,0.0,0.0,0.0,0.0,0.0,0.0,0.0,0.0,0.0,0.0,0.0,0.0,0.0,0.0,0.0,0.0,0.0,0.0,0.0,0.0,0.0,0.0,0.0,0.0,0.0,0.0,0.0,0.0,0.0,0.0,2.2351,0.0,0.0,0.0,0.0,0.0,0.0,0.0,0.0,0.0,0.0,0.0,0.0,0.0,0.0,0.0,0.0,1.9372,0.0,0.0,0.0,1.9786,1.976,1.9386,0.0,0.0,0.0,0.0,0.0,0.0,0.0,0.0,0.0,0.0,0.0,2.8671,2.9045,2.9085,2.8858,2.8577,2.831,2.8016,2.6272,2.149,2.0978,1.9275,1.4646,1.4245,1.4278,1.4143,1.4231,1.4238,1.4082,1.4211,1.4177,1.3885,1.4,1.4007,1.3878,1.3851,1.3783,1.3661,1.3777,1.3777,1.3654,1.3654,1.5981,2.0096,2.0079,2.238,2.637,2.6454,2.6653,2.6881,2.6921,2.7094,2.7348,2.7642,2.7936,2.827,2.8831,2.9232,2.9526,0.0,0.0,0.0,0.0,0.0,0.0,0.0,0.0,0.0,0.0,0.0,0.0,0.0,0.0,0.0,0.0,0.0,0.0,0.0,0.0,0.0,0.0,0.0,0.0,0.0,0.0,0.0,0.0,0.0,0.0,0.0,2.1406,2.2024,0.0,0.0,0.0,0.0,0.0,0.0,0.0,0.0,0.0,0.0,0.0,0.0,0.0,0.0,0.0,0.0,0.0,0.0,1.9586,1.9412,0.0,0.0,0.0,0.0,0.0,0.0,0.0,0.0,0.0,0.0,0.0,0.0,0.0,0.0,2.7589,2.7856,2.815,2.847,2.8163,2.7816,2.7669,2.6517,2.4413,2.1211,1.9628,1.7665,1.4416,1.4204,1.4272,1.4204,1.4183,1.4109,1.3953,1.4007,1.3946,1.3736,1.3783,1.379,1.3722,1.3641,1.3566,1.3505,1.3559,1.3559,1.3498,1.3498,1.5742,1.9846,1.9887,2.2395,2.6573,2.644,2.6466,2.6587,2.6747,2.6894,2.7068,2.7522,2.7776,2.7963,2.8577,2.8885,2.9058,0.0,0.0,0.0,0.0,0.0,0.0,0.0,0.0,0.0,0.0,0.0,0.0,0.0,0.0,0.0,0.0,0.0,0.0,0.0,0.0,0.0,0.0,0.0,0.0,0.0,0.0,0.0,0.0,0.0,0.0,1.8931,2.0642,2.0864,0.0,2.1264,0.0,0.0,0.0,0.0,0.0,0.0,0.0,0.0,0.0,0.0,0.0,0.0,0.0,0.0,0.0,0.0,0.0,1.9439,1.9319,0.0,0.0,0.0,0.0,0.0,0.0,0.0,0.0,0.0,0.0,0.0,0.0,2.648,0.0,2.6987,2.7175,2.7615,2.7455,2.7078,2.6496,2.4972,2.2973,2.0139,1.8264,1.6518,1.4354,1.415,1.4245,1.4245,1.4177,1.4048,1.3858,1.3878,1.3804,1.3587,1.3607,1.3614,1.3573,1.3458,1.3383,1.3342,1.3308,1.3308,1.3342,1.3788,1.5983,1.9563,2.0227,2.2727,2.6279,2.636,2.6386,2.6413,2.6627,2.6707,2.6774,2.7362,2.7589,2.7669,2.835,2.8604,2.8698,0.0,0.0,0.0,0.0,0.0,0.0,0.0,0.0,0.0,0.0,0.0,0.0,0.0,0.0,0.0,0.0,0.0,0.0,0.0,0.0,0.0,0.0,0.0,0.0,0.0,0.0,0.0,0.0,0.0,0.0,1.8931,1.9636,2.0066,2.0214,2.1723,2.2424,2.229,0.0,0.0,0.0,0.0,0.0,0.0,0.0,0.0,0.0,0.0,0.0,0.0,0.0,0.0,0.0,0.0,0.0,0.0,0.0,0.0,0.0,0.0,0.0,0.0,0.0,0.0,0.0,0.0,0.0,0.0,2.5905,2.6239,2.644,2.648,2.6907,2.6509,2.4251,2.3714,2.2058,1.7776,1.696,1.6197,1.4002,1.3987,1.4082,1.4082,1.4204,1.4163,1.3865,1.398,1.3871,1.3437,1.3553,1.3559,1.3417,1.3403,1.3329,1.3186,1.3051,1.3051,1.318,1.4937,1.7154,1.9553,2.1648,2.3889,2.5999,2.6266,2.6386,2.6386,2.6413,2.6413,2.6466,2.7054,2.7281,2.7402,2.8283,2.8604,2.8698,0.0,0.0,0.0,0.0,0.0,0.0,0.0,0.0,0.0,0.0,0.0,0.0,0.0,1.7296,1.5832,1.5832,0.0,0.0,0.0,0.0,0.0,0.0,0.0,0.0,0.0,0.0,0.0,0.0,0.0,1.8143,1.8664,1.9439,1.976,1.9797,2.1481,2.1685,2.0753,2.1452,0.0,0.0,0.0,0.0,0.0,0.0,0.0,0.0,0.0,0.0,0.0,0.0,0.0,0.0,0.0,0.0,0.0,0.0,0.0,0.0,0.0,0.0,0.0,0.0,0.0,0.0,0.0,0.0,2.3821,2.4436,2.4783,2.5104,2.5478,2.6026,2.5792,2.3591,2.2006,2.0008,1.7061,1.5544,1.4513,1.3824,1.3892,1.4,1.4197,1.4089,1.396,1.3851,1.381,1.3675,1.3417,1.3363,1.3356,1.3397,1.322,1.3091,1.3037,1.2983,1.3618,1.4937,1.5655,1.7789,2.1024,2.213,2.3778,2.5692,2.6186,2.6386,2.6386,2.6386,2.6386,2.6453,2.7041,2.7268,2.7348,2.8056,2.831,2.839,0.0,0.0,0.0,0.0,0.0,0.0,0.0,0.0,0.0,0.0,0.0,0.0,0.0,0.0,1.7251,1.6773,1.6402,0.0,0.0,0.0,0.0,0.0,0.0,0.0,0.0,0.0,0.0,0.0,0.0,0.0,0.0,0.0,1.9359,1.9488,2.0582,2.0732,0.0,0.0,0.0,2.177,0.0,0.0,2.135,0.0,0.0,0.0,0.0,0.0,0.0,0.0,0.0,0.0,0.0,0.0,0.0,0.0,0.0,0.0,0.0,0.0,0.0,0.0,0.0,0.0,0.0,0.0,2.2298,2.2899,2.3581,2.4209,2.4703,2.4796,2.4003,2.2032,1.9861,1.7778,1.5723,1.439,1.3546,1.3743,1.377,1.3885,1.4197,1.3994,1.3838,1.3838,1.3709,1.3559,1.341,1.3254,1.32,1.3254,1.3017,1.2881,1.2881,1.3454,1.4553,1.6013,1.718,1.9275,2.1849,2.3068,2.4275,2.5545,2.6132,2.6386,2.6386,2.6386,2.6386,2.6453,2.7041,2.7268,2.7335,2.7923,2.8136,2.823,0.0,0.0,0.0,0.0,0.0,0.0,0.0,0.0,0.0,2.373,0.0,0.0,0.0,0.0,0.0,1.8867,1.7512,1.6727,1.6727,1.6727,0.0,0.0,0.0,0.0,0.0,0.0,0.0,0.0,0.0,0.0,0.0,0.0,1.8784,0.0,1.9359,1.984,2.0752,0.0,2.1868,2.1173,0.0,2.0358,1.9905,0.0,0.0,0.0,2.1216,2.0788,0.0,2.016,0.0,0.0,0.0,0.0,0.0,0.0,0.0,0.0,0.0,0.0,0.0,0.0,0.0,0.0,1.9546,0.0,2.0815,2.1403,2.2686,2.3808,2.4115,2.2955,2.125,1.947,1.7493,1.5528,1.3464,1.3166,1.3281,1.3587,1.362,1.3736,1.4034,1.3926,1.3831,1.3831,1.3702,1.3553,1.3403,1.3247,1.3098,1.2949,1.2807,1.2725,1.2725,1.4562,1.5633,1.5974,1.9746,2.1731,2.1989,2.4431,2.5504,2.5531,2.6132,2.6386,2.6373,2.6386,2.6386,2.6453,2.7041,2.7268,2.7335,2.7923,2.8136,2.823,0.0,0.0,0.0,0.0,0.0,0.0,0.0,0.0,0.0,0.0,0.0,0.0,2.3099,2.2299,2.1162,1.9664,1.9154,1.8451,1.7445,1.7341,1.7341,1.7341,1.7061,0.0,0.0,0.0,0.0,0.0,0.0,0.0,0.0,0.0,0.0,0.0,1.9172,1.9613,2.0027,2.0192,0.0,0.0,2.1506,2.1568,0.0,0.0,0.0,0.0,0.0,2.0708,2.0481,0.0,2.0307,1.9492,0.0,0.0,0.0,0.0,0.0,0.0,1.7862,0.0,0.0,0.0,0.0,0.0,0.0,0.0,2.0147,2.0521,2.1603,2.2632,2.314,2.0781,1.8602,1.8387,1.7005,1.5192,1.3318,1.3017,1.3132,1.3431,1.3363,1.3458,1.3865,1.3777,1.3688,1.3688,1.3546,1.3397,1.3247,1.3098,1.2901,1.2637,1.2698,1.2678,1.2569,1.4499,1.633,1.7902,2.0414,2.2396,2.3864,2.4974,2.5398,2.5237,2.6039,2.6266,2.6092,2.6306,2.6386,2.6453,2.7041,2.7268,2.7335,2.7923,2.8136,2.8203,0.0,0.0,0.0,0.0,0.0,0.0,0.0,0.0,0.0,0.0,0.0,0.0,2.4801,2.396,2.2946,2.2001,2.0856,1.982,1.9,1.8265,1.8224,1.8604,1.8527,1.8611,0.0,0.0,0.0,0.0,0.0,0.0,0.0,1.8023,0.0,0.0,0.0,0.0,0.0,0.0,0.0,0.0,2.09,0.0,0.0,2.1647,2.1313,0.0,0.0,0.0,2.139,2.1323,2.0655,0.0,0.0,0.0,0.0,0.0,0.0,0.0,0.0,0.0,0.0,0.0,0.0,0.0,1.7903,1.8584,1.9265,1.9305,1.9755,2.0374,2.104,1.8457,1.6272,1.6424,1.524,1.3815,1.2883,1.2827,1.2956,1.3186,1.3139,1.3207,1.3532,1.3437,1.3376,1.3437,1.3302,1.3152,1.2996,1.2908,1.2725,1.242,1.2501,1.2501,1.2413,1.5269,1.7265,1.8572,2.1452,2.3426,2.4649,2.5117,2.5237,2.5117,2.5879,2.6106,2.5972,2.6266,2.6386,2.6453,2.7041,2.7268,2.7335,2.7923,2.8136,2.819,0.0,0.0,0.0,0.0,0.0,0.0,0.0,0.0,0.0,0.0,2.5625,2.625,2.707,2.6079,2.5331,2.5158,2.2666,2.0922,2.0813,1.9541,1.9222,1.9994,2.0468,2.0779,2.1162,2.1396,2.1042,1.994,1.9755,1.936,1.9016,1.8537,1.8604,1.9145,0.0,0.0,0.0,0.0,0.0,2.0561,1.9813,2.0214,0.0,0.0,2.1603,2.2151,2.2712,2.2739,2.2432,2.1844,2.0735,0.0,0.0,0.0,0.0,0.0,1.8464,0.0,0.0,0.0,0.0,0.0,0.0,0.0,1.7769,1.8103,1.845,1.8156,1.7957,1.7937,1.8506,1.6298,1.4428,1.4492,1.2911,1.1918,1.2386,1.2569,1.2718,1.2888,1.2895,1.2956,1.3132,1.3017,1.2996,1.3139,1.2996,1.2834,1.2664,1.2807,1.2683,1.2271,1.2416,1.256,1.256,1.6441,1.8479,1.8984,2.2794,2.4636,2.4649,2.4983,2.5104,2.5117,2.5705,2.5959,2.5972,2.6239,2.636,2.6453,2.7041,2.7268,2.7335,2.7923,2.8136,2.8177,0.0,0.0,0.0,0.0,0.0,0.0,0.0,0.0,0.0,0.0,2.6582,2.748,2.7988,2.7815,2.7289,2.639,2.4454,2.272,2.1504,2.1181,2.06,1.9549,2.1601,2.2257,2.1263,2.2144,2.2452,2.2217,2.2258,2.2112,2.2001,2.0755,2.0391,2.0662,0.0,0.0,0.0,0.0,0.0,2.0321,2.0401,0.0,2.2164,2.2164,2.2378,2.2739,2.31,2.3207,2.306,2.2458,2.175,2.0935,0.0,0.0,0.0,1.849,0.0,0.0,0.0,0.0,0.0,0.0,1.8704,0.0,1.8036,1.841,1.8758,1.8464,1.8915,1.8992,1.8046,1.637,1.4909,1.3692,1.2248,1.1491,1.2067,1.2176,1.2291,1.2562,1.2494,1.2576,1.2963,1.2868,1.284,1.299,1.2745,1.2474,1.2203,1.3672,1.3791,1.2258,1.3572,1.4456,1.4456,1.6953,1.9149,2.0694,2.3311,2.4636,2.4649,2.5184,2.5304,2.5117,2.5705,2.5959,2.5959,2.6012,2.6186,2.6453,2.7041,2.7268,2.7335,2.7923,2.8136,2.815,0.0,0.0,0.0,0.0,0.0,0.0,0.0,0.0,0.0,2.6621,2.7637,2.8379,2.8574,2.8613,2.8269,2.7597,2.5952,2.4599,2.3917,2.3151,2.2623,2.2354,2.3888,2.459,2.4101,2.4845,2.495,2.419,2.4,2.3888,2.3651,2.1945,2.1536,2.2119,0.0,0.0,0.0,0.0,2.0401,2.0681,2.0828,0.0,2.2031,2.2472,2.2832,2.3153,2.3607,2.3768,2.3647,2.2899,2.2445,0.0,2.0481,1.992,1.9706,0.0,1.9038,1.8958,0.0,0.0,0.0,1.9292,1.9145,0.0,0.0,1.8718,1.8838,1.8557,1.8246,1.7877,1.7184,1.5251,1.3496,1.2738,1.1554,1.0792,1.1321,1.1653,1.1925,1.2142,1.2101,1.2182,1.2481,1.244,1.2427,1.2508,1.2372,1.2216,1.2067,1.3816,1.4506,1.3412,1.427,1.5284,1.6149,1.7517,1.9158,2.1226,2.3446,2.4636,2.4649,2.509,2.513,2.4903,2.5638,2.5879,2.5758,2.6052,2.6266,2.6426,2.6867,2.7041,2.7121,2.7709,2.7923,2.7936,0.0,0.0,0.0,0.0,0.0,0.0,0.0,0.0,0.0,0.0,0.0,2.9101,2.9277,0.0,0.0,0.0,2.7306,2.6318,2.6698,0.0,0.0,2.4915,2.5937,2.6598,2.6718,2.7454,2.7266,2.6114,2.5816,2.5559,2.5378,2.3117,2.2511,0.0,0.0,0.0,0.0,0.0,0.0,2.0962,0.0,2.1456,2.1804,2.2565,2.3086,2.3487,2.4075,2.4249,2.4088,2.33,2.3006,2.2686,2.1136,2.0869,0.0,0.0,0.0,0.0,0.0,0.0,0.0,0.0,0.0,1.9492,0.0,0.0,0.0,1.8557,1.7525,0.0,0.0,0.0,0.0,1.2207,1.1374,1.082,1.0798,1.1305,1.165,1.1748,1.1687,1.1735,1.2033,1.2013,1.1979,1.1979,1.1952,1.1932,1.1932,1.4139,1.4958,1.4099,1.5237,1.6234,1.7368,1.8166,1.9569,2.174,2.3663,2.4583,2.4649,2.4943,2.4957,2.477,2.5531,2.5772,2.5638,2.6106,2.6333,2.6413,2.6707,2.6827,2.6894,2.7415,2.7655,2.7736,2.4414,2.4766,0.0,0.0,0.0,0.0,0.0,0.0,0.0,0.0,0.0,0.0,0.0,0.0,0.0,0.0,0.0,0.0,2.881,0.0,0.0,0.0,2.6406,2.7283,2.5609,2.7332,2.8291,2.8532,2.8125,2.8269,2.8895,2.5276,2.3909,0.0,2.1017,0.0,0.0,0.0,2.0508,0.0,2.147,2.2058,0.0,2.2726,2.322,2.3794,2.4382,2.4422,2.4155,0.0,2.3487,2.314,0.0,2.1683,2.1149,2.1309,0.0,0.0,0.0,0.0,0.0,0.0,2.016,2.0241,1.9172,0.0,1.9158,1.8611,0.0,1.7425,0.0,0.0,0.0,1.3118,1.325,1.2894,1.1403,1.1598,1.1783,1.164,1.1172,1.1165,1.1986,1.1823,1.1667,1.1667,1.1545,1.147,1.147,1.4973,1.5337,1.2072,1.6866,1.8692,1.7288,1.9215,2.1339,2.3535,2.397,2.4382,2.4649,2.4943,2.5064,2.505,2.5411,2.5692,2.5919,2.5972,2.6159,2.6413,2.6707,2.6827,2.6867,2.7188,2.7482,2.7709,2.4375,2.498,0.0,0.0,0.0,0.0,0.0,0.0,0.0,0.0,0.0,0.0,0.0,0.0,0.0,0.0,0.0,2.9486,0.0,0.0,0.0,0.0,0.0,0.0,2.6154,2.6754,2.6682,2.5949,2.5789,2.6109,2.6875,2.4252,2.3594,0.0,2.1289,0.0,2.123,0.0,2.0802,0.0,0.0,0.0,0.0,2.2498,2.3086,2.3848,2.4422,2.4556,2.4409,2.4115,2.4048,2.3955,2.318,0.0,0.0,2.1724,0.0,0.0,0.0,0.0,0.0,2.0414,2.0494,2.0508,1.984,1.9519,1.9292,1.9052,0.0,0.0,0.0,0.0,0.0,0.0,1.4134,1.3542,1.2785,1.2766,1.2233,1.0732,1.1111,1.1683,1.2172,1.1447,1.0839,1.0839,1.0941,1.1002,1.1002,1.488,1.636,1.4833,1.8165,2.0201,2.0467,2.045,2.15,2.3514,2.3981,2.4262,2.4396,2.4863,2.5077,2.5104,2.5571,2.5838,2.5972,2.6132,2.6279,2.64,2.652,2.6573,2.6627,2.7094,2.7348,2.7495,2.4355,0.0,0.0,0.0,0.0,0.0,0.0,0.0,0.0,0.0,0.0,0.0,2.6951,2.8858,0.0,0.0,3.1879,3.2363,0.0,0.0,3.0254,0.0,0.0,0.0,0.0,2.6591,2.5821,2.4794,2.4244,2.43,2.4895,2.3191,2.2879,2.3753,0.0,2.0465,2.1327,0.0,0.0,2.1349,2.1804,2.1991,2.2031,2.2405,2.3046,2.3834,2.4342,2.4516,2.4502,2.4369,2.4462,2.4543,2.3981,2.3701,2.3407,0.0,0.0,0.0,2.1096,2.1269,2.1443,2.0828,2.0735,2.0668,2.0214,1.9973,1.98,1.9639,1.9666,0.0,0.0,0.0,1.7212,1.6673,0.0,1.4811,1.4288,1.3999,1.3292,1.1246,1.2084,1.2542,1.2349,1.1393,1.0656,1.0154,1.0728,1.1128,1.1178,1.5138,1.7308,1.6823,1.9462,2.1321,2.216,2.1508,2.1938,2.334,2.3848,2.4128,2.4222,2.473,2.4997,2.5104,2.5611,2.5879,2.5972,2.6266,2.6386,2.6386,2.6386,2.6386,2.644,2.6867,2.7081,2.7201,2.4414,2.4434,0.0,0.0,0.0,0.0,0.0,0.0,0.0,0.0,0.0,0.0,0.0,0.0,0.0,0.0,0.0,3.4961,3.5801,0.0,3.0898,0.0,0.0,2.9766,0.0,2.7438,2.6821,2.72,2.5218,2.4548,2.5011,2.2929,2.2423,2.3006,2.0572,1.9867,2.0765,2.0668,2.0681,2.0775,2.1643,2.1991,2.2044,0.0,2.3233,2.3808,2.4115,2.4222,2.4262,2.4529,2.4623,2.4676,2.4943,2.4636,2.4222,2.4462,2.3928,2.318,2.2859,2.2792,2.2472,2.1029,2.0895,2.0869,2.0013,2.0454,2.0895,2.0321,2.0428,2.0454,1.988,1.9546,1.9158,1.8459,1.8366,0.0,0.0,1.5235,1.4875,1.427,1.4356,1.3843,1.2139,1.1993,1.1398,0.9957,1.1156,1.2084,1.2266,1.6306,1.7973,1.6446,2.0612,2.2022,2.0201,2.1885,2.302,2.3327,2.3634,2.3928,2.4209,2.4516,2.481,2.5104,2.5398,2.5692,2.5972,2.6266,2.6386,2.6386,2.6386,2.6386,2.6386,2.6413,2.66,2.6841,0.0,0.0,0.0,0.0,0.0,0.0,0.0,2.6811,0.0,0.0,0.0,0.0,0.0,3.1466,3.3259,0.0,0.0,3.7559,3.7305,3.5527,0.0,0.0,0.0,3.0738,0.0,2.6988,2.5378,2.4226,2.2468,2.1752,2.219,2.1483,2.1422,2.1659,0.0,2.0214,0.0,0.0,0.0,0.0,0.0,2.2632,2.314,2.2939,2.3113,2.3541,2.4022,2.4329,2.4529,2.4836,2.493,2.4983,2.5277,2.5104,2.477,2.4663,2.4289,2.3848,2.3541,2.3741,2.3728,2.2445,2.2044,2.1697,2.0628,2.0762,2.0935,2.0347,2.0935,2.1309,2.0521,2.0307,1.9973,1.9199,1.9078,1.8333,0.0,1.5458,1.5601,1.6453,1.4765,0.0,1.4155,1.3246,1.2284,1.1842,1.2292,1.2738,1.3199,1.6219,1.8024,1.8072,2.1028,2.2387,2.2009,2.2585,2.2913,2.3033,2.3527,2.3821,2.3928,2.4422,2.4796,2.509,2.5184,2.5504,2.5959,2.6066,2.6213,2.6386,2.6386,2.6386,2.6413,2.66,2.6734,2.6881,2.5332,0.0,0.0,0.0,0.0,0.0,0.0,0.0,0.0,0.0,2.785,0.0,3.0106,0.0,3.3851,0.0,3.7319,3.8538,3.7416,3.6569,0.0,3.4334,3.3946,0.0,0.0,2.8008,2.5554,2.3998,2.161,2.0535,2.0521,2.0628,2.0775,2.0935,0.0,2.0388,2.0388,0.0,2.0989,0.0,0.0,2.2859,0.0,2.2966,2.3193,2.3661,2.3834,2.4142,2.4529,2.4823,2.5064,2.5291,2.5571,2.5545,2.5371,2.5291,2.505,2.477,2.4476,2.4663,2.469,2.3607,2.3113,2.2645,2.167,2.1683,2.1724,2.1136,2.1617,2.1964,2.1403,2.0962,2.0494,1.992,1.9573,1.881,0.0,1.6427,1.6612,1.749,1.5798,0.0,0.0,1.4367,1.3372,1.2615,1.3182,1.3804,1.4219,1.6646,1.8435,1.937,2.1215,2.2298,2.2699,2.2699,2.2752,2.2873,2.3367,2.3661,2.3781,2.4262,2.4703,2.5077,2.5077,2.5411,2.5959,2.5959,2.6132,2.6386,2.6386,2.6386,2.6426,2.6707,2.6894,2.7041,0.0,0.0,0.0,0.0,2.5834,0.0,0.0,0.0,2.8212,0.0,2.9133,3.0907,3.1625,3.4048,3.5742,3.5958,3.7988,3.8507,3.6471,3.648,0.0,0.0,3.552,3.6054,3.4599,3.0283,2.7477,2.6255,2.2774,2.0869,2.0321,2.0575,2.0695,2.0695,2.0695,0.0,1.9853,2.0722,2.0935,2.0815,2.2245,2.2672,2.2485,2.2766,2.342,2.4128,2.3554,2.3728,2.4262,2.4543,2.5024,2.5558,2.5838,2.5959,2.6052,2.6333,2.6226,2.5959,2.5665,2.5571,2.5371,2.4489,2.4048,2.3674,2.306,2.318,2.3247,2.2632,2.2512,2.2512,2.2458,2.1496,2.0708,2.0655,1.992,1.9038,1.8156,1.7928,1.7822,1.7622,1.7582,0.0,0.0,0.0,1.4653,1.2535,1.4106,0.0,1.5267,1.7592,1.9305,2.0187,2.1069,2.1804,2.2392,2.2405,2.2565,2.2859,2.318,2.3487,2.3781,2.4075,2.4516,2.5064,2.5077,2.5411,2.5932,2.5945,2.6132,2.6386,2.6386,2.6413,2.6466,2.672,2.7014,2.7268,2.6699,2.7207,2.7676,0.0,2.6393,2.5103,0.0,0.0,0.0,0.0,3.278,3.4979,3.8061,3.8838,3.9387,4.0096,4.1509,0.0,0.0,0.0,0.0,3.4183,3.5379,3.4805,3.2125,3.0724,2.8809,2.6132,2.321,2.1683,2.1523,2.1162,2.1002,2.1002,0.0,0.0,1.984,2.0508,2.0869,2.1069,2.1884,2.2565,2.3073,2.2926,2.342,2.4155,2.3781,2.4035,2.4529,2.4609,2.5024,2.5531,2.5598,2.6079,2.6613,2.6694,2.6814,2.6867,2.656,2.6493,2.6279,2.5398,2.4957,2.4583,2.3995,2.4262,2.4462,2.3875,2.3915,2.3794,2.2913,2.1964,2.1109,2.0454,1.8631,1.7578,1.8313,1.727,1.6705,1.7503,1.7582,1.7437,0.0,0.0,1.6113,1.5582,1.5818,1.6173,1.6703,1.7846,1.8998,1.988,2.0762,2.151,2.2084,2.2311,2.2565,2.2859,2.318,2.3487,2.3781,2.4075,2.4409,2.4756,2.4983,2.5291,2.5638,2.5865,2.6132,2.6386,2.6386,2.6653,2.7028,2.6881,2.7014,2.7295,2.7324,0.0,0.0,2.8535,0.0,0.0,2.7624,0.0,0.0,3.374,3.5262,0.0,3.9282,3.9988,4.0439,4.1079,4.1732,0.0,3.8565,0.0,0.0,3.351,3.4859,3.4598,3.2439,3.0627,0.0,2.6364,2.3347,2.1924,2.179,2.1323,2.1109,2.1109,0.0,2.0695,2.0027,2.0481,2.0922,2.1349,2.1937,2.2472,0.0,2.2873,2.334,2.3995,2.3834,2.4062,2.4462,2.4596,2.5024,2.5531,2.5665,2.6132,2.6653,2.6787,2.6854,2.6907,2.6987,2.7014,2.6894,2.64,2.6159,2.5852,2.513,2.513,2.5144,2.4676,2.4516,2.4275,2.3741,2.2699,2.1563,2.0414,1.897,1.8199,1.8619,1.7953,0.0,1.7915,1.809,1.8116,1.7996,1.7435,1.6981,1.6727,1.6673,1.6794,1.7128,1.7756,1.8624,1.976,2.0535,2.1269,2.1977,2.2271,2.2445,2.2485,2.2779,2.3086,2.3394,2.3821,2.4168,2.4462,2.4756,2.513,2.5531,2.5692,2.6012,2.6386,2.6386,2.6667,2.7068,2.7028,2.7281,2.7655,0.0,0.0,0.0,0.0,0.0,0.0,0.0,3.2313,0.0,3.5669,0.0,3.8559,3.8613,3.9795,4.0837,4.1001,0.0,3.9653,3.6879,3.6688,3.5521,3.2729,3.4371,3.4548,3.3225,3.0314,2.8103,2.6408,2.3527,2.1951,2.1657,2.1283,2.1109,2.1109,0.0,0.0,0.0,2.0494,2.0909,2.1443,2.2098,2.2392,2.2458,2.2832,2.3313,2.3781,2.3861,2.4048,2.4302,2.4596,2.5064,2.5558,2.5865,2.6186,2.6493,2.6747,2.6667,2.6613,2.7081,2.7241,2.7241,2.7175,2.7201,2.7054,2.6253,2.5865,2.5611,2.5358,2.481,2.4436,2.4649,2.3447,2.1964,2.0575,2.0067,1.9679,1.9172,0.0,0.0,0.0,1.8798,0.0,1.8624,1.8023,1.7422,1.6914,1.7088,1.7208,1.7208,1.7488,1.8277,1.9639,2.0294,2.1042,2.1924,2.2218,2.2258,2.2044,2.2298,2.2579,2.2886,2.35,2.3928,2.4222,2.4556,2.501,2.5518,2.5558,2.5892,2.6386,2.6426,2.6627,2.6921,2.7215,2.7669,2.811,0.0,0.0,0.0,0.0,0.0,3.4158,3.5915,3.6675,3.7173,3.7924,4.065,4.2721,4.3106,4.3234,4.362,4.4701,4.3813,0.0,0.0,0.0,0.0,3.3391,3.355,3.254,2.9824,3.0144,2.8959,2.6017,2.3789,2.2552,2.2245,2.147,2.1109,2.1109,0.0,0.0,1.9893,2.0187,2.0374,2.0561,2.163,2.2205,2.2512,2.3313,2.3674,2.3834,2.4315,2.4516,2.4609,2.4903,2.5224,2.5558,2.5865,2.6319,2.676,2.6814,2.6961,2.7081,2.6934,2.7081,2.7148,2.6667,2.6907,2.7161,2.676,2.6627,2.6573,2.6533,2.5865,2.5224,2.5037,2.3581,2.2098,2.1109,2.0508,2.012,2.0013,1.9426,0.0,0.0,1.9038,1.8998,1.9199,1.8437,1.7903,1.7822,1.7622,1.7502,1.7502,1.7796,1.8303,1.9052,1.988,2.0735,2.1617,2.1924,2.2151,2.2338,2.2392,2.2579,2.2886,2.35,2.3928,2.4235,2.477,2.5197,2.5531,2.5785,2.6079,2.6413,2.6653,2.6921,2.7228,2.7509,2.7843,2.8136,0.0,0.0,0.0,0.0,0.0,0.0,0.0,4.0144,4.0762,3.994,4.138,4.248,4.2695,4.332,4.4062,4.4941,4.4199,4.2945,4.1297,3.8512,3.5793,3.3556,3.2174,3.0928,2.9285,2.9091,2.7991,2.6186,2.4115,2.2873,2.2405,2.183,2.1403,2.1096,0.0,2.0735,0.0,2.0628,2.0869,2.1203,2.1924,2.2378,2.2712,2.3313,2.3634,2.3834,2.4262,2.4516,2.4703,2.5157,2.5398,2.5585,2.6039,2.6373,2.66,2.66,2.6694,2.6814,2.6814,2.6921,2.6961,2.668,2.6827,2.6961,2.6667,2.66,2.664,2.6787,2.636,2.5825,2.5384,2.4235,2.306,2.2164,2.1269,2.0641,2.0481,1.996,1.9653,1.98,0.0,1.9439,1.9573,1.9065,1.8651,1.8517,1.8223,1.7983,1.7836,1.7969,1.8384,1.9132,1.9853,2.0655,2.155,2.1991,2.2205,2.2191,2.2352,2.2579,2.2886,2.35,2.3928,2.4222,2.4663,2.5104,2.5545,2.5999,2.6266,2.6413,2.6707,2.7001,2.7308,2.7589,2.7883,2.8136,0.0,3.3066,0.0,0.0,3.7031,0.0,4.0312,4.2324,4.3223,4.1894,4.1719,4.1719,4.1719,4.2988,4.4004,4.4355,4.4062,4.3299,4.1726,3.9112,3.6658,3.494,3.2174,3.0465,3.0178,2.8473,2.7068,2.6293,2.4422,2.31,2.2325,2.2098,2.171,2.1189,2.0962,2.0922,2.1029,2.1149,2.147,2.1937,2.2338,2.2699,2.3006,2.3367,2.3661,2.3901,2.4195,2.4436,2.473,2.5317,2.5518,2.5611,2.6199,2.6386,2.6386,2.6386,2.6386,2.644,2.6667,2.6774,2.6814,2.6747,2.6774,2.6747,2.6453,2.6386,2.6453,2.668,2.66,2.6306,2.5718,2.5037,2.4262,2.33,2.2271,2.1456,2.1096,2.0735,2.0494,2.0428,2.0214,2.0,1.9813,1.9653,1.9399,1.9038,1.8691,1.8384,1.8156,1.8023,1.8357,1.9239,1.984,2.0601,2.1537,2.2071,2.2245,2.2084,2.2311,2.2579,2.2886,2.35,2.3928,2.4222,2.4583,2.5064,2.5651,2.6172,2.6426,2.6507,2.68,2.7094,2.7388,2.7682,2.7936,2.8136,0.0,0.0,0.0,0.0,0.0,4.0332,4.0508,4.2324,4.3652,4.3496,4.3476,4.3476,4.3476,4.3984,4.4355,4.4394,4.4355,4.4188,4.4039,4.1526,3.9903,3.9734,3.5446,3.288,3.2555,2.9703,2.7388,2.5999,2.4743,2.3407,2.2031,2.2004,2.1817,2.151,2.1483,2.1189,2.0748,2.1283,2.1537,2.167,2.2485,2.3006,2.334,2.3915,2.4142,2.4195,2.4489,2.4609,2.473,2.5317,2.5518,2.5611,2.6199,2.6386,2.6386,2.6386,2.6386,2.64,2.6426,2.6613,2.676,2.6493,2.6627,2.6747,2.6453,2.6386,2.64,2.6426,2.6613,2.66,2.6026,2.5852,2.5411,2.4262,2.3541,2.2913,2.2338,2.1777,2.1323,2.1056,2.1002,2.0668,1.988,2.0013,1.992,1.9372,1.8811,1.8477,1.845,1.7929,1.8036,1.8931,1.9533,2.0388,2.1537,2.1871,2.2151,2.2378,2.2405,2.2579,2.2886,2.35,2.3928,2.4235,2.4796,2.5371,2.5945,2.6266,2.6547,2.6814,2.7108,2.7402,2.7696,2.7989,2.8123,2.8136,0.0,0.0,0.0,0.0,0.0,0.0,0.0,4.3164,4.3711,4.3711,4.3711,4.3711,4.3711,4.3867,4.4082,4.4375,4.4141,4.4101,4.4375,4.1882,4.0259,4.0259,3.7175,3.4704,3.3186,3.1364,2.9395,2.7001,2.5651,2.4329,2.3046,2.2498,2.1991,2.155,2.1363,2.1349,2.1483,2.171,2.2017,2.2392,2.2926,2.3327,2.3634,2.4048,2.4209,2.4249,2.4529,2.4756,2.497,2.5371,2.5518,2.5611,2.6199,2.6386,2.6386,2.6386,2.6386,2.6386,2.6386,2.6466,2.6533,2.6413,2.648,2.6533,2.6413,2.6386,2.644,2.6613,2.6881,2.6907,2.6319,2.6213,2.5945,2.513,2.4356,2.3647,2.3046,2.2151,2.1443,2.1149,2.0494,1.992,1.9573,1.9479,1.9345,1.9118,1.9052,1.8945,1.8758,1.8357,1.837,1.8905,1.9319,2.0107,2.1269,2.175,2.2218,2.2686,2.2873,2.3113,2.342,2.3834,2.4289,2.4756,2.5157,2.5571,2.5972,2.6266,2.656,2.6854,2.7148,2.7442,2.7736,2.803,2.8136,2.8163,4.0137,0.0,4.0176,0.0,4.166,4.1973,4.3476,4.3711,4.3711,4.3711,4.3711,4.3711,4.3711,4.3828,4.3984,4.418,4.4023,4.3984,4.418,4.2329,4.1286,4.1286,3.9055,3.7003,3.5446,3.3429,3.1095,2.8662,2.6797,2.5211,2.3875,2.3073,2.2472,2.2071,2.1857,2.1991,2.2378,2.2378,2.2672,2.3153,2.346,2.3714,2.3928,2.4222,2.4382,2.4489,2.469,2.4957,2.5251,2.5545,2.5638,2.5732,2.6226,2.6386,2.6386,2.6386,2.6386,2.6386,2.6386,2.6386,2.6386,2.6386,2.6386,2.6386,2.6386,2.6386,2.6453,2.6653,2.7001,2.7108,2.6613,2.6587,2.6426,2.5758,2.5117,2.4422,2.3581,2.2659,2.1871,2.1309,2.0441,1.9746,1.9399,1.9252,1.9145,1.9065,1.9252,1.9239,1.8945,1.8651,1.8664,1.9038,1.9345,2.0013,2.1096,2.1697,2.2285,2.2859,2.318,2.3527,2.3915,2.4289,2.473,2.5224,2.5518,2.5812,2.6106,2.6306,2.6613,2.6974,2.7188,2.7495,2.7856,2.807,2.8136,2.819,4.2148,4.2383,4.2656,4.3516,4.3672,4.3672,4.3691,4.3711,4.3711,4.3711,4.3711,4.3711,4.3711,4.4121,4.4199,4.375,4.4121,4.4199,4.375,4.3711,4.3711,4.3711,4.1453,4.0259,4.0259,3.5424,3.2399,3.1239,2.82,2.5919,2.4182,2.3594,2.3313,2.33,2.33,2.33,2.3313,2.3313,2.3487,2.3781,2.4075,2.4195,2.4222,2.4516,2.481,2.5064,2.5077,2.5264,2.5558,2.5852,2.5959,2.5999,2.6293,2.6386,2.6386,2.6386,2.6386,2.6386,2.6386,2.6386,2.6386,2.6386,2.6386,2.6386,2.6386,2.6386,2.6386,2.6386,2.6854,2.7175,2.6867,2.7054,2.6961,2.6092,2.5945,2.5424,2.3968,2.35,2.2873,2.1683,2.1269,2.0628,1.9479,1.9626,1.9666,1.9386,1.9359,1.9239,1.8945,1.8651,1.8758,1.9345,1.9639,2.0214,2.1096,2.1697,2.2285,2.2859,2.318,2.3634,2.4222,2.481,2.5237,2.5518,2.5825,2.6119,2.6386,2.6386,2.6734,2.7268,2.7268,2.7629,2.8136,2.8136,2.8136,2.819,4.3223,4.3301,4.3379,4.3652,4.3711,4.3711,4.3711,4.3711,4.3711,4.3711,4.3711,4.3828,4.4141,4.4023,4.3984,4.416,4.4023,4.4004,4.416,4.3887,4.3711,4.3711,4.301,4.1974,4.0259,3.6978,3.4265,3.2098,2.8938,2.652,2.4796,2.4396,2.4115,2.3928,2.3928,2.4035,2.4222,2.4222,2.4396,2.4676,2.477,2.4796,2.481,2.4903,2.4997,2.5077,2.5077,2.5398,2.5825,2.5919,2.6092,2.6266,2.636,2.6386,2.6386,2.6386,2.6386,2.6386,2.6386,2.6386,2.6386,2.6386,2.6386,2.6386,2.6386,2.6386,2.6386,2.6386,2.6533,2.664,2.6547,2.676,2.68,2.6333,2.6092,2.5518,2.4249,2.3287,2.2271,2.1096,2.0521,2.0,1.9426,1.9813,1.9973,1.9679,1.984,1.9826,1.9533,1.9239,1.9265,1.9653,1.9947,2.0521,2.1403,2.179,2.2392,2.318,2.3487,2.4035,2.481,2.4997,2.5344,2.5825,2.5919,2.6239,2.668,2.668,2.7028,2.7562,2.7562,2.7802,2.8136,2.8136,2.8136,2.8217,4.3711,4.3711,4.3711,4.3711,4.3711,4.3711,4.3711,4.3848,4.3965,4.3965,4.4101,4.4316,4.4609,4.4375,4.4258,4.4394,4.3965,4.3828,4.4121,4.3867,4.3711,4.3711,4.3711,4.301,4.1621,3.832,3.5638,3.394,2.9944,2.7188,2.5892,2.5598,2.5237,2.4863,2.4863,2.4903,2.497,2.497,2.5077,2.5237,2.5237,2.5237,2.5237,2.5237,2.5317,2.5411,2.5411,2.5718,2.6119,2.6119,2.6239,2.6386,2.6386,2.6386,2.6386,2.6386,2.6386,2.6386,2.6386,2.6386,2.6386,2.6386,2.6386,2.6386,2.6386,2.6466,2.652,2.6413,2.648,2.652,2.6413,2.6627,2.6734,2.644,2.6052,2.5451,2.4502,2.3153,2.1951,2.1109,2.0481,2.0054,1.988,2.0388,2.0655,2.0468,2.0722,2.0762,2.0481,1.9973,1.9933,2.0441,2.0735,2.1269,2.2031,2.2338,2.2832,2.35,2.4022,2.4543,2.509,2.5304,2.5611,2.5959,2.6079,2.6386,2.6827,2.6827,2.7175,2.7696,2.7696,2.7883,2.8136,2.8136,2.8136,2.823,4.3711,4.3711,4.3711,4.3711,4.373,4.373,4.3711,4.4101,4.4394,4.4394,4.4746,4.5,4.5058,4.5019,4.4844,4.4473,4.4023,4.3769,4.3789,4.373,4.3711,4.3711,4.3711,4.3691,4.3526,3.9055,3.6477,3.5962,3.0778,2.7909,2.7348,2.7028,2.66,2.6079,2.6052,2.5879,2.5598,2.5598,2.5598,2.5571,2.5571,2.5558,2.5545,2.5545,2.5718,2.5959,2.5959,2.6146,2.6386,2.6386,2.6386,2.6386,2.6386,2.6386,2.6386,2.6386,2.64,2.6413,2.64,2.6413,2.644,2.64,2.6386,2.6386,2.6413,2.6627,2.6747,2.6507,2.6653,2.6734,2.6466,2.6627,2.6694,2.6413,2.5865,2.5277,2.4663,2.31,2.1897,2.159,2.1082,2.0762,2.0762,2.1296,2.1657,2.167,2.1884,2.1924,2.1683,2.0869,2.0775,2.1563,2.1884,2.2311,2.2886,2.318,2.35,2.3848,2.4703,2.5117,2.5157,2.5705,2.5972,2.5999,2.6293,2.6587,2.6854,2.6867,2.7215,2.7722,2.7722,2.7896,2.8136,2.8136,2.8136,2.823,4.3711,4.3711,4.3711,4.3711,4.4004,4.4121,4.375,4.4101,4.4394,4.4394,4.4492,4.4805,4.5449,4.4941,4.4629,4.4863,4.4492,4.4375,4.4687,4.4082,4.3711,4.3711,4.3711,4.2844,4.1118,3.8203,3.4941,3.1189,2.9553,2.8644,2.8283,2.7736,2.7415,2.7281,2.7054,2.6787,2.6507,2.6507,2.6386,2.6186,2.6186,2.6052,2.5852,2.5852,2.5892,2.5959,2.5959,2.6146,2.6386,2.6386,2.6386,2.6386,2.6386,2.6386,2.6386,2.6386,2.6547,2.6667,2.6453,2.672,2.6947,2.6507,2.6386,2.6453,2.6667,2.6774,2.6867,2.7028,2.6934,2.68,2.6734,2.66,2.64,2.6106,2.5571,2.4903,2.4088,2.302,2.2124,2.1617,2.163,2.167,2.167,2.2205,2.2645,2.2886,2.2539,2.2485,2.2886,2.2485,2.2124,2.1897,2.2378,2.2832,2.3207,2.3287,2.3701,2.4436,2.5104,2.5531,2.5758,2.5892,2.6079,2.6306,2.66,2.6881,2.7175,2.7402,2.7709,2.8043,2.8043,2.8083,2.8136,2.8136,2.8136,2.819,4.3711,4.3711,4.3711,4.3711,4.3906,4.4062,4.4023,4.4238,4.4473,4.4668,4.4863,4.5156,4.5625,4.5273,4.5078,4.5312,4.4551,4.418,4.4414,4.3965,4.3711,4.3711,4.2659,4.1621,4.0259,3.7003,3.3466,2.9686,2.9513,2.9299,2.8991,2.8524,2.8163,2.7883,2.7602,2.7228,2.6827,2.6827,2.6653,2.6386,2.6386,2.6293,2.6159,2.6159,2.6159,2.6159,2.6159,2.6253,2.6386,2.6386,2.6386,2.6386,2.6386,2.6386,2.6386,2.6386,2.66,2.6787,2.6627,2.6921,2.7161,2.6707,2.6493,2.6466,2.676,2.6827,2.6907,2.7201,2.7134,2.6987,2.6854,2.6587,2.6253,2.5825,2.5144,2.4462,2.3861,2.2873,2.2205,2.2151,2.2285,2.2498,2.2779,2.346,2.3834,2.3741,2.3674,2.3607,2.3527,2.3754,2.3541,2.2819,2.3367,2.3821,2.4128,2.4262,2.4569,2.5037,2.5504,2.5798,2.5959,2.6092,2.6319,2.66,2.6747,2.7068,2.7468,2.7629,2.7869,2.8136,2.8136,2.8136,2.8136,2.8136,2.8136,2.819,4.3711,4.3711,4.3711,4.3711,4.3769,4.3926,4.4238,4.4414,4.4629,4.498,4.541,4.5703,4.5762,4.5664,4.5566,4.5566,4.4433,4.373,4.3808,4.375,4.3711,4.3711,4.1807,4.0427,3.9734,3.5273,3.1834,2.9913,2.9873,2.9726,2.9472,2.9179,2.8751,2.8203,2.7949,2.7509,2.6947,2.6947,2.6787,2.652,2.652,2.6493,2.6453,2.6453,2.6426,2.6386,2.6386,2.6386,2.64,2.644,2.6453,2.6466,2.6507,2.652,2.652,2.6466,2.6694,2.6934,2.6841,2.7041,2.7201,2.6947,2.6707,2.6587,2.6827,2.6921,2.7041,2.7335,2.7362,2.7241,2.6947,2.6613,2.6199,2.5611,2.4743,2.4048,2.3808,2.2819,2.2338,2.2926,2.3113,2.3394,2.3915,2.469,2.4957,2.4502,2.485,2.4796,2.4142,2.477,2.481,2.4062,2.4516,2.489,2.5144,2.5438,2.5585,2.5585,2.5879,2.6039,2.6092,2.6346,2.6613,2.6894,2.6934,2.7241,2.7696,2.7749,2.7909,2.8136,2.8136,2.8136,2.8136,2.8136,2.8136,2.8177,4.3711,4.3711,4.3711,4.3711,4.4023,4.418,4.3867,4.4453,4.4961,4.5019,4.541,4.582,4.6172,4.5566,4.5117,4.5117,4.4258,4.3867,4.4258,4.3926,4.3711,4.3711,4.3361,4.1286,3.7347,3.2867,3.0258,2.9913,2.9673,2.9526,2.9472,2.9179,2.8858,2.8537,2.8484,2.8136,2.7562,2.7562,2.7388,2.7134,2.7134,2.6974,2.6747,2.6747,2.66,2.6386,2.6386,2.6386,2.6426,2.6667,2.6747,2.68,2.7054,2.7134,2.7081,2.6827,2.7134,2.7455,2.6961,2.7041,2.7255,2.7201,2.7161,2.7148,2.7188,2.7388,2.7642,2.7949,2.7802,2.7549,2.7255,2.676,2.6199,2.5611,2.4569,2.3821,2.3781,2.3166,2.2953,2.3554,2.4289,2.477,2.4863,2.5224,2.5518,2.5678,2.5304,2.5237,2.5598,2.5504,2.5384,2.5251,2.5331,2.5398,2.5451,2.5745,2.5892,2.5892,2.6186,2.6453,2.6694,2.6734,2.6921,2.7215,2.7455,2.7615,2.7722,2.7963,2.8096,2.8136,2.8136,2.8136,2.8136,2.8136,2.8136,2.815,4.3711,4.3711,4.3711,4.3711,4.3887,4.4043,4.4082,4.4433,4.4766,4.5,4.541,4.5664,4.5625,4.5254,4.4941,4.4707,4.4082,4.3789,4.4004,4.3828,4.3711,4.3711,4.2493,3.9734,3.5114,3.1657,2.9913,2.9913,2.978,2.9713,2.9713,2.9245,2.8965,2.8831,2.8497,2.811,2.7696,2.7696,2.7535,2.7268,2.7268,2.7188,2.7068,2.7068,2.6881,2.6627,2.6627,2.6627,2.664,2.6774,2.6934,2.7081,2.7228,2.7161,2.7001,2.6867,2.7121,2.7468,2.7522,2.7522,2.7495,2.7495,2.7375,2.7308,2.7468,2.7602,2.7789,2.8083,2.803,2.7802,2.7348,2.6787,2.6199,2.5611,2.4529,2.3768,2.3768,2.3527,2.3581,2.4168,2.4877,2.5504,2.5972,2.6132,2.6213,2.6186,2.5945,2.5838,2.5945,2.5825,2.5825,2.5985,2.5838,2.5825,2.5985,2.6119,2.6186,2.6199,2.648,2.6694,2.6827,2.6987,2.7228,2.7509,2.7642,2.7789,2.7949,2.8083,2.8136,2.8136,2.8136,2.8136,2.8136,2.8136,2.8136,2.8305,4.3711,4.3711,4.3711,4.3711,4.3711,4.3828,4.418,4.4336,4.4551,4.4961,4.5312,4.543,4.5195,4.5,4.4746,4.4433,4.3965,4.3711,4.3711,4.3711,4.3711,4.3711,4.095,3.7518,3.3556,3.1137,2.9913,2.9913,2.9913,2.9913,2.99,2.9379,2.9112,2.9018,2.8484,2.8083,2.7802,2.7802,2.7669,2.7468,2.7468,2.7428,2.7362,2.7362,2.7188,2.6921,2.6921,2.6921,2.6934,2.7001,2.7175,2.7375,2.7442,2.7308,2.7121,2.7041,2.7188,2.7482,2.8003,2.7976,2.7789,2.7722,2.7589,2.7509,2.7669,2.7749,2.7869,2.8096,2.8136,2.7989,2.7455,2.6881,2.6293,2.5705,2.469,2.3968,2.3968,2.3968,2.4209,2.4863,2.5464,2.6106,2.6854,2.6987,2.6907,2.6613,2.66,2.6493,2.6266,2.6266,2.636,2.6587,2.6306,2.6293,2.6587,2.66,2.656,2.6493,2.6787,2.6921,2.6934,2.7161,2.7455,2.7802,2.7722,2.7869,2.8136,2.8136,2.8136,2.8136,2.8136,2.8136,2.8136,2.8136,2.8136,2.8473,4.3711,4.3711,4.3711,4.3711,4.3711,4.3711,4.375,4.4121,4.4551,4.4961,4.5058,4.5215,4.5586,4.4922,4.4433,4.4394,4.3965,4.3711,4.3711,4.3711,4.3711,4.3711,3.9395,3.5967,3.338,3.1137,2.9913,2.9913,2.9913,2.9913,2.9913,2.9593,2.9299,2.9032,2.8711,2.8404,2.811,2.811,2.8096,2.8083,2.8083,2.7909,2.7669,2.7669,2.7482,2.7228,2.7228,2.7228,2.7281,2.7549,2.7642,2.7709,2.7989,2.8056,2.7989,2.7709,2.7655,2.7736,2.8056,2.8123,2.8043,2.7762,2.7896,2.8016,2.7762,2.7909,2.8123,2.8136,2.8136,2.8043,2.7722,2.7188,2.66,2.6012,2.517,2.4569,2.4569,2.4569,2.489,2.5758,2.6373,2.6854,2.7201,2.7482,2.7509,2.7228,2.7201,2.7188,2.7175,2.7161,2.7175,2.7201,2.6907,2.6907,2.7201,2.7201,2.7068,2.6787,2.7094,2.7228,2.7228,2.7255,2.7575,2.8096,2.7816,2.7869,2.8136,2.8136,2.8136,2.8136,2.8136,2.8136,2.8136,2.8136,2.8136,2.8473,4.3711,4.3711,4.3711,4.3711,4.3711,4.3711,4.3711,4.4101,4.4453,4.4609,4.4863,4.498,4.4883,4.459,4.4277,4.3984,4.3808,4.3711,4.3711,4.3711,4.3711,4.3711,3.9225,3.6313,3.5462,3.182,2.9913,2.9913,2.9913,2.9913,2.9913,2.9619,2.9419,2.9299,2.8818,2.8644,2.8671,2.8297,2.8257,2.8417,2.8217,2.807,2.7976,2.7976,2.7789,2.7535,2.7535,2.7535,2.7549,2.7669,2.7816,2.7989,2.811,2.8016,2.7843,2.7736,2.7696,2.7762,2.8056,2.8136,2.8123,2.8003,2.8056,2.811,2.8003,2.8056,2.8136,2.8136,2.8136,2.8056,2.7749,2.7375,2.7028,2.68,2.6026,2.5518,2.5705,2.5718,2.5852,2.6186,2.6734,2.7215,2.7509,2.7629,2.7655,2.7549,2.7535,2.7535,2.7535,2.7535,2.7535,2.7535,2.7428,2.7335,2.7268,2.7268,2.7215,2.7094,2.7388,2.7535,2.7535,2.7722,2.7936,2.8136,2.803,2.8043,2.8136,2.8136,2.8136,2.8136,2.8136,2.8136,2.8136,2.8136,2.8136,2.8473,4.3711,4.3711,4.3711,4.3711,4.3711,4.3711,4.3711,4.3984,4.4238,4.4375,4.4512,4.4551,4.4414,4.4258,4.4043,4.373,4.3711,4.3711,4.3711,4.3711,4.3361,4.2659,3.8885,3.6485,3.5809,3.182,2.9913,2.9913,2.9913,2.9913,2.9913,2.9619,2.9486,2.9459,2.8965,2.8858,2.9005,2.8604,2.8497,2.8591,2.8377,2.823,2.8136,2.8136,2.8016,2.7843,2.7843,2.7843,2.7843,2.7843,2.7976,2.8136,2.8136,2.8003,2.7843,2.7843,2.7843,2.7909,2.8203,2.8217,2.8136,2.8136,2.8217,2.827,2.8163,2.8217,2.8283,2.8283,2.8364,2.8337,2.8043,2.7736,2.7482,2.7295,2.676,2.64,2.6507,2.66,2.6694,2.6787,2.7148,2.7522,2.7816,2.7843,2.7843,2.7843,2.7843,2.7843,2.7843,2.7843,2.7843,2.7843,2.7843,2.7736,2.7549,2.7535,2.7495,2.7402,2.7696,2.7789,2.7709,2.7909,2.8056,2.8136,2.8043,2.8056,2.8136,2.8136,2.8136,2.8136,2.8136,2.8136,2.8136,2.8136,2.8203,2.8609,4.3711,4.3711,4.3711,4.3711,4.3711,4.3711,4.3711,4.3711,4.3867,4.4336,4.3984,4.3887,4.4336,4.3984,4.3711,4.3711,4.3711,4.3711,4.3711,4.3711,4.2659,4.0427,3.8032,3.5793,3.3556,3.1137,2.9913,2.9913,2.9913,2.9913,2.9913,2.9619,2.9486,2.9472,2.9179,2.9045,2.9045,2.9045,2.8871,2.8617,2.8604,2.8417,2.815,2.8136,2.8136,2.8136,2.8136,2.8136,2.8136,2.8136,2.8136,2.8136,2.8136,2.8136,2.8136,2.815,2.815,2.8217,2.8524,2.839,2.815,2.815,2.8377,2.8524,2.8217,2.839,2.8604,2.8604,2.8831,2.8951,2.8671,2.835,2.7963,2.7375,2.7268,2.7175,2.6867,2.7094,2.7375,2.7669,2.7696,2.7816,2.811,2.8136,2.8136,2.8136,2.8136,2.8136,2.8136,2.8136,2.8136,2.8136,2.8136,2.8136,2.8136,2.8136,2.7989,2.7709,2.8003,2.7989,2.7696,2.7696,2.7856,2.8123,2.7829,2.7869,2.8136,2.815,2.815,2.8136,2.815,2.815,2.8136,2.8136,2.8337,2.8933,4.3711,4.3711,4.3711,4.3711,4.3711,4.3711,4.3711,4.3711,4.375,4.3887,4.3789,4.375,4.3887,4.3789,4.3711,4.3711,4.3711,4.3711,4.3711,4.3711,4.2659,4.0427,3.8032,3.6485,3.5793,3.1997,2.9913,2.9913,2.9913,2.9913,2.9913,2.982,2.978,2.978,2.9486,2.9472,2.9633,2.9219,2.9112,2.9192,2.8778,2.8551,2.8444,2.823,2.8136,2.8136,2.8136,2.8136,2.8136,2.8136,2.8136,2.8136,2.8136,2.8136,2.819,2.8404,2.831,2.8257,2.8764,2.8845,2.8724,2.8524,2.8537,2.8577,2.8484,2.8698,2.8911,2.8911,2.8978,2.9018,2.8925,2.8671,2.8417,2.823,2.8016,2.7856,2.7762,2.7829,2.7909,2.8003,2.8003,2.8043,2.8136,2.8136,2.8136,2.8136,2.8136,2.8136,2.8136,2.8136,2.8136,2.8136,2.8136,2.8136,2.8136,2.8136,2.8096,2.8003,2.8096,2.8096,2.8003,2.8003,2.8056,2.8136,2.8043,2.8056,2.8163,2.8377,2.8337,2.8163,2.8377,2.8337,2.8136,2.8136,2.8337,2.8775,4.3711,4.3711,4.3711,4.3711,4.3711,4.3711,4.3711,4.3711,4.3711,4.3711,4.3711,4.3711,4.3711,4.3711,4.3711,4.3711,4.3711,4.3711,4.3711,4.3711,4.301,4.1639,3.8545,3.6313,3.5446,3.182,2.9913,2.9913,2.9913,2.9913,2.9913,2.9913,2.9913,2.9913,2.9726,2.9753,2.99,2.9539,2.9419,2.9459,2.9098,2.8885,2.8751,2.8444,2.8323,2.831,2.819,2.8136,2.8136,2.8136,2.8136,2.8136,2.8136,2.8136,2.8177,2.8364,2.8283,2.827,2.8871,2.8871,2.8724,2.8911,2.8951,2.8925,2.8804,2.9005,2.9219,2.9219,2.9312,2.9352,2.9232,2.9072,2.8911,2.8804,2.8524,2.8323,2.8323,2.8217,2.8136,2.8136,2.8136,2.8136,2.8136,2.8136,2.8136,2.8136,2.8136,2.8136,2.8136,2.8136,2.8136,2.8136,2.8136,2.8136,2.8136,2.8136,2.8136,2.8136,2.8136,2.8136,2.8136,2.8136,2.8136,2.8136,2.8136,2.8217,2.8337,2.8524,2.8564,2.8511,2.8711,2.8591,2.8337,2.8457,2.8617,2.8791,4.3711,4.3711,4.3711,4.3711,4.3711,4.3711,4.3711,4.3711,4.3711,4.3711,4.3711,4.3711,4.3711,4.3711,4.3711,4.3711,4.3711,4.3711,4.3711,4.3711,4.3526,4.3361,3.9395,3.5967,3.338,3.1137,2.9913,2.9913,2.9913,2.9913,2.9913,2.9913,2.9913,2.9913,2.9913,2.9913,2.9913,2.9913,2.9766,2.9526,2.9499,2.9325,2.9045,2.8751,2.8631,2.8577,2.8283,2.8163,2.815,2.8177,2.819,2.819,2.8217,2.8217,2.823,2.8257,2.823,2.831,2.8911,2.8657,2.843,2.9272,2.9499,2.9446,2.9152,2.9312,2.9526,2.9526,2.9726,2.9833,2.9566,2.9499,2.9392,2.9125,2.8818,2.8604,2.8604,2.8337,2.8136,2.8136,2.8136,2.8136,2.8136,2.8136,2.8136,2.8136,2.8136,2.8136,2.8136,2.8136,2.8136,2.8136,2.8136,2.8136,2.8136,2.8136,2.8136,2.8136,2.8136,2.8136,2.8136,2.8136,2.8136,2.8136,2.8177,2.8323,2.8577,2.8657,2.8804,2.9005,2.9058,2.8885,2.8644,2.8898,2.9018,2.9085,4.3711,4.3711,4.3711,4.3711,4.3711,4.3711,4.3711,4.3711,4.3711,4.3711,4.3711,4.3711,4.3711,4.3711,4.3711,4.3711,4.3711,4.3711,4.3711,4.3711,4.2844,4.1118,4.009,3.7673,3.3556,3.1137,2.9913,2.9913,2.9913,2.9913,2.9913,2.9913,2.9913,2.9913,2.9913,2.9913,2.9913,2.9913,2.9887,2.9806,2.9579,2.9446,2.9352,2.9058,2.8804,2.8604,2.8537,2.835,2.8177,2.843,2.8511,2.8551,2.8778,2.8845,2.8885,2.9125,2.8871,2.8631,2.9232,2.9125,2.8951,2.9379,2.9659,2.9753,2.9459,2.9606,2.982,2.982,2.9873,2.99,2.9833,2.9633,2.9459,2.9392,2.8951,2.8604,2.8604,2.8337,2.8136,2.8136,2.8136,2.8136,2.8136,2.8136,2.8136,2.8136,2.8136,2.8136,2.8136,2.8136,2.8136,2.8136,2.8136,2.8136,2.8136,2.8136,2.8136,2.8136,2.8136,2.8136,2.8136,2.8136,2.8136,2.8163,2.8404,2.8404,2.8297,2.9005,2.9058,2.8751,2.9205,2.9072,2.8617,2.8684,2.8845,2.9621,4.3711,4.3711,4.3711,4.3711,4.3711,4.3711,4.3711,4.3711,4.3711,4.3711,4.3711,4.3711,4.3711,4.3711,4.3711,4.3711,4.3711,4.3711,4.3711,4.3711,4.3176,4.1974,4.0932,3.9225,3.6814,3.4417,3.2174,2.9913,2.9913,2.9913,2.9913,2.9913,2.9913,2.9913,2.9913,2.9913,2.9913,2.9913,2.9913,2.99,2.9753,2.9686,2.9646,2.9205,2.8951,2.8778,2.8484,2.8283,2.8163,2.8337,2.8484,2.8631,2.8778,2.8925,2.9072,2.9219,2.9058,2.8885,2.9192,2.9152,2.9112,2.9406,2.9606,2.9713,2.9686,2.9806,2.9913,2.9913,2.9913,2.9913,2.9913,2.9793,2.9686,2.9686,2.9312,2.9018,2.9018,2.8764,2.8524,2.8377,2.8484,2.8564,2.8564,2.8564,2.8564,2.8564,2.8444,2.843,2.8564,2.8297,2.8217,2.8364,2.8217,2.8136,2.8136,2.8136,2.8217,2.8364,2.8217,2.8136,2.8136,2.8136,2.823,2.8377,2.8537,2.8591,2.8617,2.9232,2.9219,2.8858,2.9312,2.9125,2.8644,2.8925,2.9205,2.9839,4.3711,4.3711,4.3711,4.3711,4.3711,4.3711,4.3711,4.3711,4.3711,4.3711,4.3711,4.3711,4.3711,4.3711,4.3711,4.3711,4.3711,4.3711,4.3711,4.3711,4.3711,4.3711,4.1974,4.0764,4.0259,3.8374,3.5273,3.1137,3.0616,3.0437,3.0437,3.0093,2.9913,2.9913,2.9913,2.9913,2.9913,2.9913,2.9913,2.9913,2.9913,2.9913,2.986,2.9325,2.9085,2.8965,2.8417,2.819,2.815,2.8203,2.839,2.8631,2.8724,2.8925,2.9112,2.9112,2.9112,2.9112,2.9058,2.9072,2.9179,2.9419,2.9526,2.9619,2.986,2.9913,2.9913,2.9913,2.9913,2.9913,2.9913,2.9913,2.9913,2.9913,2.9673,2.9486,2.9486,2.9179,2.8898,2.8711,2.8898,2.9045,2.9045,2.9045,2.9045,2.9045,2.8818,2.8764,2.8951,2.8537,2.839,2.8604,2.835,2.8243,2.8297,2.8243,2.8377,2.8684,2.8417,2.8297,2.8297,2.8297,2.843,2.8684,2.8738,2.8858,2.9072,2.9419,2.9352,2.9072,2.9419,2.9165,2.8671,2.9716,3.007,3.0479,4.3711,4.3711,4.3711,4.3711,4.3711,4.3711,4.3711,4.3711,4.3711,4.3711,4.3711,4.3711,4.3711,4.3711,4.3711,4.3711,4.3711,4.3711,4.3711,4.3711,4.3711,4.3711,4.3361,4.2326,4.0427,3.9903,3.8545,3.5793,3.3907,3.2867,3.2867,3.0781,2.9913,2.9913,2.9913,2.9913,2.9913,2.9913,2.9913,2.9913,2.9913,2.9913,2.9887,2.9553,2.9259,2.8991,2.8671,2.8377,2.819,2.8457,2.8577,2.8698,2.9205,2.9392,2.9419,2.9419,2.9419,2.9366,2.9112,2.9232,2.9432,2.9472,2.9673,2.9873,2.9913,2.9913,2.9913,2.9913,2.9913,2.9913,2.9913,2.9913,2.9913,2.9913,2.9673,2.9486,2.9486,2.9018,2.8751,2.8951,2.9018,2.9045,2.9045,2.9045,2.9045,2.9045,2.9005,2.8885,2.8671,2.8831,2.8818,2.8617,2.8564,2.8671,2.8911,2.8671,2.8684,2.8978,2.8938,2.8911,2.8911,2.8911,2.8938,2.8991,2.9245,2.9245,2.9085,2.9633,2.9539,2.9098,2.9646,2.9352,2.8816,3.1167,3.217,3.2446,4.3711,4.3711,4.3711,4.3711,4.3711,4.3711,4.3711,4.3711,4.3711,4.3711,4.3711,4.3711,4.3711,4.3711,4.3711,4.3711,4.3711,4.3711,4.3711,4.3711,4.3711,4.3711,4.3711,4.3195,4.2159,4.2159,4.1639,4.0614,3.7003,3.5288,3.5288,3.2867,3.1834,3.1834,3.0437,2.9913,2.9913,2.9913,2.9913,2.9913,2.9913,2.982,2.9646,2.9352,2.9058,2.8764,2.8457,2.8377,2.8417,2.8564,2.8831,2.9138,2.9406,2.9593,2.9726,2.9726,2.9726,2.9659,2.9366,2.9499,2.9686,2.9526,2.97,2.9913,2.9913,2.9913,2.9913,2.9913,2.9913,2.9913,2.9913,2.9913,2.9913,2.9913,2.9806,2.9726,2.9726,2.9499,2.9379,2.9513,2.9379,2.9352,2.9513,2.9526,2.9526,2.9526,2.9379,2.9299,2.9339,2.9152,2.9058,2.9098,2.8938,2.8911,2.9045,2.8911,2.8991,2.9285,2.9285,2.9205,2.9045,2.9045,2.9125,2.9299,2.9432,2.9406,2.9325,2.974,2.9566,2.9085,2.9513,2.9432,2.9447,3.1771,3.2797,3.3339]},{"header":{"parameterUnit":"m.s-1","parameterCategory":1,"la1":30.6,"la2":28.766,"lo1":-90.7593,"lo2":-88.6598,"dx":0.0162,"dy":0.0183,"nx":116,"ny":114,"refTime":"2023-01-21T18:00:00:Z","depth":0,"parameterNumber":3,"parameterNumberName":"V-component_of_WINDS"},"data":[0.0,0.0,0.0,0.0,0.0,0.0,0.0,0.0,0.0,0.0,0.0,0.0,0.0,0.0,0.0,0.0,0.0,0.0,0.0,0.0,0.0,0.0,0.0,0.0,0.0,0.0,0.0,0.0,0.0,0.0,0.0,0.0,0.0,0.0,0.0,0.0,0.0,0.0,0.0,0.0,0.0,0.0,0.0,0.0,0.0,0.0,0.0,0.0,0.0,0.0,0.0,0.0,0.0,0.0,0.0,0.0,0.0,0.0,0.0,0.0,0.0,0.0,0.0,0.0,0.0,0.0,0.0,0.0,0.0,0.0,0.0,0.0,0.0,0.0,0.0,0.0,0.0,0.0,0.0,0.0,0.0,0.0,0.0,0.0,0.0,0.0,0.0,0.0,0.0,0.0,0.0,0.0,0.0,0.0,0.0,0.0,0.0,0.0,0.0,0.0,0.0,0.0,0.0,0.0,0.0,0.0,0.0,0.0,0.0,0.0,0.0,0.0,0.0,0.0,0.0,0.0,0.0,0.0,0.0,0.0,0.0,0.0,0.0,0.0,0.0,0.0,0.0,0.0,0.0,0.0,0.0,0.0,0.0,0.0,0.0,0.0,0.0,0.0,0.0,0.0,0.0,0.0,0.0,0.0,0.0,0.0,0.0,0.0,0.0,0.0,0.0,0.0,0.0,0.0,0.0,0.0,0.0,0.0,0.0,0.0,0.0,0.0,0.0,0.0,0.0,0.0,0.0,0.0,0.0,0.0,0.0,0.0,0.0,0.0,0.0,0.0,0.0,0.0,0.0,0.0,0.0,0.0,0.0,0.0,0.0,0.0,0.0,0.0,0.0,0.0,0.0,0.0,0.0,0.0,0.0,0.0,0.0,0.0,0.0,0.0,0.0,0.0,0.0,0.0,0.0,0.0,0.0,0.0,0.0,0.0,0.0,0.0,0.0,0.0,0.0,0.0,0.0,0.0,0.0,0.0,0.0,0.0,0.0,0.0,0.0,0.0,0.0,0.0,0.0,0.0,0.0,0.0,0.0,0.0,0.0,0.0,0.0,0.0,0.0,0.0,0.0,0.0,0.0,0.0,0.0,0.0,0.0,0.0,0.0,0.0,0.0,0.0,0.0,0.0,0.0,0.0,0.0,0.0,0.0,0.0,0.0,0.0,0.0,0.0,0.0,0.0,0.0,0.0,0.0,0.0,0.0,0.0,0.0,0.0,0.0,0.0,0.0,0.0,0.0,0.0,0.0,0.0,0.0,0.0,0.0,0.0,0.0,0.0,0.0,0.0,0.0,0.0,0.0,0.0,0.0,0.0,0.0,0.0,0.0,0.0,0.0,0.0,0.0,0.0,0.0,0.0,0.0,0.0,0.0,0.0,0.0,0.0,0.0,0.0,0.0,0.0,0.0,0.0,0.0,0.0,0.0,0.0,0.0,0.0,0.0,0.0,0.0,0.0,0.0,0.0,0.0,0.0,0.0,0.0,0.0,0.0,0.0,0.0,0.0,0.0,0.0,0.0,0.0,0.0,0.0,0.0,0.0,0.0,0.0,0.0,0.0,0.0,0.0,0.0,0.0,0.0,0.0,0.0,0.0,0.0,0.0,0.0,0.0,0.0,0.0,0.0,0.0,0.0,0.0,0.0,0.0,0.0,0.0,0.0,0.0,0.0,0.0,0.0,0.0,0.0,0.0,0.0,0.0,0.0,0.0,0.0,0.0,0.0,0.0,0.0,0.0,0.0,0.0,0.0,0.0,0.0,0.0,0.0,0.0,0.0,0.0,0.0,0.0,0.0,0.0,0.0,0.0,0.0,0.0,0.0,0.0,0.0,0.0,0.0,0.0,0.0,0.0,0.0,0.0,0.0,0.0,0.0,0.0,0.0,0.0,0.0,0.0,0.0,0.0,0.0,0.0,0.0,0.0,0.0,0.0,0.0,0.0,0.0,0.0,0.0,0.0,0.0,0.0,0.0,0.0,0.0,0.0,0.0,0.0,0.0,0.0,0.0,0.0,0.0,0.0,0.0,0.0,0.0,0.0,0.0,0.0,0.0,0.0,0.0,0.0,0.0,0.0,0.0,0.0,0.0,0.0,0.0,0.0,0.0,0.0,0.0,0.0,0.0,0.0,0.0,0.0,0.0,0.0,0.0,0.0,0.0,0.0,0.0,0.0,0.0,0.0,0.0,0.0,0.0,0.0,0.0,0.0,0.0,0.0,0.0,0.0,0.0,0.0,0.0,0.0,0.0,0.0,0.0,0.0,0.0,0.0,0.0,0.0,0.0,0.0,0.0,0.0,0.0,0.0,0.0,0.0,0.0,0.0,0.0,0.0,0.0,0.0,0.0,0.0,0.0,0.0,0.0,0.0,0.0,0.0,0.0,0.0,0.0,0.0,0.0,0.0,0.0,0.0,0.0,0.0,0.0,0.0,0.0,0.0,0.0,0.0,0.0,0.0,0.0,0.0,0.0,0.0,0.0,0.0,0.0,0.0,0.0,0.0,0.0,0.0,0.0,0.0,0.0,0.0,0.0,0.0,0.0,0.0,0.0,0.0,0.0,0.0,0.0,0.0,0.0,0.0,0.0,0.0,0.0,0.0,0.0,0.0,0.0,0.0,0.0,0.0,0.0,0.0,0.0,0.0,0.0,0.0,0.0,0.0,0.0,0.0,0.0,0.0,0.0,0.0,0.0,0.0,0.0,0.0,0.0,0.0,0.0,0.0,0.0,0.0,0.0,0.0,0.0,0.0,0.0,0.0,0.0,0.0,0.0,0.0,0.0,0.0,0.0,0.0,0.0,0.0,0.0,0.0,0.0,0.0,0.0,0.0,0.0,0.0,0.0,0.0,0.0,0.0,0.0,0.0,0.0,0.0,0.0,0.0,0.0,0.0,0.0,0.0,0.0,0.0,0.0,0.0,0.0,0.0,0.0,0.0,0.0,0.0,0.0,0.0,0.0,0.0,0.0,0.0,0.0,0.0,0.0,0.0,0.0,0.0,0.0,0.0,0.0,0.0,0.0,0.0,0.0,0.0,0.0,0.0,0.0,0.0,0.0,0.0,0.0,0.0,0.0,0.0,0.0,0.0,0.0,0.0,0.0,0.0,0.0,0.0,0.0,0.0,0.0,0.0,0.0,0.0,0.0,0.0,0.0,0.0,0.0,0.0,0.0,0.0,0.0,0.0,0.0,0.0,0.0,0.0,0.0,0.0,0.0,0.0,0.0,0.0,0.0,0.0,0.0,0.0,0.0,0.0,0.0,0.0,0.0,0.0,0.0,0.0,0.0,0.0,0.0,0.0,0.0,0.0,0.0,0.0,0.0,0.0,0.0,0.0,0.0,0.0,0.0,0.0,0.0,0.0,0.0,0.0,0.0,0.0,0.0,0.0,0.0,0.0,0.0,0.0,0.0,0.0,0.0,0.0,0.0,0.0,0.0,0.0,0.0,0.0,0.0,0.0,0.0,0.0,0.0,0.0,0.0,0.0,0.0,0.0,0.0,0.0,0.0,0.0,0.0,0.0,0.0,0.0,0.0,0.0,0.0,0.0,0.0,0.0,0.0,0.0,0.0,0.0,0.0,0.0,0.0,0.0,0.0,0.0,0.0,0.0,0.0,0.0,0.0,0.0,0.0,0.0,0.0,0.0,0.0,0.0,0.0,0.0,0.0,0.0,0.0,0.0,0.0,0.0,0.0,0.0,0.0,0.0,0.0,0.0,0.0,0.0,0.0,0.0,0.0,0.0,0.0,0.0,0.0,0.0,0.0,0.0,0.0,0.0,0.0,0.0,0.0,0.0,0.0,0.0,0.0,0.0,0.0,0.0,0.0,0.0,0.0,0.0,0.0,0.0,0.0,0.0,0.0,0.0,0.0,0.0,0.0,0.0,0.0,0.0,0.0,0.0,0.0,0.0,0.0,0.0,0.0,0.0,0.0,0.0,0.0,0.0,0.0,0.0,0.0,0.0,0.0,0.0,0.0,0.0,0.0,0.0,0.0,0.0,0.0,0.0,0.0,0.0,0.0,0.0,0.0,0.0,0.0,0.0,0.0,0.0,0.0,0.0,0.0,0.0,0.0,0.0,0.0,0.0,0.0,0.0,0.0,0.0,0.0,0.0,0.0,0.0,0.0,0.0,0.0,0.0,0.0,0.0,0.0,0.0,0.0,0.0,0.0,0.0,0.0,0.0,0.0,0.0,0.0,0.0,0.0,0.0,0.0,0.0,0.0,0.0,0.0,0.0,0.0,0.0,0.0,0.0,0.0,0.0,0.0,0.0,0.0,0.0,0.0,0.0,0.0,0.0,0.0,0.0,0.0,0.0,0.0,0.0,0.0,0.0,0.0,0.0,0.0,0.0,0.0,0.0,0.0,0.0,0.0,0.0,0.0,0.0,0.0,0.0,0.0,0.0,0.0,0.0,0.0,0.0,0.0,0.0,0.0,0.0,0.0,0.0,0.0,0.0,0.0,0.0,0.0,0.0,0.0,0.0,0.0,0.0,0.0,0.0,0.0,0.0,0.0,0.0,0.0,0.0,0.0,0.0,0.0,0.0,0.0,0.0,0.0,0.0,0.0,0.0,0.0,0.0,0.0,0.0,0.0,0.0,0.0,0.0,0.0,0.0,0.0,0.0,0.0,0.0,0.0,0.0,0.0,0.0,0.0,0.0,0.0,0.0,0.0,0.0,0.0,0.0,0.0,0.0,0.0,0.0,0.0,0.0,0.0,0.0,0.0,0.0,0.0,0.0,0.0,0.0,0.0,0.0,0.0,0.0,0.0,0.0,0.0,0.0,0.0,0.0,0.0,0.0,0.0,0.0,0.0,0.0,0.0,0.0,0.0,0.0,0.0,0.0,0.0,0.0,0.0,0.0,0.0,0.0,0.0,0.0,0.0,0.0,0.0,0.0,0.0,0.0,0.0,0.0,0.0,0.0,0.0,0.0,0.0,0.0,0.0,0.0,0.0,0.0,0.0,0.0,0.0,0.0,0.0,0.0,0.0,0.0,0.0,0.0,0.0,0.0,0.0,0.0,0.0,0.0,0.0,0.0,0.0,0.0,0.0,0.0,0.0,0.0,0.0,0.0,0.0,0.0,0.0,0.0,0.0,0.0,0.0,0.0,0.0,0.0,0.0,0.0,0.0,0.0,0.0,0.0,0.0,0.0,0.0,0.0,0.0,0.0,0.0,0.0,0.0,0.0,0.0,0.0,0.0,0.0,0.0,0.0,0.0,0.0,0.0,0.0,0.0,0.0,0.0,0.0,0.0,0.0,0.0,0.0,0.0,0.0,0.0,0.0,0.0,0.0,0.0,0.0,0.0,0.0,0.0,0.0,0.0,0.0,0.0,0.0,0.0,0.0,0.0,0.0,0.0,0.0,0.0,0.0,0.0,0.0,0.0,0.0,0.0,0.0,0.0,0.0,0.0,0.0,0.0,0.0,0.0,0.0,0.0,0.0,0.0,0.0,0.0,0.0,0.0,0.0,0.0,0.0,0.0,0.0,0.0,0.0,0.0,0.0,0.0,0.0,0.0,0.0,0.0,0.0,0.0,0.0,0.0,0.0,0.0,0.0,0.0,0.0,0.0,0.0,0.0,0.0,0.0,0.0,0.0,0.0,0.0,0.0,0.0,0.0,0.0,0.0,0.0,0.0,0.0,0.0,0.0,0.0,0.0,0.0,0.0,0.0,0.0,0.0,0.0,0.0,0.0,0.0,0.0,0.0,0.0,0.0,0.0,0.0,0.0,0.0,0.0,0.0,0.0,0.0,0.0,0.0,0.0,0.0,0.0,0.0,0.0,0.0,0.0,0.0,0.0,0.0,0.0,0.0,0.0,0.0,0.0,0.0,0.0,0.0,0.0,0.0,0.0,0.0,0.0,0.0,0.0,0.0,0.0,0.0,0.0,0.0,0.0,0.0,0.0,0.0,0.0,0.0,0.0,0.0,0.0,0.0,0.0,0.0,0.0,0.0,0.0,0.0,0.0,0.0,0.0,0.0,0.0,0.0,0.0,0.0,0.0,0.0,0.0,0.0,0.0,0.0,0.0,0.0,0.0,0.0,0.0,0.0,0.0,0.0,0.0,0.0,0.0,0.0,0.0,0.0,0.0,0.0,0.0,0.0,0.0,-5.7126,-5.6819,0.0,0.0,0.0,0.0,0.0,0.0,0.0,0.0,0.0,0.0,0.0,0.0,0.0,0.0,0.0,0.0,0.0,0.0,0.0,0.0,0.0,0.0,0.0,0.0,0.0,0.0,0.0,0.0,0.0,0.0,0.0,0.0,0.0,0.0,0.0,0.0,0.0,0.0,0.0,0.0,0.0,0.0,0.0,0.0,0.0,0.0,0.0,0.0,0.0,0.0,0.0,0.0,0.0,0.0,0.0,0.0,0.0,0.0,0.0,0.0,0.0,0.0,0.0,0.0,0.0,0.0,0.0,0.0,0.0,0.0,0.0,0.0,0.0,0.0,0.0,0.0,0.0,0.0,0.0,0.0,0.0,0.0,0.0,0.0,0.0,0.0,0.0,0.0,0.0,0.0,0.0,0.0,0.0,0.0,0.0,0.0,0.0,0.0,0.0,0.0,0.0,0.0,0.0,0.0,0.0,0.0,0.0,0.0,0.0,0.0,0.0,0.0,0.0,0.0,-6.0319,-5.8627,0.0,0.0,0.0,0.0,0.0,0.0,0.0,0.0,0.0,0.0,0.0,0.0,0.0,0.0,0.0,0.0,0.0,0.0,0.0,0.0,0.0,0.0,0.0,0.0,0.0,0.0,0.0,0.0,0.0,0.0,0.0,0.0,0.0,0.0,0.0,0.0,0.0,0.0,0.0,0.0,0.0,0.0,0.0,0.0,0.0,0.0,0.0,0.0,0.0,0.0,0.0,0.0,0.0,0.0,0.0,0.0,0.0,0.0,0.0,0.0,0.0,0.0,0.0,0.0,0.0,0.0,0.0,0.0,0.0,0.0,0.0,0.0,0.0,0.0,0.0,0.0,0.0,0.0,0.0,0.0,0.0,0.0,0.0,0.0,0.0,0.0,0.0,0.0,0.0,0.0,0.0,0.0,0.0,0.0,0.0,0.0,0.0,0.0,0.0,0.0,0.0,0.0,0.0,0.0,0.0,0.0,0.0,0.0,-6.3974,-6.5474,-6.7051,-6.859,-6.9783,-7.0244,-6.4589,-6.1743,-6.1012,-6.0589,0.0,0.0,0.0,0.0,0.0,0.0,0.0,0.0,0.0,0.0,0.0,0.0,0.0,0.0,0.0,0.0,0.0,0.0,0.0,0.0,0.0,0.0,-5.0202,-5.0879,-5.0913,-5.0913,0.0,0.0,0.0,0.0,0.0,0.0,0.0,0.0,0.0,0.0,0.0,0.0,-5.9404,-6.1579,-6.2921,-6.3212,-5.9294,0.0,0.0,0.0,0.0,0.0,0.0,0.0,0.0,0.0,0.0,0.0,0.0,0.0,0.0,0.0,0.0,0.0,0.0,0.0,0.0,0.0,0.0,0.0,0.0,0.0,0.0,0.0,0.0,0.0,0.0,0.0,0.0,0.0,0.0,0.0,0.0,0.0,0.0,0.0,0.0,0.0,0.0,0.0,-5.5511,-5.328,0.0,0.0,0.0,0.0,0.0,0.0,0.0,0.0,0.0,0.0,0.0,0.0,0.0,-6.3974,-6.7051,-6.7167,-6.8013,-6.9552,-6.9783,-7.0398,-7.1398,-7.2399,-7.3283,-7.3976,-7.3091,0.0,-6.7051,-6.4859,0.0,0.0,0.0,0.0,0.0,0.0,0.0,0.0,0.0,0.0,0.0,0.0,0.0,0.0,0.0,0.0,0.0,0.0,0.0,0.0,0.0,-5.0845,-5.1454,-5.1792,-5.301,-5.3213,-5.1928,0.0,0.0,0.0,0.0,0.0,0.0,0.0,0.0,0.0,-5.8355,-6.0554,-6.2076,-6.4309,-6.5527,-6.573,-6.3802,-6.2574,-6.1846,-6.0423,0.0,0.0,0.0,0.0,0.0,0.0,0.0,0.0,0.0,0.0,0.0,0.0,0.0,0.0,0.0,0.0,0.0,0.0,0.0,0.0,0.0,0.0,0.0,0.0,0.0,0.0,0.0,0.0,0.0,0.0,0.0,0.0,0.0,0.0,0.0,0.0,0.0,0.0,0.0,-5.6511,-5.7473,-5.4895,-5.7627,-5.905,0.0,0.0,0.0,0.0,0.0,0.0,0.0,0.0,0.0,-6.482,-6.5743,-6.7128,-6.9129,-7.0552,-7.186,-7.3053,-7.4476,-7.563,-7.6515,-7.7823,-7.8631,-7.9015,-7.9477,-7.813,-7.5207,-7.0706,-6.8129,-6.6782,0.0,0.0,0.0,0.0,-6.2435,-6.2089,0.0,0.0,0.0,0.0,0.0,0.0,0.0,0.0,0.0,0.0,0.0,0.0,-5.0913,-5.2435,-5.3518,-5.3721,-5.548,-5.5683,-5.3585,-5.4702,0.0,0.0,0.0,0.0,0.0,0.0,0.0,0.0,-6.1163,-6.3666,-6.5561,-6.7793,-6.9011,-6.9383,-6.918,-6.7282,-6.4305,-6.2772,-6.1188,0.0,0.0,0.0,0.0,0.0,0.0,0.0,0.0,0.0,0.0,0.0,0.0,0.0,0.0,0.0,0.0,0.0,0.0,0.0,0.0,0.0,0.0,0.0,0.0,0.0,0.0,0.0,0.0,0.0,0.0,0.0,0.0,0.0,0.0,0.0,0.0,0.0,0.0,-5.7396,-5.8627,-5.6319,-5.9242,-6.0781,0.0,0.0,0.0,0.0,0.0,0.0,-6.5128,-6.5474,-6.6628,-6.8975,-6.9898,-7.0975,-7.2283,-7.4168,-7.563,-7.6669,-7.8784,-8.0246,-8.117,-8.2593,-8.3285,-8.3324,-8.3939,-8.3516,-8.1939,-7.6169,-7.3168,-7.1975,-6.9629,-6.8359,-6.7821,-6.7821,-6.7436,-6.6936,0.0,0.0,0.0,0.0,0.0,0.0,0.0,0.0,0.0,0.0,0.0,-5.0913,-5.3078,-5.5277,-5.6867,-5.7543,-5.8355,-5.8186,-5.6664,-5.5378,-5.4296,0.0,0.0,0.0,0.0,0.0,0.0,-6.1061,-6.4749,-6.803,-7.0973,-7.3172,-7.4999,-7.6352,-7.5574,-7.3206,-6.9591,-6.598,-6.4364,-6.3958,0.0,0.0,0.0,0.0,0.0,0.0,0.0,0.0,0.0,0.0,0.0,0.0,0.0,0.0,0.0,0.0,0.0,0.0,0.0,0.0,0.0,0.0,0.0,0.0,0.0,0.0,0.0,0.0,0.0,0.0,0.0,0.0,0.0,0.0,0.0,0.0,0.0,0.0,0.0,-5.7126,-6.0627,0.0,0.0,0.0,0.0,-6.5436,-6.7051,-6.8706,-7.0437,-7.1283,-7.2552,-7.4245,-7.5168,-7.6784,-7.9285,-7.9438,-8.0285,-8.1939,-8.2901,-8.3785,-8.467,-8.5517,-8.5901,-8.5901,-8.5978,-8.594,-8.544,-8.0285,-7.7207,-7.5553,-7.386,-7.3168,-7.3129,-7.3129,-7.3091,-7.2937,0.0,0.0,0.0,0.0,0.0,0.0,0.0,0.0,0.0,-4.9289,-5.0642,-5.2367,-5.4668,-5.7306,-5.9607,-6.1366,-6.2178,-6.2178,-6.1197,-5.8795,0.0,0.0,0.0,0.0,0.0,0.0,-6.14,-6.485,-6.8098,-7.0737,-7.2732,-7.4492,-7.5879,-7.6893,-7.6589,-7.6014,-7.4931,-7.1226,-6.8266,-6.5676,-6.2027,-5.9596,0.0,0.0,0.0,0.0,0.0,0.0,0.0,0.0,0.0,0.0,0.0,0.0,0.0,0.0,0.0,0.0,0.0,0.0,0.0,0.0,0.0,0.0,0.0,0.0,0.0,0.0,0.0,0.0,0.0,0.0,0.0,0.0,0.0,0.0,0.0,0.0,0.0,-6.2666,-6.5974,0.0,-6.7359,-6.8359,-6.9513,-7.0706,-7.1822,-7.3206,-7.4938,-7.5322,-7.6245,-7.7938,-7.8823,-7.9977,-8.14,-8.2516,-8.3401,-8.3978,-8.4824,-8.5363,-8.567,-8.5978,-8.6094,-8.6094,-8.6094,-8.6094,-8.5978,-8.4132,-8.2401,-8.0669,-7.8438,-7.7553,-7.7553,-7.7553,-7.7553,-7.7592,0.0,0.0,0.0,0.0,0.0,0.0,0.0,0.0,0.0,-4.9255,-5.1319,-5.3653,-5.619,-5.9539,-6.2347,-6.4106,-6.4918,-6.4715,-6.3226,-6.0317,0.0,0.0,0.0,0.0,0.0,-6.1738,-6.485,-6.8335,-7.0838,-7.2935,-7.4661,-7.5642,-7.6792,-7.801,-7.801,-7.8551,-7.9295,-7.6555,-7.2665,-6.8098,-6.5392,-6.3265,-6.1292,0.0,0.0,0.0,0.0,0.0,0.0,0.0,0.0,0.0,0.0,0.0,0.0,0.0,0.0,0.0,0.0,0.0,0.0,0.0,0.0,0.0,0.0,0.0,0.0,0.0,0.0,0.0,0.0,0.0,0.0,0.0,0.0,0.0,0.0,0.0,-6.532,-6.7359,-7.0552,-7.2629,-7.2629,-7.3399,-7.4284,-7.513,-7.6245,-7.7476,-7.89,-7.9554,-8.0362,-8.1477,-8.2324,-8.3054,-8.3593,-8.4747,-8.5286,-8.5324,-8.5863,-8.6094,-8.6094,-8.6094,-8.6094,-8.6094,-8.6094,-8.6094,-8.6094,-8.6094,-8.544,-8.4286,-8.2593,-8.1939,-8.1939,-8.1939,-8.1939,-8.1939,0.0,0.0,0.0,0.0,0.0,0.0,0.0,0.0,-4.8409,-4.9864,-5.2063,-5.4634,-5.7611,-6.1941,-6.4918,-6.5764,-6.644,-6.5595,-6.2719,-5.9607,0.0,0.0,0.0,0.0,-6.1467,-6.5121,-6.847,-7.1447,-7.2902,-7.4762,-7.6961,-7.6961,-7.8145,-8.0276,-8.0276,-8.1088,-8.2441,-8.1731,-7.7671,-7.1616,-7.0669,-6.8982,-6.6566,0.0,0.0,0.0,0.0,0.0,0.0,0.0,0.0,0.0,0.0,0.0,0.0,0.0,0.0,0.0,0.0,0.0,0.0,0.0,0.0,0.0,0.0,0.0,0.0,0.0,0.0,0.0,0.0,0.0,0.0,0.0,0.0,0.0,-6.0742,-6.4589,-6.8205,-7.0821,-7.413,-7.6207,-7.6245,-7.7015,-7.7861,-7.8631,-8.0323,-8.1631,-8.2362,-8.4055,-8.4978,-8.4939,-8.5709,-8.6094,-8.6094,-8.6094,-8.6094,-8.6094,-8.6094,-8.6094,-8.6094,-8.6094,-8.6094,-8.6094,-8.6094,-8.6094,-8.6094,-8.6094,-8.6094,-8.6094,-8.6094,-8.6094,-8.6094,-8.6094,-8.6094,-8.5863,0.0,0.0,0.0,0.0,0.0,0.0,0.0,-4.6143,-4.7631,-4.912,-5.1758,-5.504,-5.9066,-6.255,-6.5764,-6.8707,-6.7658,-6.6474,-6.5662,-6.0757,0.0,0.0,0.0,0.0,-6.6,-6.9214,-7.2056,-7.4492,-7.6014,-7.7367,-7.8517,-7.8517,-7.9701,-8.1799,-8.1799,-8.2611,-8.4031,-8.4403,-8.2847,-7.9701,-7.4627,-7.1626,-6.9646,0.0,0.0,0.0,0.0,0.0,0.0,0.0,0.0,0.0,0.0,0.0,0.0,0.0,0.0,0.0,0.0,0.0,0.0,0.0,0.0,0.0,0.0,0.0,0.0,0.0,0.0,0.0,0.0,0.0,0.0,0.0,0.0,-6.3723,-6.518,-6.8513,-7.2168,-7.5938,-7.8861,-8.0823,-8.1439,-8.2285,-8.2901,-8.3131,-8.4709,-8.5478,-8.5093,-8.6094,-8.644,-8.5786,-8.5978,-8.6094,-8.6094,-8.6094,-8.6094,-8.6094,-8.6094,-8.6094,-8.6094,-8.6094,-8.6094,-8.6094,-8.6094,-8.6094,-8.6094,-8.6094,-8.6094,-8.6094,-8.6094,-8.6094,-8.6094,-8.6094,-8.6094,-8.594,0.0,0.0,0.0,0.0,0.0,0.0,0.0,-4.5635,-4.7225,-4.8409,-5.1691,-5.5277,-5.8795,-6.2144,-6.5155,-6.7624,-6.6373,-6.5019,-6.4072,-6.0452,0.0,0.0,0.0,-6.6203,-6.9722,-7.3037,-7.554,-7.713,-7.8619,-7.9769,-8.0513,-8.0818,-8.1968,-8.3828,-8.3828,-8.4471,-8.5621,-8.6061,-8.5723,-8.4573,-8.0344,-7.757,-7.5534,-7.2153,-7.0234,-6.9035,-6.6703,-6.6038,-6.5808,-6.2978,0.0,0.0,0.0,0.0,0.0,0.0,0.0,0.0,0.0,0.0,0.0,0.0,0.0,0.0,0.0,0.0,0.0,0.0,0.0,0.0,0.0,0.0,0.0,0.0,-6.4579,-6.7525,-7.0999,-7.3129,-7.5899,-8.0131,-8.2285,-8.3862,-8.5055,-8.5632,-8.6094,-8.6478,-8.7401,-8.7709,-8.7209,-8.7671,-8.7709,-8.7209,-8.7171,-8.7171,-8.7171,-8.7171,-8.7171,-8.7171,-8.6824,-8.6632,-8.6632,-8.6286,-8.6094,-8.6094,-8.6094,-8.6094,-8.6094,-8.6094,-8.6094,-8.6094,0.0,0.0,0.0,0.0,-8.6094,-8.594,0.0,0.0,0.0,0.0,0.0,0.0,0.0,-4.5196,-4.6887,-4.78,-5.1589,-5.5074,-5.7408,-6.0858,-6.3396,-6.4377,-6.3666,-6.2245,0.0,0.0,0.0,-6.1839,-6.6846,-7.0635,-7.2868,-7.6487,-7.872,-7.9498,-8.0851,-8.1968,-8.2813,-8.3456,-8.4573,-8.6027,-8.6027,-8.6467,-8.7144,-8.7144,-8.7144,-8.711,-8.6433,-8.4848,-8.2548,-7.9545,-7.8381,-7.7907,-7.4147,-7.1763,-7.0178,-6.9095,0.0,0.0,0.0,0.0,0.0,0.0,0.0,0.0,0.0,0.0,0.0,0.0,0.0,0.0,0.0,0.0,0.0,0.0,0.0,0.0,0.0,0.0,0.0,0.0,-6.7597,-7.0969,-7.7187,-7.8045,-7.9453,-8.3285,-8.4593,-8.5786,-8.7248,-8.7478,-8.7863,-8.8632,-8.8863,-8.8902,-8.8709,-8.8863,0.0,0.0,0.0,-8.8709,-8.8709,-8.8709,-8.8709,-8.8671,-8.7902,-8.7478,-8.7363,-8.6594,-8.6209,-8.6094,-8.6094,-8.6094,-8.6094,-8.6094,-8.6094,-8.6094,-8.6094,-8.6094,-8.6094,-8.6094,-8.6094,-8.5863,0.0,0.0,0.0,0.0,0.0,0.0,0.0,-4.4316,-4.5703,-4.7665,-5.0236,-5.2976,-5.5818,-5.8389,-6.0926,-6.3497,-6.1907,-6.0317,0.0,0.0,-6.2313,-6.5595,-7.0161,-7.3713,-7.598,-7.9058,-8.1021,-8.1765,-8.2644,-8.3761,-8.5148,-8.5283,-8.6129,-8.755,-8.755,-8.7989,-8.8666,-8.8666,-8.8666,-8.8632,-8.8497,-8.739,-8.556,-8.4593,-8.3929,-8.3435,-8.1623,-8.0959,-8.0339,-7.6652,-7.4264,-7.2244,-6.8978,0.0,0.0,0.0,0.0,0.0,0.0,0.0,0.0,0.0,0.0,0.0,0.0,0.0,0.0,0.0,0.0,0.0,0.0,0.0,0.0,-6.9276,-7.2384,-7.5881,-8.0226,-8.1866,-8.314,-8.4484,-8.5978,-8.7055,-8.7363,-8.8017,-8.8517,-8.8671,-8.994,-9.0133,-8.8748,-8.9979,-9.0094,-8.8748,-8.8709,-8.8709,-8.8709,-8.8709,-8.8709,-8.8709,-8.8517,0.0,-8.7401,-8.7209,-8.6748,-8.6094,-8.6094,-8.6094,-8.6094,-8.6094,-8.6094,-8.6094,-8.6094,-8.6094,-8.6094,-8.6094,-8.6094,-8.5978,0.0,0.0,0.0,0.0,0.0,0.0,0.0,-4.4147,-4.5669,-4.7158,-4.9289,-5.1522,-5.3754,-5.5683,-5.7408,-5.893,-5.8017,0.0,0.0,-6.1501,-6.4613,-6.8335,-7.3138,-7.6454,-7.7976,-8.1257,-8.3152,-8.3524,-8.5012,-8.6129,-8.6907,-8.7279,-8.782,-8.8531,-8.8531,-8.8734,-8.9072,-8.9072,-8.9072,-8.9072,-8.9072,-8.8931,-8.8763,-8.8733,-8.8365,-8.7919,-8.8123,-8.772,-8.6603,-8.3696,-8.1097,-7.8553,-7.5174,-7.1336,-6.713,0.0,0.0,0.0,0.0,0.0,0.0,0.0,0.0,0.0,0.0,0.0,0.0,0.0,0.0,-6.3209,0.0,0.0,-7.0037,-7.3591,-7.6235,-7.9074,-8.2495,-8.4003,-8.4968,-8.5552,-8.6688,-8.7748,-8.8556,-8.944,-9.0133,-9.0556,-9.1748,-9.2095,-9.1248,-9.1979,-9.1864,-9.0633,-9.0594,-9.0402,-8.994,-8.994,-8.994,-8.994,-8.9517,-8.8863,-8.8017,-8.7594,-8.6901,-8.6094,-8.6094,-8.6094,-8.6094,-8.6094,-8.6094,-8.6094,-8.6094,-8.6094,-8.6094,-8.6094,-8.6094,-8.5978,0.0,0.0,0.0,0.0,0.0,0.0,0.0,0.0,-4.5568,-4.6481,-4.8376,-5.0168,-5.1522,-5.301,-5.3991,-5.4092,0.0,0.0,0.0,-6.273,-6.6474,-7.0229,-7.5405,-7.8551,-7.9295,-8.2813,-8.4776,-8.508,-8.7042,-8.8057,-8.8226,-8.8801,-8.9072,-8.9072,-8.9072,-8.9072,-8.9072,-8.9072,-8.9072,-8.9072,-8.9072,-8.9779,-9.0641,-9.1362,-9.1493,-9.1586,-9.3024,-9.2162,-9.0165,-8.9422,-8.6677,-8.3236,-8.1237,-7.8171,-7.3974,-6.767,-6.6236,0.0,0.0,0.0,0.0,0.0,0.0,0.0,0.0,0.0,-6.3209,-6.387,-6.6072,-6.8274,-6.9596,-7.1945,-7.4661,-7.7561,-7.9396,-8.1413,-8.4063,-8.512,-8.5899,-8.6571,-8.7274,-8.8336,-9.0017,-9.0941,-9.1825,-9.2672,-9.348,-9.3864,-9.371,-9.371,-9.3326,-9.2518,-9.2326,-9.1902,-9.121,-9.121,-9.121,-9.121,-9.0479,-8.971,-8.8902,-8.8055,-8.7171,-8.6324,-8.617,-8.6094,-8.6094,-8.6094,-8.6094,-8.6094,-8.6094,-8.6094,-8.6094,-8.6094,-8.6094,-8.6017,0.0,0.0,0.0,0.0,0.0,0.0,0.0,0.0,0.0,-4.5635,-4.7192,-4.8477,-4.9289,-5.071,-5.1813,0.0,0.0,0.0,-5.9805,-6.3451,-6.7252,-7.1007,-7.6183,-7.9329,-8.0073,-8.305,-8.5283,-8.6636,-8.755,-8.8328,-8.897,-8.9038,-8.9072,-8.9072,-8.9072,-8.9072,-8.9072,-8.9072,-8.9072,-8.9072,-8.9072,-8.9184,-8.9449,-9.0641,-9.2434,-9.4445,-9.4974,-9.3234,-9.074,-9.206,-8.9709,-8.6319,-8.7492,-8.4636,-8.0127,-7.6498,0.0,-6.7082,0.0,0.0,0.0,-6.2401,-6.2622,-6.3025,0.0,0.0,-6.8128,-6.8201,-7.0697,-7.2936,-7.312,-7.5763,-7.8516,-8.0314,-8.1966,-8.3361,-8.4448,-8.5164,-8.6124,-8.755,-8.8326,-8.934,-9.0905,-9.1825,-9.2672,-9.348,-9.4364,-9.4518,-9.3749,-9.371,-9.3326,-9.2518,-9.1748,-9.1287,-9.121,-9.121,-9.121,-9.121,-9.1095,-9.0594,-8.9748,-8.8902,-8.8055,-8.7209,-8.644,-8.6094,-8.6094,-8.6094,-8.6094,-8.6094,-8.6094,-8.6094,-8.6094,-8.6094,-8.6094,-8.6132,0.0,0.0,0.0,0.0,0.0,0.0,0.0,0.0,0.0,0.0,-4.7111,-4.8021,-5.0042,-5.0758,0.0,0.0,0.0,0.0,-6.0578,-6.4495,-6.8284,-7.185,-7.7217,-8.0116,-8.0175,-8.3558,-8.5824,-8.6907,-8.8057,-8.8801,-8.9072,-8.9072,-8.9072,-8.9072,-8.9072,-8.9072,-8.9072,-8.9072,-8.9072,-8.9072,-8.9072,-8.9072,-8.9194,-8.957,-8.978,-9.0064,-9.1125,-9.026,0.0,-8.8757,-8.6971,-8.5045,-8.7158,-8.4828,-8.0765,-7.7973,-7.366,0.0,-6.668,0.0,0.0,0.0,-6.6733,-6.8054,-6.9229,-7.0624,-7.1835,-7.2312,-7.4625,-7.668,-7.7157,-7.9507,-8.1782,0.0,-8.4058,-8.5086,-8.5894,-8.5861,-8.6264,-8.7645,-8.7674,-8.8537,-9.0947,-9.2402,-9.3326,-9.3672,-9.498,-9.5595,-9.5211,-9.5211,-9.4595,-9.3249,-9.2826,-9.2441,-9.1979,-9.1441,-9.1441,-9.1941,-9.1441,-9.0748,-8.9863,-8.9056,-8.794,-8.6632,-8.6247,-8.6094,-8.6094,-8.6094,-8.6094,-8.6094,-8.6094,-8.6094,-8.6094,-8.6094,-8.6209,-8.6363,0.0,0.0,0.0,0.0,0.0,0.0,0.0,0.0,0.0,0.0,0.0,-4.8092,-5.0805,0.0,0.0,0.0,0.0,0.0,0.0,-6.4114,-6.808,-7.1862,-7.6884,-7.9787,-8.0365,-8.3602,-8.5705,-8.6602,-8.8057,-8.8869,-8.9072,-8.9072,-8.9072,-8.9072,-8.9072,-8.9072,-8.9072,-8.9072,-8.9072,-8.9072,-8.9072,-8.897,-8.871,-8.7949,-8.6563,-8.5192,-8.6382,-8.5513,-8.3756,-8.3074,-8.1709,-8.0828,-8.3251,-8.2003,-7.925,-7.7231,-7.3634,-6.9743,-6.7173,0.0,0.0,-6.8641,-7.066,-7.2569,-7.3597,-7.4625,-7.5616,-7.6423,-7.8185,-7.9764,-8.0351,-8.2076,-8.3654,-8.4462,-8.5453,-8.6334,-8.6921,-8.6648,-8.6697,-8.7366,-8.6933,-8.7497,-8.9947,-9.2095,-9.3441,-9.3672,-9.5326,-9.6288,-9.6288,-9.6057,-9.5365,-9.4095,-9.3826,-9.3326,-9.2518,-9.2095,-9.2095,-9.2479,-9.1864,-9.1248,-9.0556,-8.9286,-8.7748,-8.6094,-8.6094,-8.6094,-8.6094,-8.6094,-8.6094,-8.6094,-8.6094,-8.6094,-8.6094,-8.6094,-8.6209,-8.6396,0.0,0.0,0.0,0.0,0.0,0.0,0.0,0.0,0.0,0.0,0.0,0.0,0.0,0.0,0.0,0.0,0.0,0.0,0.0,-6.1636,-6.5926,-7.059,-7.4435,-7.7824,-8.064,-8.2898,-8.4655,-8.5824,-8.7313,-8.8395,-8.9072,-8.9072,-8.9072,-8.9072,-8.9072,-8.9072,-8.9072,-8.9072,-8.9072,-8.9072,-8.9072,-8.8666,-8.7786,-8.5554,-8.3223,-8.1275,-8.1699,-7.9432,-7.6063,0.0,-7.4184,-7.3266,-7.5689,-7.635,0.0,-7.5212,-7.1578,0.0,0.0,0.0,-6.8421,-7.1578,-7.3597,-7.5212,-7.6827,-7.8442,-7.9837,-8.0645,-8.1489,-8.2076,-8.2113,-8.281,-8.3654,-8.4462,-8.593,-8.6995,-8.6995,-8.7517,-8.7578,-8.6703,-8.648,-8.6619,0.0,-9.0556,-9.2864,-9.3633,-9.5326,-9.6288,-9.6288,-9.548,-9.5018,-9.4941,-9.4134,-9.3326,-9.2518,-9.3249,-9.3249,-9.2479,-9.2479,-9.2441,-9.2326,-8.9825,-8.7748,-8.6094,-8.6094,-8.6094,-8.6094,-8.6094,-8.6094,-8.6094,-8.6094,-8.6094,-8.6094,-8.6094,-8.6094,-8.612,0.0,0.0,0.0,0.0,0.0,0.0,0.0,0.0,0.0,0.0,0.0,0.0,0.0,0.0,0.0,0.0,0.0,0.0,0.0,-6.1151,-6.4455,-6.7504,-7.351,-7.7103,-7.7859,-8.2138,-8.5133,-8.6516,-8.8084,-8.9199,-9.0065,-9.0065,-9.0309,-9.0832,-9.0832,-9.1077,-9.1565,-9.071,-9.0538,-9.0628,-8.7936,-8.6904,-8.644,-8.1359,-7.7726,-7.4885,0.0,-7.0002,0.0,0.0,0.0,0.0,-7.0403,0.0,0.0,-6.6659,0.0,0.0,0.0,0.0,-7.2312,-7.5028,-7.6937,-7.8552,-8.0167,-8.0975,-8.1452,-8.1746,-8.0755,-7.98,-7.98,-8.0461,-8.1269,-8.2076,-8.4903,-8.6995,-8.6995,-8.809,-8.8106,-8.5988,-8.6594,0.0,0.0,0.0,0.0,-9.1941,-9.3595,-9.4826,-9.5403,-9.5711,-9.5595,-9.5018,-9.4711,-9.4134,-9.3287,-9.3557,-9.3287,-9.2479,-9.1325,-9.021,-8.9094,-8.8209,-8.7209,-8.6094,-8.6094,-8.6094,-8.6094,-8.6094,-8.6094,-8.6094,-8.6094,-8.6094,-8.6094,-8.6094,-8.6094,-8.6165,0.0,0.0,0.0,0.0,0.0,0.0,0.0,0.0,0.0,0.0,0.0,0.0,0.0,0.0,0.0,0.0,0.0,0.0,0.0,0.0,-6.2223,-6.4794,-6.9962,-7.3127,-7.3932,-7.766,-8.0339,-8.1726,-8.3964,-8.5552,-8.6611,-8.7796,-8.8573,-8.9067,-8.935,-9.0008,-9.0715,-8.952,-8.8741,-8.7931,-8.4897,-8.2914,-8.1387,-7.6114,-7.2108,0.0,-6.4533,-6.304,0.0,0.0,0.0,0.0,0.0,0.0,0.0,0.0,0.0,0.0,0.0,-7.2129,-7.5602,-7.8293,-7.9976,-8.1353,-8.2594,-8.2876,-8.2728,-8.2134,-8.0258,-7.859,-7.8034,-7.7657,-7.8057,-8.0015,-8.2573,-8.4912,-8.6634,-8.7657,-8.7607,-8.5858,-8.6528,-8.6545,0.0,0.0,0.0,-9.0171,-9.2133,-9.3518,-9.4057,-9.5211,-9.5557,-9.5018,-9.498,-9.4557,-9.371,-9.371,-9.3133,-9.2018,-9.0902,-8.9325,-8.7401,-8.7401,-8.6901,-8.6094,-8.6094,-8.6094,-8.6094,-8.6094,-8.6094,-8.6094,-8.6094,-8.6094,-8.6094,-8.6094,-8.6094,-8.6132,0.0,0.0,0.0,0.0,0.0,0.0,0.0,0.0,0.0,0.0,0.0,0.0,0.0,0.0,0.0,0.0,0.0,0.0,0.0,0.0,0.0,-6.2365,-6.4273,-6.6517,-6.9245,-7.026,-7.1299,-7.2478,-7.5583,-7.7918,-7.947,-8.2411,-8.3874,-8.398,-8.4686,-8.5587,-8.633,-8.5464,-8.3752,-8.1599,-7.9796,-7.6865,-7.3167,-7.0007,-6.6532,-6.3115,-6.0917,0.0,0.0,0.0,0.0,0.0,0.0,0.0,0.0,0.0,0.0,-6.8568,-7.1892,-7.5125,-7.8283,-8.1363,-8.2687,-8.3433,-8.4029,-8.4103,-8.3575,-8.1829,-8.0009,-7.8191,0.0,0.0,-7.435,-7.8124,-7.9276,-8.134,-8.5988,-8.6662,-8.6638,0.0,0.0,0.0,0.0,0.0,0.0,-8.8709,0.0,-9.2402,-9.2479,-9.4057,-9.4941,-9.498,-9.4941,-9.4518,-9.371,-9.3557,-9.271,-9.1133,-9.1056,-8.971,-8.7325,-8.7325,-8.6863,-8.6094,-8.6094,-8.6094,-8.6094,-8.6094,-8.6094,-8.6094,-8.6094,-8.6094,-8.6094,-8.6094,-8.6094,-8.6094,0.0,0.0,0.0,0.0,0.0,0.0,0.0,0.0,0.0,0.0,0.0,0.0,0.0,0.0,0.0,0.0,0.0,0.0,0.0,0.0,0.0,0.0,0.0,0.0,0.0,0.0,0.0,0.0,-7.3897,-7.5095,-7.6112,-7.6294,-7.702,-7.8213,-7.7783,-7.84,-7.9671,-7.8493,-7.7883,-7.7285,-7.3964,-7.2183,-7.1083,-6.6597,-6.3678,-6.1623,-5.9951,0.0,0.0,0.0,0.0,0.0,0.0,0.0,-6.2181,0.0,0.0,-7.1287,-7.5624,-7.8796,-8.1251,-8.3171,-8.3777,-8.3979,-8.4179,-8.3198,-8.1791,-8.0085,-7.6459,-7.3069,0.0,0.0,0.0,-7.4915,-7.9564,0.0,-8.7071,-9.0087,0.0,-8.9392,0.0,-9.0941,-8.8825,-8.9402,0.0,0.0,-9.0556,-9.1133,-9.2441,-9.348,-9.4326,-9.498,-9.4364,-9.3903,-9.371,-9.1825,-9.0671,-9.021,-8.8979,-8.7671,-8.644,-8.644,-8.6324,-8.6094,-8.6094,-8.6094,-8.6094,-8.6094,-8.6094,-8.6094,-8.6094,-8.6094,-8.6094,-8.6094,-8.6094,-8.6094,0.0,0.0,0.0,0.0,0.0,0.0,0.0,0.0,0.0,0.0,0.0,0.0,0.0,0.0,0.0,0.0,0.0,0.0,0.0,0.0,0.0,0.0,0.0,0.0,0.0,0.0,0.0,0.0,0.0,0.0,-6.9596,-7.0257,-7.1027,-7.1872,-7.1798,-7.2459,-7.3538,-7.246,-7.1563,0.0,0.0,-6.6258,-6.4924,-6.2155,-6.0583,0.0,0.0,0.0,0.0,0.0,0.0,-6.1117,-6.3025,-6.464,-6.6439,-6.9449,0.0,-7.568,-7.8999,-8.1676,-8.3735,-8.4883,-8.4871,-8.4195,-8.2631,-8.153,-7.97,-7.578,-7.2166,0.0,-6.7414,0.0,0.0,0.0,0.0,0.0,-8.697,-8.9596,-9.0911,0.0,-9.1759,0.0,-9.0633,-9.1248,-9.1787,0.0,-9.1325,-9.1479,-9.2441,-9.3249,-9.3903,-9.4403,-9.3595,-9.2979,-9.2595,-9.0825,-8.971,-8.9363,-8.8017,-8.694,-8.6094,-8.6094,-8.6094,-8.6094,-8.6094,-8.6094,-8.6094,-8.6094,-8.6094,-8.6094,-8.6094,-8.6094,-8.6094,-8.6094,-8.6094,-8.6094,0.0,0.0,0.0,0.0,0.0,0.0,0.0,0.0,0.0,0.0,0.0,0.0,0.0,0.0,0.0,0.0,0.0,0.0,0.0,0.0,0.0,0.0,0.0,0.0,0.0,0.0,0.0,0.0,0.0,0.0,0.0,0.0,0.0,0.0,0.0,0.0,0.0,-6.6366,-6.4861,-6.2915,-6.2144,-6.0236,-5.785,0.0,0.0,0.0,0.0,0.0,0.0,0.0,-6.3062,-6.3723,-6.71,-6.9743,-7.2018,-7.3927,-7.6995,-8.0169,-8.2108,-8.4125,-8.583,-8.6417,-8.5815,-8.4136,-8.0613,-7.9361,-7.713,-7.0667,0.0,-6.5897,-6.4243,-6.3828,-6.5741,-7.1996,0.0,-7.9118,-8.6368,-8.7594,-8.8671,-9.1248,-9.1518,-9.1518,-9.1518,-9.2326,-9.2826,-9.2826,-9.2941,-9.2903,-9.2672,-9.321,-9.348,-9.3364,-9.2787,-9.2095,-9.121,-9.0248,-8.9402,-8.8671,-8.7709,-8.6824,-8.6094,-8.6094,-8.6094,-8.6094,-8.6094,-8.6094,-8.6094,-8.6094,-8.6094,-8.6094,-8.6094,-8.6094,-8.6094,-8.6094,-8.6094,-8.6094,0.0,0.0,0.0,0.0,0.0,0.0,0.0,0.0,0.0,0.0,0.0,0.0,0.0,0.0,0.0,0.0,0.0,0.0,0.0,0.0,0.0,0.0,0.0,0.0,0.0,0.0,0.0,0.0,0.0,0.0,0.0,0.0,0.0,0.0,0.0,0.0,0.0,-5.774,-5.7446,-5.7042,-5.6895,-5.6895,-5.7005,0.0,0.0,0.0,0.0,0.0,0.0,0.0,-6.431,-6.5558,-6.9449,-7.1872,-7.4001,-7.7671,-7.966,-8.1323,-8.4816,-8.6559,-8.7256,-8.7233,-8.6035,-8.4033,-8.0561,-7.7092,0.0,0.0,-6.5089,-6.2435,-6.0704,-6.2041,0.0,-6.9629,0.0,0.0,0.0,0.0,-9.0402,0.0,0.0,0.0,0.0,0.0,0.0,0.0,-9.5211,-9.5018,-9.3557,-9.2979,-9.2364,-9.1672,-9.221,-9.2095,-9.121,-8.9671,-8.8825,-8.8671,-8.7094,-8.6247,-8.6094,-8.6094,-8.6094,-8.6094,-8.6094,-8.6094,-8.6094,-8.6094,-8.6094,-8.6094,-8.6094,-8.6094,-8.6094,-8.6094,-8.6094,-8.6094,0.0,0.0,0.0,0.0,0.0,0.0,0.0,0.0,0.0,0.0,0.0,0.0,0.0,0.0,0.0,0.0,0.0,0.0,0.0,0.0,0.0,0.0,0.0,0.0,0.0,0.0,0.0,0.0,0.0,0.0,0.0,0.0,0.0,0.0,0.0,0.0,0.0,0.0,0.0,0.0,0.0,0.0,0.0,0.0,0.0,0.0,0.0,0.0,0.0,0.0,-6.4273,-6.6219,-7.1541,-7.4882,-7.7341,-7.9727,-8.2079,-8.4461,-8.6703,-8.8104,-8.8909,-8.8723,-8.6786,-8.3439,-7.7823,0.0,0.0,0.0,-6.0858,-5.905,-5.7742,0.0,0.0,0.0,0.0,0.0,0.0,0.0,0.0,0.0,0.0,0.0,0.0,0.0,-9.4518,-9.4941,-9.5403,-9.5249,-9.4403,-9.3172,-9.2326,-9.1902,-9.1825,-9.1633,-9.121,-8.9556,-8.8709,-8.8671,-8.694,-8.6094,-8.6094,-8.6094,-8.6094,-8.6094,-8.6094,-8.6094,-8.6094,-8.6094,-8.6094,-8.6094,-8.6094,-8.6094,-8.6094,-8.6094,-8.6094,-8.6094,0.0,0.0,0.0,0.0,0.0,0.0,0.0,0.0,0.0,0.0,0.0,0.0,0.0,0.0,0.0,0.0,0.0,0.0,0.0,0.0,0.0,0.0,0.0,0.0,0.0,0.0,0.0,0.0,0.0,0.0,0.0,0.0,0.0,0.0,0.0,0.0,0.0,0.0,0.0,0.0,0.0,0.0,0.0,0.0,0.0,0.0,0.0,0.0,0.0,0.0,-6.3025,-6.5228,-7.0844,-7.5432,-7.8919,-7.9727,-8.2856,-8.6383,-8.7673,-8.9032,-9.005,-8.9764,-8.7141,-8.2631,-7.4976,-7.0975,0.0,0.0,-5.7319,-5.6434,-5.5588,0.0,0.0,0.0,0.0,0.0,0.0,0.0,0.0,0.0,0.0,0.0,0.0,0.0,0.0,-9.4095,-9.4364,-9.4518,-9.4711,-9.3287,-9.2402,-9.221,-9.1556,-9.1133,-9.0941,-8.944,-8.8594,-8.8402,-8.6824,-8.6094,-8.6094,-8.6094,-8.6094,-8.6094,-8.6094,-8.6094,-8.6094,-8.6094,-8.6094,-8.6094,-8.6094,-8.6094,-8.6094,-8.6094,-8.6094,-8.6094,0.0,0.0,0.0,0.0,0.0,0.0,0.0,0.0,0.0,0.0,0.0,0.0,0.0,0.0,0.0,0.0,0.0,0.0,0.0,0.0,0.0,0.0,0.0,0.0,0.0,0.0,0.0,0.0,0.0,0.0,0.0,0.0,0.0,0.0,0.0,0.0,0.0,0.0,0.0,0.0,0.0,0.0,0.0,0.0,0.0,0.0,0.0,0.0,0.0,0.0,0.0,-6.1337,-6.42,-6.9816,-7.5506,-7.6313,0.0,0.0,-8.7257,-8.9046,-8.9926,-8.9087,-8.6278,-8.1708,-7.4053,0.0,0.0,-5.8357,-5.6434,-5.5549,-5.4741,-5.6126,-5.8434,-6.1781,-6.3858,-6.8282,0.0,0.0,0.0,0.0,0.0,0.0,0.0,-8.9825,-9.0633,-9.1479,-9.2287,-9.3056,-9.3787,-9.2979,-9.2133,-9.1325,-9.1248,-9.0825,-9.0056,-8.9133,-8.8286,-8.7517,-8.6555,-8.6094,-8.6094,-8.6094,-8.6094,-8.6094,-8.6094,-8.6094,-8.6094,-8.6094,-8.6094,-8.6094,-8.6094,-8.6094,-8.6094,-8.6094,-8.6094,-8.6094,0.0,0.0,0.0,0.0,0.0,0.0,0.0,0.0,0.0,0.0,0.0,0.0,0.0,0.0,0.0,0.0,0.0,0.0,0.0,0.0,0.0,0.0,0.0,0.0,0.0,0.0,0.0,0.0,0.0,0.0,0.0,0.0,0.0,0.0,0.0,0.0,0.0,0.0,0.0,0.0,0.0,0.0,0.0,0.0,0.0,0.0,0.0,0.0,0.0,0.0,0.0,0.0,-5.7703,-6.152,0.0,0.0,-7.6258,-8.0585,-8.477,-8.7342,-8.879,-8.8366,-8.5224,-8.0348,-7.3237,0.0,0.0,-5.8127,-5.6319,-5.528,-5.3972,-5.5088,-5.6511,-5.7396,-5.8473,-6.2127,0.0,0.0,0.0,0.0,0.0,0.0,0.0,0.0,-8.9517,-9.0364,-9.121,-9.1633,-9.1441,-9.1133,-9.1248,-9.1979,-9.0479,-8.9748,-8.9902,-8.8594,-8.7748,-8.7401,-8.6517,-8.6094,-8.6094,-8.6094,-8.6094,-8.6094,-8.6094,-8.6094,-8.6094,-8.6094,-8.6094,-8.6094,-8.6094,-8.6094,-8.6094,-8.6094,-8.6094,-8.6094,0.0,0.0,0.0,0.0,0.0,0.0,0.0,0.0,0.0,0.0,0.0,0.0,0.0,0.0,0.0,0.0,0.0,0.0,0.0,0.0,0.0,0.0,0.0,0.0,0.0,0.0,0.0,0.0,0.0,0.0,0.0,0.0,0.0,0.0,0.0,0.0,0.0,0.0,0.0,0.0,0.0,0.0,0.0,0.0,0.0,0.0,0.0,0.0,0.0,0.0,0.0,0.0,0.0,0.0,0.0,0.0,-7.1798,-7.6875,-8.1482,-8.4823,-8.7033,-8.7189,-8.3578,-7.8324,0.0,0.0,0.0,-5.7435,-5.5868,-5.4895,-5.3472,-5.3933,-5.4549,-5.4511,-5.5164,-5.8204,-6.5359,0.0,0.0,0.0,0.0,0.0,0.0,-8.744,-8.8556,-8.9133,-8.9979,-9.021,-8.9594,-8.9286,-8.9825,-9.1325,-8.9633,-8.8863,-8.9171,-8.7979,-8.7286,-8.7017,-8.6401,-8.6094,-8.6094,-8.6094,-8.6094,-8.6094,-8.6094,-8.6094,-8.6094,-8.6094,-8.6094,-8.6094,-8.6094,-8.6094,-8.6094,-8.6094,-8.6094,-8.6094,0.0,0.0,0.0,0.0,0.0,0.0,0.0,0.0,0.0,0.0,0.0,0.0,0.0,0.0,0.0,0.0,0.0,0.0,0.0,0.0,0.0,0.0,0.0,0.0,0.0,0.0,0.0,0.0,0.0,0.0,0.0,0.0,0.0,0.0,0.0,0.0,0.0,0.0,0.0,0.0,0.0,0.0,0.0,0.0,0.0,0.0,0.0,0.0,0.0,0.0,0.0,0.0,0.0,0.0,0.0,0.0,-6.6219,-7.345,-7.7524,-8.1451,-8.4605,-8.5425,-8.1205,-7.5513,0.0,0.0,0.0,-5.5984,-5.481,-5.4241,-5.3356,-5.251,-5.251,-5.4203,-5.5164,-5.778,-6.3782,-6.6051,0.0,0.0,0.0,0.0,0.0,-8.4439,-8.7401,-8.744,-8.8209,-8.8709,-8.8709,-8.7902,-8.7825,-8.8709,-8.8709,-8.8286,-8.744,-8.7401,-8.6978,-8.6094,-8.6094,-8.6094,-8.6094,-8.6094,-8.6094,-8.6094,-8.6094,-8.6094,-8.6094,-8.6094,-8.6094,-8.6094,-8.6094,-8.6094,-8.6094,-8.6094,-8.6094,-8.6094,0.0,0.0,0.0,0.0,0.0,0.0,0.0,0.0,0.0,0.0,0.0,0.0,0.0,0.0,0.0,0.0,0.0,0.0,0.0,0.0,0.0,0.0,0.0,0.0,0.0,0.0,0.0,0.0,0.0,0.0,0.0,0.0,0.0,0.0,0.0,0.0,0.0,0.0,0.0,0.0,0.0,0.0,0.0,0.0,0.0,0.0,0.0,0.0,0.0,0.0,0.0,0.0,0.0,0.0,0.0,0.0,0.0,0.0,-6.9082,-7.1655,-7.3148,-7.3997,-7.1788,-6.8466,-6.4599,0.0,0.0,-5.4901,-5.4117,-5.369,-5.2508,-5.2087,-5.2664,-5.4934,-5.5511,-5.7357,-6.2204,0.0,0.0,0.0,0.0,0.0,0.0,0.0,-8.7132,-8.6555,-8.7325,-8.7555,-8.694,-8.6671,-8.7171,-8.8632,-8.7555,-8.7094,-8.7401,-8.6824,-8.6363,-8.6094,-8.6094,-8.6094,-8.6094,-8.6094,-8.6094,-8.6094,-8.6094,-8.6094,-8.6094,-8.6094,-8.6094,-8.6094,-8.6094,-8.6094,-8.6094,-8.6094,-8.6094,-8.6094,0.0,0.0,0.0,0.0,0.0,0.0,0.0,0.0,0.0,0.0,0.0,0.0,0.0,0.0,0.0,0.0,0.0,0.0,0.0,0.0,0.0,0.0,0.0,0.0,0.0,0.0,0.0,0.0,0.0,0.0,0.0,0.0,0.0,0.0,0.0,0.0,0.0,0.0,0.0,0.0,0.0,0.0,0.0,0.0,0.0,0.0,0.0,0.0,0.0,0.0,0.0,0.0,0.0,0.0,0.0,0.0,0.0,0.0,0.0,-6.5228,-6.699,-6.7797,-6.616,0.0,0.0,0.0,0.0,-5.404,-5.3704,-5.3391,-5.2141,-5.1895,-5.2433,-5.401,-5.5049,-5.6857,-6.0204,0.0,0.0,0.0,0.0,0.0,0.0,-8.6017,-8.6671,-8.6132,-8.6594,-8.6671,-8.6132,-8.6094,-8.6594,-8.7671,-8.6671,-8.6363,-8.6901,-8.6363,-8.6094,-8.6094,-8.6094,-8.6094,-8.6094,-8.6094,-8.6094,-8.6094,-8.6094,-8.6094,0.0,-8.6094,-8.6094,-8.6094,-8.6094,-8.6094,-8.6094,-8.6094,-8.6094,-8.6094,0.0,0.0,0.0,0.0,0.0,0.0,0.0,0.0,0.0,0.0,0.0,0.0,0.0,0.0,0.0,0.0,0.0,0.0,0.0,0.0,0.0,0.0,0.0,0.0,0.0,0.0,0.0,0.0,-4.7513,-4.8743,-5.1014,0.0,0.0,0.0,0.0,0.0,0.0,0.0,0.0,0.0,0.0,0.0,0.0,0.0,0.0,0.0,0.0,0.0,0.0,0.0,0.0,0.0,0.0,0.0,0.0,0.0,0.0,0.0,0.0,0.0,0.0,0.0,0.0,0.0,0.0,0.0,0.0,0.0,0.0,-5.329,-5.2082,-5.1875,-5.1972,-5.2164,-5.428,-5.6472,-5.8165,0.0,0.0,0.0,0.0,0.0,-8.217,-8.4632,-8.6094,-8.606,-8.6026,-8.6026,-8.6026,-8.6026,-8.606,-8.6094,-8.6094,-8.6094,-8.6094,-8.6094,-8.6094,-8.6094,-8.6094,-8.6094,-8.6094,-8.6094,-8.6094,-8.6094,-8.6094,-8.6094,-8.6094,-8.6094,-8.6094,-8.6094,-8.6094,-8.6094,-8.6094,-8.6094,-8.6094,-8.6094,0.0,0.0,0.0,0.0,0.0,0.0,0.0,0.0,0.0,0.0,0.0,0.0,0.0,0.0,0.0,0.0,0.0,0.0,0.0,0.0,0.0,0.0,0.0,0.0,0.0,0.0,0.0,-4.5341,-4.5864,-4.702,-4.8711,-4.9953,0.0,0.0,0.0,0.0,0.0,0.0,0.0,0.0,0.0,0.0,0.0,0.0,0.0,0.0,0.0,0.0,0.0,0.0,0.0,0.0,0.0,0.0,0.0,0.0,0.0,0.0,0.0,0.0,0.0,0.0,0.0,0.0,0.0,0.0,0.0,0.0,0.0,0.0,0.0,-5.1672,-5.2549,-5.4472,-5.6434,-5.805,-5.9088,0.0,0.0,0.0,0.0,-8.3362,-8.3285,-8.5016,-8.5919,-8.536,-8.536,-8.536,-8.536,-8.536,-8.5551,-8.6094,-8.6094,-8.6094,-8.6094,-8.6094,-8.6094,-8.6094,-8.6094,-8.6094,-8.6094,-8.6094,-8.6094,-8.6094,-8.6094,-8.6094,-8.6094,-8.6094,-8.6094,-8.6094,-8.6094,-8.6094,-8.6094,-8.6094,-8.6094,-8.6094,0.0,0.0,0.0,0.0,0.0,0.0,0.0,0.0,0.0,0.0,0.0,0.0,0.0,0.0,0.0,0.0,0.0,0.0,0.0,0.0,0.0,0.0,0.0,0.0,0.0,0.0,0.0,0.0,0.0,-4.659,0.0,0.0,0.0,0.0,0.0,0.0,0.0,0.0,0.0,0.0,0.0,0.0,0.0,0.0,0.0,0.0,0.0,0.0,0.0,-5.3298,-5.4069,-5.4987,0.0,0.0,0.0,0.0,0.0,0.0,0.0,0.0,0.0,0.0,0.0,0.0,0.0,0.0,0.0,0.0,0.0,0.0,0.0,0.0,-5.2387,-5.3722,-5.5733,-5.8453,0.0,0.0,0.0,0.0,0.0,-8.2568,0.0,-8.4095,-8.466,-8.4658,-8.4696,-8.4785,-8.5121,-8.5121,-8.5399,-8.606,-8.6094,-8.6094,-8.6094,-8.6094,-8.6094,-8.6094,-8.6094,-8.6094,-8.6094,-8.6094,-8.6094,-8.6094,-8.6094,-8.6094,-8.6094,-8.6094,-8.6094,-8.6094,-8.6094,-8.6094,-8.6094,-8.6094,-8.6094,-8.6094,0.0,0.0,0.0,0.0,0.0,0.0,0.0,0.0,0.0,0.0,0.0,0.0,0.0,0.0,0.0,0.0,0.0,0.0,0.0,0.0,0.0,0.0,0.0,0.0,0.0,0.0,0.0,0.0,0.0,0.0,0.0,0.0,0.0,0.0,0.0,0.0,0.0,0.0,0.0,0.0,0.0,0.0,0.0,0.0,0.0,0.0,0.0,0.0,0.0,-5.1977,-5.2968,-5.4106,-5.3555,0.0,0.0,0.0,0.0,0.0,0.0,0.0,0.0,0.0,0.0,0.0,0.0,0.0,0.0,0.0,0.0,0.0,0.0,0.0,0.0,0.0,0.0,0.0,0.0,0.0,0.0,0.0,-7.9471,0.0,-8.2519,-8.2934,-8.3386,-8.3992,-8.4129,-8.442,-8.4915,-8.5079,-8.5399,-8.606,-8.6094,-8.6094,-8.6094,-8.6094,-8.6094,-8.6094,-8.6094,-8.6094,-8.6094,-8.6094,-8.6094,-8.6094,-8.6094,-8.6094,-8.6094,-8.6094,-8.6094,-8.6094,-8.6094,-8.6094,-8.6094,-8.6094,-8.606,-8.5954,0.0,0.0,0.0,0.0,0.0,0.0,0.0,0.0,0.0,0.0,0.0,0.0,0.0,0.0,0.0,0.0,0.0,0.0,0.0,0.0,0.0,0.0,0.0,0.0,0.0,0.0,0.0,0.0,0.0,0.0,-4.8139,-5.0091,-5.0686,0.0,0.0,0.0,0.0,0.0,0.0,0.0,0.0,0.0,0.0,0.0,0.0,0.0,0.0,0.0,0.0,-5.1977,-5.2637,-5.3482,-5.4032,0.0,0.0,0.0,0.0,0.0,-5.2013,-5.2601,0.0,0.0,0.0,0.0,0.0,0.0,0.0,0.0,0.0,0.0,0.0,0.0,0.0,0.0,0.0,0.0,0.0,0.0,0.0,-8.0698,0.0,-8.3009,-8.1904,-8.3122,-8.3828,-8.3378,-8.3876,-8.4228,-8.4325,-8.4828,-8.5399,-8.606,-8.6094,-8.6094,-8.6094,-8.6094,-8.6094,-8.6094,-8.6094,-8.6094,-8.6094,-8.6094,-8.6094,-8.6094,-8.6094,-8.6094,-8.6094,-8.6094,-8.6094,-8.6094,-8.6094,-8.6094,-8.6094,-8.6094,-8.5737,-8.5162,0.0,0.0,0.0,0.0,0.0,0.0,0.0,0.0,0.0,0.0,0.0,0.0,0.0,0.0,0.0,0.0,0.0,0.0,0.0,0.0,0.0,0.0,0.0,0.0,0.0,0.0,0.0,0.0,0.0,-4.8206,-4.9729,-5.0744,-5.0935,-5.0416,0.0,0.0,0.0,0.0,0.0,0.0,0.0,0.0,0.0,0.0,0.0,0.0,0.0,0.0,0.0,0.0,-5.1242,-5.1977,-5.2344,0.0,0.0,0.0,0.0,0.0,-5.1353,-5.194,0.0,0.0,0.0,0.0,0.0,0.0,0.0,0.0,0.0,0.0,0.0,0.0,0.0,0.0,0.0,0.0,-7.4331,-7.5336,-7.6473,0.0,0.0,-8.1233,-8.1288,-8.1995,-8.2511,-8.2671,-8.3303,-8.3824,-8.4179,-8.4785,-8.5399,-8.606,-8.6094,-8.6094,-8.6094,-8.6094,-8.6094,-8.6094,-8.6094,-8.6094,-8.6094,-8.6094,-8.6094,-8.6094,-8.6094,-8.6094,-8.6094,-8.6094,-8.6094,-8.6094,-8.6094,-8.6094,-8.606,-8.57,-8.5162,-8.456,0.0,0.0,0.0,0.0,0.0,0.0,0.0,0.0,0.0,0.0,0.0,0.0,0.0,0.0,0.0,0.0,0.0,0.0,0.0,0.0,0.0,0.0,0.0,0.0,0.0,0.0,0.0,-4.621,-4.8071,-4.9999,-5.1995,-5.1826,-5.1554,0.0,0.0,0.0,0.0,0.0,0.0,0.0,0.0,0.0,0.0,0.0,0.0,0.0,0.0,0.0,0.0,0.0,0.0,0.0,0.0,0.0,0.0,-5.0472,-5.0949,-5.1316,-5.0912,-5.1389,-5.2197,0.0,0.0,0.0,0.0,0.0,0.0,0.0,0.0,0.0,0.0,0.0,0.0,0.0,0.0,-7.2422,-7.4258,-7.5175,-7.641,-7.8431,-7.9265,-8.021,-8.1612,-8.1723,-8.1981,-8.261,-8.3266,-8.3876,-8.4372,-8.4805,-8.536,-8.6094,-8.5709,-8.5709,-8.6094,-8.5901,-8.5901,-8.6094,-8.6094,-8.6094,-8.6094,-8.5901,-8.594,-8.6094,-8.5723,-8.5692,-8.5846,-8.5654,-8.5692,-8.5881,-8.5829,-8.5834,-8.5775,-8.4957,-8.4335,-8.3928,0.0,0.0,0.0,0.0,0.0,0.0,0.0,0.0,0.0,0.0,0.0,0.0,0.0,0.0,0.0,0.0,0.0,0.0,0.0,0.0,0.0,0.0,0.0,0.0,0.0,-4.4722,-4.621,-4.7767,-5.0608,-5.2807,-5.4329,-5.3653,-5.2894,-5.1952,0.0,0.0,0.0,0.0,0.0,0.0,0.0,0.0,0.0,0.0,0.0,0.0,0.0,0.0,0.0,0.0,0.0,0.0,0.0,0.0,-4.8636,-4.9444,-4.9701,-4.9921,-5.0618,-5.1389,-5.2197,-5.3004,0.0,0.0,0.0,0.0,0.0,0.0,0.0,0.0,0.0,0.0,0.0,0.0,0.0,-7.7635,-8.0057,0.0,-8.1881,-8.2681,-8.2834,-8.3191,-8.3903,-8.3954,-8.3992,-8.4067,-8.4605,-8.4957,-8.4999,-8.4974,-8.5291,-8.6055,-8.4593,-8.4516,-8.6094,-8.5363,-8.5363,-8.6094,-8.6094,-8.6094,-8.6055,-8.5324,-8.5401,-8.6022,-8.4672,-8.4475,-8.5085,-8.436,-8.4475,-8.5166,-8.504,-8.5049,-8.4999,-8.3772,-8.3303,-8.3189,0.0,0.0,0.0,0.0,0.0,0.0,0.0,0.0,0.0,0.0,0.0,0.0,0.0,0.0,0.0,0.0,0.0,0.0,0.0,0.0,0.0,0.0,0.0,-4.3842,-4.4147,-4.5602,-4.7564,-4.9965,-5.2976,-5.4499,-5.4566,-5.3382,0.0,0.0,0.0,0.0,0.0,0.0,0.0,0.0,0.0,0.0,0.0,0.0,0.0,0.0,0.0,0.0,0.0,0.0,-4.9114,-4.9077,-4.8857,-4.8563,-4.8489,-4.9334,-4.9958,-5.0398,-5.0729,-5.1756,-5.2821,-5.3115,0.0,0.0,0.0,0.0,0.0,0.0,0.0,0.0,0.0,0.0,0.0,0.0,-7.5799,-7.9543,-8.1452,-8.2338,-8.2876,-8.3189,-8.3597,-8.3928,-8.4179,-8.4179,-8.4179,-8.4179,-8.474,-8.5121,-8.5121,-8.5468,-8.5555,-8.5363,-8.4747,-8.4439,-8.4555,-8.4247,-8.4247,-8.4555,-8.5593,-8.5555,-8.4555,-8.4786,-8.4786,-8.4522,-8.4098,-8.4053,-8.4279,-8.3557,-8.3802,-8.4484,-8.3872,-8.3756,-8.3801,-8.2817,-8.2527,-8.256,0.0,0.0,0.0,0.0,0.0,0.0,0.0,0.0,0.0,0.0,0.0,0.0,0.0,0.0,0.0,0.0,0.0,0.0,0.0,0.0,0.0,0.0,0.0,-4.3978,-4.4215,-4.5906,-4.824,-5.1217,-5.4228,-5.5209,-5.4228,0.0,0.0,0.0,0.0,0.0,0.0,0.0,0.0,0.0,0.0,0.0,0.0,0.0,0.0,0.0,0.0,0.0,0.0,0.0,-4.9958,-4.9811,-4.8967,-4.871,-4.8783,-4.9077,-4.9774,-5.0362,-5.0105,-5.1206,0.0,0.0,0.0,0.0,0.0,0.0,0.0,0.0,0.0,0.0,0.0,0.0,0.0,0.0,-7.69,-8.0057,-8.1929,-8.2793,-8.3303,-8.3488,-8.408,-8.456,-8.4778,-8.4823,-8.4708,-8.4442,-8.5047,-8.5284,-8.5054,-8.5462,-8.5478,-8.4939,-8.4362,-8.3939,-8.3593,-8.3324,-8.317,-8.3208,-8.4632,-8.4709,-8.3593,-8.3939,-8.3797,-8.3281,-8.2985,-8.2836,-8.2847,-8.212,-8.2297,-8.2971,-8.2435,-8.2473,-8.2742,-8.1933,-8.192,-8.2186,0.0,0.0,0.0,0.0,0.0,0.0,0.0,0.0,0.0,0.0,0.0,0.0,0.0,0.0,0.0,0.0,0.0,0.0,0.0,0.0,0.0,0.0,0.0,-4.2625,-4.3369,-4.5635,-4.824,-5.1217,-5.4228,-5.4938,-5.345,-5.2672,0.0,0.0,0.0,0.0,0.0,0.0,0.0,0.0,0.0,0.0,0.0,0.0,0.0,0.0,0.0,0.0,0.0,0.0,-5.0802,-5.0655,-4.9848,-4.9591,-4.9444,-4.86,-4.893,-4.9407,-4.86,-4.9554,0.0,0.0,0.0,0.0,0.0,0.0,0.0,0.0,0.0,-6.776,-6.7724,0.0,0.0,-7.3046,-7.646,-7.9433,-8.1856,-8.2793,-8.3433,-8.4129,-8.474,-8.536,-8.606,-8.6094,-8.5747,-8.4978,-8.5632,-8.5747,-8.4939,-8.4901,-8.4901,-8.4901,-8.3208,-8.2708,-8.3555,-8.2708,-8.2285,-8.2285,-8.317,-8.3555,-8.3555,-8.267,-8.2438,-8.2604,-8.1097,-8.0543,-8.0711,-7.9874,-7.9889,-8.0509,-8.0667,-8.1289,-8.1884,-8.1255,-8.1489,-8.2186,0.0,0.0,0.0,0.0,0.0,0.0,0.0,0.0,0.0,0.0,0.0,0.0,0.0,0.0,0.0,0.0,0.0,0.0,0.0,0.0,0.0,0.0,0.0,0.0,0.0,0.0,-4.7733,-5.1217,-5.2638,-5.257,0.0,0.0,0.0,-4.9964,0.0,0.0,0.0,0.0,0.0,0.0,0.0,0.0,0.0,0.0,0.0,0.0,0.0,0.0,0.0,0.0,0.0,0.0,-5.0692,-5.0435,-5.0508,-5.0802,-5.0692,-5.0618,-5.1499,0.0,0.0,0.0,0.0,0.0,0.0,0.0,0.0,0.0,0.0,-7.1725,-7.1174,0.0,0.0,-7.4368,-7.7304,-8.0272,-8.2594,-8.3488,-8.4129,-8.474,-8.5399,-8.5881,-8.6094,-8.5593,-8.5401,-8.5709,-8.4863,-8.4516,-8.4901,-8.4324,-8.3708,-8.3093,-8.2554,-8.2131,-8.1823,-8.1593,-8.1477,-8.1477,-8.1708,-8.1823,-8.1862,-8.217,-8.1785,-8.0848,-8.0522,-8.0205,-7.9856,-7.9749,-7.9482,-7.92,-7.9261,-8.01,-8.1181,-8.0478,-8.1012,-8.2186,0.0,0.0,0.0,0.0,0.0,0.0,0.0,0.0,0.0,0.0,0.0,0.0,0.0,0.0,0.0,0.0,0.0,0.0,0.0,0.0,0.0,0.0,0.0,0.0,0.0,-4.4316,-4.6515,0.0,0.0,0.0,0.0,0.0,0.0,-4.9492,0.0,-5.107,0.0,0.0,0.0,0.0,0.0,0.0,0.0,0.0,0.0,0.0,0.0,0.0,0.0,0.0,0.0,0.0,-5.1536,-5.1499,-5.172,-5.1573,-5.1169,-5.0949,-5.1573,0.0,0.0,0.0,0.0,0.0,0.0,0.0,0.0,0.0,0.0,-7.5102,-7.4955,-7.4918,0.0,-7.6644,-7.8222,-8.0112,-8.2367,-8.3284,-8.389,-8.4542,-8.524,-8.5632,-8.5632,-8.4863,-8.4439,-8.4593,-8.3978,-8.367,-8.3862,-8.3708,-8.3208,-8.2324,-8.2285,-8.19,-8.1093,-8.1093,-8.1093,-8.1093,-8.1093,-8.1093,-8.1131,-8.1593,-8.1068,-7.9723,-7.9341,-7.8962,-7.8623,-7.8738,-7.8516,-7.8075,-7.8075,-7.9066,-8.0461,-7.9984,-8.0791,-8.2186,0.0,0.0,0.0,0.0,0.0,0.0,0.0,0.0,0.0,0.0,0.0,0.0,0.0,0.0,0.0,0.0,0.0,0.0,0.0,0.0,0.0,0.0,0.0,0.0,0.0,0.0,0.0,0.0,0.0,0.0,0.0,0.0,-5.0763,-5.0351,0.0,-5.3063,0.0,0.0,0.0,0.0,0.0,0.0,0.0,0.0,0.0,0.0,0.0,0.0,0.0,0.0,0.0,0.0,-5.2344,-5.2674,-5.3041,-5.1573,-5.1022,-5.0802,0.0,0.0,0.0,0.0,0.0,0.0,0.0,0.0,0.0,0.0,0.0,-7.7965,-7.8699,-7.6974,-7.6423,-7.9323,-7.9176,-7.9449,-8.1568,-8.2383,-8.3066,-8.3786,-8.4432,-8.4786,-8.4786,-8.3978,-8.317,-8.2477,-8.3016,-8.3054,-8.2324,-8.2978,-8.3016,-8.2208,-8.217,-8.1785,-8.0977,-8.1054,-8.1054,-8.0977,-8.1054,-8.1054,-8.0977,-8.1023,-8.0277,-7.8945,-7.7661,-7.7157,-7.7194,-7.7194,-7.7268,-7.7304,-7.7304,-7.8332,-7.98,-7.98,-8.0791,-8.2186,0.0,0.0,0.0,0.0,0.0,0.0,0.0,0.0,0.0,0.0,0.0,0.0,0.0,0.0,0.0,0.0,0.0,0.0,0.0,0.0,0.0,0.0,0.0,0.0,0.0,0.0,0.0,0.0,0.0,0.0,0.0,0.0,0.0,-5.1891,0.0,-5.2497,0.0,0.0,0.0,0.0,0.0,0.0,0.0,0.0,0.0,0.0,0.0,0.0,0.0,0.0,0.0,0.0,-5.3004,-5.3482,-5.4069,-5.3739,-5.2747,-5.2123,0.0,0.0,0.0,0.0,0.0,0.0,0.0,0.0,0.0,0.0,0.0,-8.1012,-8.0571,-8.0057,-7.9727,-7.9764,-7.9653,-8.0036,-8.1519,-8.1856,-8.2368,-8.3512,-8.3759,-8.3862,-8.3862,-8.3093,-8.2785,-8.3285,-8.2285,-8.1823,-8.2285,-8.1862,-8.1554,-8.1362,-8.1362,-8.0939,-8.0092,-8.0746,-8.0746,-8.0092,-8.0785,-8.0746,-8.0092,-8.0228,-7.9301,-7.7475,-7.6027,-7.5763,-7.635,-7.635,-7.6754,-7.7304,-7.7304,-7.8332,-7.98,-7.98,-8.0791,-8.2186,0.0,0.0,0.0,0.0,0.0,0.0,0.0,0.0,0.0,0.0,0.0,0.0,0.0,0.0,0.0,0.0,0.0,0.0,0.0,0.0,0.0,0.0,0.0,0.0,0.0,0.0,0.0,0.0,0.0,0.0,0.0,0.0,0.0,-5.1759,0.0,-5.3478,0.0,0.0,0.0,0.0,0.0,0.0,0.0,0.0,0.0,0.0,0.0,0.0,0.0,0.0,0.0,0.0,0.0,0.0,-5.4326,-5.3959,-5.3225,-5.2931,0.0,0.0,0.0,0.0,0.0,0.0,0.0,0.0,0.0,0.0,-8.0167,-8.1048,-8.1012,-8.0681,-8.0277,-7.9874,-7.947,-7.9653,-8.0892,-8.1122,-8.1577,-8.2842,-8.2978,-8.2978,-8.2978,-8.2208,-8.1747,-8.1785,-8.1362,-8.1093,-8.1093,-8.0708,-8.0477,-8.0477,-8.0054,-7.9631,-7.9169,-7.9631,-7.9631,-7.9169,-7.9631,-7.9292,-7.8332,-7.844,-7.7764,-7.6483,-7.5379,-7.5139,-7.5579,-7.5946,-7.635,-7.679,-7.7157,-7.8112,-7.925,-7.9653,-8.0571,-8.1672,0.0,0.0,0.0,0.0,0.0,0.0,0.0,0.0,0.0,0.0,0.0,0.0,0.0,0.0,0.0,0.0,0.0,0.0,0.0,0.0,0.0,0.0,0.0,0.0,0.0,0.0,0.0,0.0,0.0,0.0,0.0,0.0,0.0,-5.1576,0.0,0.0,0.0,0.0,0.0,0.0,0.0,0.0,0.0,0.0,0.0,0.0,0.0,0.0,0.0,0.0,0.0,0.0,0.0,0.0,-5.4289,-5.3592,-5.3225,-5.3225,0.0,0.0,0.0,0.0,0.0,0.0,0.0,0.0,0.0,0.0,-7.958,-7.9984,-8.0681,-8.0131,-7.9543,-7.9396,-7.8699,-7.8581,-7.9838,-8.0028,-8.052,-8.1727,-8.2016,-8.2016,-8.1862,-8.14,-8.0746,-7.9862,-8.0592,-8.0669,-7.9631,-7.9708,-7.9746,-7.9592,-7.8861,-7.8438,-7.8284,-7.8438,-7.8438,-7.8284,-7.8284,-7.7673,-7.6482,-7.6368,-7.6037,-7.5506,-7.4806,-7.4588,-7.4735,-7.5395,-7.5763,-7.5983,-7.679,-7.7635,-7.8479,-7.9433,-8.0314,-8.1122,0.0,0.0,0.0,0.0,0.0,0.0,0.0,0.0,0.0,0.0,0.0,0.0,0.0,0.0,0.0,0.0,0.0,0.0,0.0,0.0,0.0,0.0,0.0,0.0,0.0,0.0,0.0,0.0,0.0,0.0,0.0,0.0,0.0,-5.2978,0.0,0.0,0.0,0.0,0.0,0.0,0.0,0.0,0.0,0.0,0.0,0.0,0.0,0.0,0.0,0.0,-5.3225,0.0,0.0,0.0,-5.4363,-5.4289,-5.3261,0.0,0.0,0.0,0.0,0.0,0.0,0.0,0.0,0.0,0.0,0.0,-7.8772,-7.98,-7.991,-7.9286,-7.8516,-7.7781,-7.6974,-7.6844,-7.8154,-7.8293,-7.877,-7.9998,-8.0785,-8.0977,-8.0208,-8.0708,-8.0746,-7.9862,-8.0592,-8.04,-7.8746,-7.94,-7.9438,-7.8707,-7.8554,-7.8169,-7.7476,-7.813,-7.813,-7.7438,-7.7438,-7.6832,-7.5658,-7.4935,-7.4361,-7.3955,-7.3178,-7.323,-7.3854,-7.3964,-7.4441,-7.5139,-7.5946,-7.6754,-7.7671,-7.9213,-8.0314,-8.1122,0.0,0.0,0.0,0.0,0.0,0.0,0.0,0.0,0.0,0.0,0.0,0.0,0.0,0.0,0.0,0.0,0.0,0.0,0.0,0.0,0.0,0.0,0.0,0.0,0.0,0.0,0.0,0.0,0.0,0.0,0.0,-5.1679,-5.2522,0.0,0.0,0.0,0.0,0.0,0.0,0.0,0.0,0.0,0.0,0.0,0.0,0.0,0.0,0.0,0.0,0.0,0.0,-5.3812,-5.3335,0.0,0.0,0.0,0.0,0.0,0.0,0.0,0.0,0.0,0.0,0.0,0.0,0.0,0.0,-7.5799,-7.6533,-7.7341,-7.8222,-7.7378,-7.6423,-7.6019,-7.5933,-7.6266,-7.7137,-7.7998,-7.8866,-7.9722,-8.0554,-8.0939,-8.0554,-8.0439,-8.0015,-7.9131,-7.9438,-7.9092,-7.79,-7.8169,-7.8207,-7.7823,-7.7361,-7.6938,-7.6592,-7.6899,-7.6899,-7.6553,-7.6553,-7.5685,-7.4067,-7.4218,-7.3826,-7.301,-7.2642,-7.2716,-7.3046,-7.3487,-7.3891,-7.4368,-7.5616,-7.6313,-7.6827,-7.8516,-7.936,-7.9837,0.0,0.0,0.0,0.0,0.0,0.0,0.0,0.0,0.0,0.0,0.0,0.0,0.0,0.0,0.0,0.0,0.0,0.0,0.0,0.0,0.0,0.0,0.0,0.0,0.0,0.0,0.0,0.0,0.0,0.0,-5.2013,-5.3081,-5.4,0.0,-5.3298,0.0,0.0,0.0,0.0,0.0,0.0,0.0,0.0,0.0,0.0,0.0,0.0,0.0,0.0,0.0,0.0,0.0,-5.3408,-5.3078,0.0,0.0,0.0,0.0,0.0,0.0,0.0,0.0,0.0,0.0,0.0,0.0,-7.2753,0.0,-7.4147,-7.4661,-7.5873,-7.5432,-7.4904,-7.4822,-7.5179,-7.5733,-7.6495,-7.7566,-7.8555,-7.9377,-8.0246,-8.0785,-8.0785,-8.04,-7.9669,-7.8592,-7.8707,-7.8284,-7.7053,-7.7169,-7.7207,-7.6976,-7.6322,-7.5899,-7.5668,-7.5476,-7.5476,-7.5668,-7.5311,-7.4396,-7.301,-7.3559,-7.3193,-7.2202,-7.2422,-7.2496,-7.2569,-7.3156,-7.3377,-7.356,-7.5175,-7.5799,-7.6019,-7.7892,-7.8589,-7.8846,0.0,0.0,0.0,0.0,0.0,0.0,0.0,0.0,0.0,0.0,0.0,0.0,0.0,0.0,0.0,0.0,0.0,0.0,0.0,0.0,0.0,0.0,0.0,0.0,0.0,0.0,0.0,0.0,0.0,0.0,-5.2013,-5.3586,-5.4759,-5.5537,-5.4796,-5.4471,-5.4484,0.0,0.0,0.0,0.0,0.0,0.0,0.0,0.0,0.0,0.0,0.0,0.0,0.0,0.0,0.0,0.0,0.0,0.0,0.0,0.0,0.0,0.0,0.0,0.0,0.0,0.0,0.0,0.0,0.0,0.0,-7.1174,-7.2092,-7.2642,-7.2753,-7.3927,-7.4859,-7.4635,-7.4644,-7.5068,-7.6236,-7.6502,-7.7026,-7.8408,-7.9323,-7.9862,-7.9862,-8.0554,-8.0323,-7.8631,-7.9285,-7.8669,-7.6207,-7.6861,-7.6899,-7.6092,-7.6015,-7.5592,-7.4784,-7.4014,-7.4014,-7.4745,-7.3418,-7.2851,-7.2973,-7.2501,-7.1917,-7.1431,-7.2165,-7.2496,-7.2496,-7.2569,-7.2569,-7.2716,-7.4331,-7.4955,-7.5285,-7.7708,-7.8589,-7.8846,0.0,0.0,0.0,0.0,0.0,0.0,0.0,0.0,0.0,0.0,0.0,0.0,0.0,-4.281,-4.3497,-4.3497,0.0,0.0,0.0,0.0,0.0,0.0,0.0,0.0,0.0,0.0,0.0,0.0,0.0,-4.9848,-5.1279,-5.3408,-5.4289,-5.4026,-5.3842,-5.4012,-5.4419,-5.3096,0.0,0.0,0.0,0.0,0.0,0.0,0.0,0.0,0.0,0.0,0.0,0.0,0.0,0.0,0.0,0.0,0.0,0.0,0.0,0.0,0.0,0.0,0.0,0.0,0.0,0.0,0.0,0.0,-6.5448,-6.7136,-6.8091,-6.8972,-7.0,-7.1505,-7.2834,-7.3699,-7.3699,-7.4023,-7.5398,-7.6403,-7.7361,-7.84,-7.8784,-7.94,-8.0516,-7.99,-7.9169,-7.8554,-7.8323,-7.7553,-7.6092,-7.5784,-7.5745,-7.5976,-7.4976,-7.4245,-7.3937,-7.363,-7.3475,-7.3418,-7.2868,-7.2015,-7.0975,-7.1824,-7.1584,-7.0587,-7.1945,-7.2496,-7.2496,-7.2496,-7.2496,-7.2679,-7.4294,-7.4918,-7.5139,-7.7084,-7.7781,-7.8002,0.0,0.0,0.0,0.0,0.0,0.0,0.0,0.0,0.0,0.0,0.0,0.0,0.0,0.0,-4.3795,-4.3981,-4.4162,0.0,0.0,0.0,0.0,0.0,0.0,0.0,0.0,0.0,0.0,0.0,0.0,0.0,0.0,0.0,-5.3188,-5.3182,-5.3271,-5.4009,0.0,0.0,0.0,-5.4567,0.0,0.0,-5.3515,0.0,0.0,0.0,0.0,0.0,0.0,0.0,0.0,0.0,0.0,0.0,0.0,0.0,0.0,0.0,0.0,0.0,0.0,0.0,0.0,0.0,0.0,0.0,-6.1263,-6.2915,-6.4787,-6.6512,-6.7871,-6.9539,-7.122,-7.263,-7.2849,-7.3345,-7.4771,-7.5794,-7.6823,-7.7938,-7.8092,-7.8746,-8.0516,-7.9361,-7.8477,-7.8477,-7.7746,-7.6899,-7.6053,-7.5168,-7.4861,-7.5168,-7.3822,-7.3053,-7.3053,-7.2592,-7.2339,-7.223,-7.156,-7.0701,-6.9825,-7.0995,-7.1004,-7.0183,-7.1798,-7.2496,-7.2496,-7.2496,-7.2496,-7.2679,-7.4294,-7.4918,-7.5102,-7.6717,-7.7304,-7.7561,0.0,0.0,0.0,0.0,0.0,0.0,0.0,0.0,0.0,-4.1102,0.0,0.0,0.0,0.0,0.0,-4.4993,-4.5621,-4.5957,-4.5957,-4.5957,0.0,0.0,0.0,0.0,0.0,0.0,0.0,0.0,0.0,0.0,0.0,0.0,-5.161,0.0,-5.3188,-5.4509,-5.663,0.0,-5.5873,-5.7391,0.0,-5.1682,-5.4319,0.0,0.0,0.0,-5.829,-5.7116,0.0,-5.539,0.0,0.0,0.0,0.0,0.0,0.0,0.0,0.0,0.0,0.0,0.0,0.0,0.0,0.0,-5.3702,0.0,-5.7189,-5.8804,-6.2328,-6.5411,-6.6256,-6.8111,-7.0051,-7.1417,-7.2168,-7.3055,-7.4456,-7.4668,-7.5322,-7.7053,-7.7246,-7.79,-7.9592,-7.8977,-7.8438,-7.8438,-7.7707,-7.6861,-7.6015,-7.513,-7.4284,-7.3437,-7.2629,-7.2168,-7.2168,-7.0783,-7.0514,-7.1319,-6.9434,-6.8921,-6.974,-6.9958,-7.0073,-7.0146,-7.1798,-7.2496,-7.2459,-7.2496,-7.2496,-7.2679,-7.4294,-7.4918,-7.5102,-7.6717,-7.7304,-7.7561,0.0,0.0,0.0,0.0,0.0,0.0,0.0,0.0,0.0,0.0,0.0,0.0,-4.3904,-4.497,-4.5904,-4.6608,-4.6819,-4.7143,-4.7607,-4.7645,-4.7645,-4.7645,-4.6874,0.0,0.0,0.0,0.0,0.0,0.0,0.0,0.0,0.0,0.0,0.0,-5.2674,-5.3885,-5.5023,-5.4005,0.0,0.0,-5.2568,-5.3049,0.0,0.0,0.0,0.0,0.0,-5.6895,-5.6271,0.0,-5.5794,-5.3555,0.0,0.0,0.0,0.0,0.0,0.0,-4.9077,0.0,0.0,0.0,0.0,0.0,0.0,0.0,-5.5354,-5.6381,-5.9355,-6.2181,-6.3576,-6.5411,-6.7078,-6.8027,-7.0156,-7.2248,-7.3649,-7.3822,-7.4476,-7.6169,-7.5784,-7.6322,-7.8631,-7.813,-7.763,-7.763,-7.6823,-7.5976,-7.513,-7.4284,-7.3168,-7.1668,-7.2014,-7.1898,-7.1283,-7.0477,-7.0035,-6.9852,-6.8915,-6.842,-6.8336,-6.9559,-6.9779,-6.9339,-7.1541,-7.2165,-7.1688,-7.2275,-7.2496,-7.2679,-7.4294,-7.4918,-7.5102,-7.6717,-7.7304,-7.7488,0.0,0.0,0.0,0.0,0.0,0.0,0.0,0.0,0.0,0.0,0.0,0.0,-4.5206,-4.6274,-4.7046,-4.7452,-4.7966,-4.8446,-4.8857,-4.9179,-4.9069,-4.8466,-4.7951,-4.7248,0.0,0.0,0.0,0.0,0.0,0.0,0.0,-4.9517,0.0,0.0,0.0,0.0,0.0,0.0,0.0,0.0,-5.3399,0.0,0.0,-5.5665,-5.6254,0.0,0.0,0.0,-5.8767,-5.8584,-5.6748,0.0,0.0,0.0,0.0,0.0,0.0,0.0,0.0,0.0,0.0,0.0,0.0,0.0,-4.9187,-5.1059,-5.2931,-5.3041,-5.5785,-5.8755,-6.0674,-6.2813,-6.4664,-6.5874,-6.8041,-7.0256,-7.214,-7.2745,-7.3476,-7.4784,-7.4514,-7.4899,-7.6746,-7.6207,-7.5861,-7.6207,-7.5438,-7.4591,-7.3707,-7.3206,-7.2168,-7.0437,-7.0898,-7.0898,-7.0398,-6.9594,-6.9247,-6.9313,-6.8558,-6.8033,-6.7724,-6.9009,-6.9339,-6.9009,-7.1101,-7.1725,-7.1358,-7.2165,-7.2496,-7.2679,-7.4294,-7.4918,-7.5102,-7.6717,-7.7304,-7.7451,0.0,0.0,0.0,0.0,0.0,0.0,0.0,0.0,0.0,0.0,-4.4384,-4.5466,-4.6887,-4.7535,-4.7893,-4.8072,-4.9167,-4.9892,-4.9938,-5.0575,-5.0404,-4.9177,-4.8812,-4.7787,-4.5904,-4.5623,-4.6173,-4.7551,-4.6823,-4.7916,-5.0524,-4.9911,-5.0428,-5.1894,0.0,0.0,0.0,0.0,0.0,-5.6492,-5.4436,-5.5537,0.0,0.0,-5.9355,-6.086,-6.2401,-6.2475,-6.163,-6.0015,-5.6969,0.0,0.0,0.0,0.0,0.0,-5.0729,0.0,0.0,0.0,0.0,0.0,0.0,0.0,-4.882,-4.9738,-5.0692,-4.9884,-5.2523,-5.5616,-5.7813,-6.0297,-6.2497,-6.4045,-6.5656,-6.759,-7.0244,-7.1283,-7.2129,-7.3091,-7.3129,-7.3476,-7.4476,-7.3822,-7.3707,-7.4514,-7.3707,-7.2783,-7.1822,-7.1717,-7.1025,-6.959,-6.9525,-6.9459,-6.9459,-6.8484,-6.8367,-6.9039,-6.8124,-6.7687,-6.7724,-6.8641,-6.8972,-6.9009,-7.0624,-7.1321,-7.1358,-7.2092,-7.2422,-7.2679,-7.4294,-7.4918,-7.5102,-7.6717,-7.7304,-7.7414,0.0,0.0,0.0,0.0,0.0,0.0,0.0,0.0,0.0,0.0,-4.6041,-4.7597,-4.8477,-4.8666,-4.9231,-5.0426,-5.0699,-5.103,-5.1597,-5.1772,-5.1964,-5.2285,-5.0581,-4.9697,-4.979,-4.859,-4.8147,-4.8471,-4.828,-4.8519,-4.9126,-4.9496,-5.0154,-5.114,0.0,0.0,0.0,0.0,0.0,-5.5831,-5.6051,0.0,-6.0896,-6.0896,-6.1484,-6.2475,-6.3466,-6.3759,-6.3356,-6.1704,-5.9758,-5.7519,0.0,0.0,0.0,-5.0802,0.0,0.0,0.0,0.0,0.0,0.0,-5.1389,0.0,-4.9554,-5.0582,-5.1536,-5.0729,-5.2684,-5.4769,-5.554,-5.7561,-5.9246,-5.99,-6.2284,-6.5166,-6.8436,-6.9052,-6.9706,-7.1245,-7.086,-7.1321,-7.3514,-7.2976,-7.2822,-7.3668,-7.2283,-7.0744,-6.9206,-6.8731,-6.8548,-6.8641,-6.8233,-6.8012,-6.8012,-6.7996,-6.7898,-6.7688,-6.77,-6.7687,-6.7724,-6.9192,-6.9522,-6.9009,-7.0624,-7.1321,-7.1321,-7.1468,-7.1945,-7.2679,-7.4294,-7.4918,-7.5102,-7.6717,-7.7304,-7.7341,0.0,0.0,0.0,0.0,0.0,0.0,0.0,0.0,0.0,-4.6109,-4.7868,-4.9154,-4.9492,-4.956,-4.9712,-5.0043,-5.0389,-5.0716,-5.0998,-5.1393,-5.1415,-5.1106,-5.0364,-4.959,-4.8872,-4.8499,-4.8444,-4.8785,-4.84,-4.8977,-5.0433,-5.0773,-5.0736,-5.0569,0.0,0.0,0.0,0.0,-5.6051,-5.6822,-5.7226,0.0,-6.0529,-6.1741,-6.2732,-6.3613,-6.4861,-6.5301,-6.4971,-6.2915,-6.1667,0.0,-5.6271,-5.473,-5.4142,0.0,-5.2307,-5.2087,0.0,0.0,0.0,-5.3004,-5.2601,0.0,0.0,-5.1426,-5.1756,-5.0986,-5.1885,-5.3045,-5.3684,-5.4995,-5.6215,-5.6872,-5.8757,-6.1204,-6.4205,-6.609,-6.7628,-6.8859,-6.8629,-6.909,-7.0783,-7.0552,-7.0475,-7.0937,-7.0167,-6.9283,-6.8436,-6.7906,-6.7522,-6.7429,-6.7133,-6.6869,-6.6625,-6.7127,-6.7368,-6.7319,-6.7613,-6.7687,-6.7724,-6.8935,-6.9045,-6.8421,-7.044,-7.1101,-7.077,-7.1578,-7.2165,-7.2606,-7.3817,-7.4294,-7.4515,-7.613,-7.6717,-7.6754,0.0,0.0,0.0,0.0,0.0,0.0,0.0,0.0,0.0,0.0,0.0,-5.0405,-5.071,0.0,0.0,0.0,-5.0292,-5.0287,-5.1014,0.0,0.0,-4.9164,-4.9561,-4.8987,-4.7223,-4.7793,-4.8439,-4.9114,-4.8299,-4.9361,-5.2032,-5.1922,-5.1464,0.0,0.0,0.0,0.0,0.0,0.0,-5.7593,0.0,-5.8951,-5.9905,-6.1998,-6.3429,-6.453,-6.6145,-6.6623,-6.6182,-6.4016,-6.3209,-6.2328,-5.807,-5.7336,0.0,0.0,0.0,0.0,0.0,0.0,0.0,0.0,0.0,-5.3555,0.0,0.0,0.0,-5.0986,-5.0895,0.0,0.0,0.0,0.0,-5.3949,-5.5287,-5.699,-5.898,-6.1747,-6.4424,-6.6628,-6.6282,-6.6551,-6.8244,-6.8129,-6.7936,-6.7936,-6.7782,-6.7667,-6.7667,-6.724,-6.6783,-6.633,-6.5998,-6.572,-6.5389,-6.6063,-6.6598,-6.6908,-6.7288,-6.754,-6.7724,-6.8531,-6.8568,-6.8054,-7.0146,-7.0807,-7.044,-7.1725,-7.2349,-7.2569,-7.3377,-7.3707,-7.3891,-7.5322,-7.5983,-7.6203,-4.2286,-4.2895,0.0,0.0,0.0,0.0,0.0,0.0,0.0,0.0,0.0,0.0,0.0,0.0,0.0,0.0,0.0,0.0,-5.4758,0.0,0.0,0.0,-4.9401,-4.8967,-4.8674,-4.8805,-4.9249,-4.9921,-4.9209,-4.9712,-5.1332,-5.1255,-5.1863,0.0,-5.3354,0.0,0.0,0.0,-5.6345,0.0,-5.8988,-6.0603,0.0,-6.2438,-6.3796,-6.5375,-6.699,-6.71,-6.6366,0.0,-6.453,-6.3576,0.0,-5.9575,-5.8107,-5.8547,0.0,0.0,0.0,0.0,0.0,0.0,-5.539,-5.5611,-5.2674,0.0,-5.2637,-5.1132,0.0,-4.9896,0.0,0.0,0.0,-5.027,-5.2172,-5.3708,-5.3645,-5.4562,-5.7915,-6.518,-6.3358,-6.332,-6.7975,-6.7051,-6.6167,-6.6167,-6.5474,-6.5051,-6.5051,-6.4856,-6.5133,-6.5935,-6.4632,-6.4128,-6.4521,-6.487,-6.519,-6.5551,-6.6308,-6.699,-6.7724,-6.8531,-6.8862,-6.8825,-6.9816,-7.0587,-7.1211,-7.1358,-7.1872,-7.2569,-7.3377,-7.3707,-7.3817,-7.4698,-7.5506,-7.613,-4.2219,-4.3267,0.0,0.0,0.0,0.0,0.0,0.0,0.0,0.0,0.0,0.0,0.0,0.0,0.0,0.0,0.0,-5.3195,0.0,0.0,0.0,0.0,0.0,0.0,-5.0241,-4.9791,-4.9918,-5.0654,-5.0341,-5.0967,-5.2462,-5.291,-5.2993,0.0,-5.4044,0.0,-5.4947,0.0,-5.7152,0.0,0.0,0.0,0.0,-6.1814,-6.3429,-6.5521,-6.71,-6.7467,-6.7063,-6.6256,-6.6072,-6.5815,-6.3686,0.0,0.0,-5.9685,0.0,0.0,0.0,0.0,0.0,-5.6088,-5.6308,-5.6345,-5.4509,-5.3628,-5.3004,-5.2344,0.0,0.0,0.0,0.0,0.0,0.0,-5.0967,-5.1895,-5.2247,-5.2172,-5.4063,-5.935,-5.8525,-5.8732,-6.19,-6.1761,-6.1473,-6.1473,-6.205,-6.2397,-6.2397,-6.3193,-6.3835,-6.4247,-6.3873,-6.3587,-6.3461,-6.4369,-6.4726,-6.4604,-6.5888,-6.6659,-6.7026,-6.8311,-6.8898,-6.8972,-7.0257,-7.0991,-7.1358,-7.1798,-7.2202,-7.2532,-7.2863,-7.301,-7.3156,-7.4441,-7.5139,-7.5542,-4.2185,0.0,0.0,0.0,0.0,0.0,0.0,0.0,0.0,0.0,0.0,0.0,-5.8462,-5.8199,0.0,0.0,-5.7808,-5.6055,0.0,0.0,-5.2401,0.0,0.0,0.0,0.0,-5.0541,-5.0676,-5.1403,-5.1405,-5.2113,-5.3387,-5.3979,-5.39,-5.335,0.0,-5.4737,-5.449,0.0,0.0,-5.8657,-5.9905,-6.0419,-6.0529,-6.1557,-6.3319,-6.5485,-6.688,-6.7357,-6.732,-6.6953,-6.721,-6.743,-6.5888,-6.5118,-6.431,0.0,0.0,0.0,-5.796,-5.8437,-5.8914,-5.7226,-5.6969,-5.6785,-5.5537,-5.4876,-5.4399,-5.3959,-5.4032,0.0,0.0,0.0,-5.2196,-5.0564,0.0,-5.0815,-5.1086,-5.0478,-5.1395,-5.5274,-5.5656,-5.5995,-5.6878,-5.7276,-5.7497,-5.7588,-5.8596,-5.9317,-5.9585,-6.1283,-6.241,-6.2785,-6.3163,-6.3262,-6.3014,-6.3817,-6.4166,-6.4127,-6.5521,-6.6292,-6.6549,-6.7944,-6.8678,-6.8972,-7.0367,-7.1101,-7.1358,-7.2165,-7.2496,-7.2496,-7.2496,-7.2496,-7.2642,-7.3817,-7.4404,-7.4735,-4.2286,-4.232,0.0,0.0,0.0,0.0,0.0,0.0,0.0,0.0,0.0,0.0,0.0,0.0,0.0,0.0,0.0,-6.0554,-6.2009,0.0,-5.3518,0.0,0.0,-5.1555,0.0,-5.0798,-5.1523,-5.225,-5.2283,-5.2644,-5.3333,-5.3369,-5.4133,-5.5541,-5.3945,-5.4583,-5.6667,-5.6785,-5.6822,-5.7079,-5.9465,-6.0419,-6.0566,0.0,-6.3833,-6.5411,-6.6256,-6.6549,-6.6659,-6.7393,-6.765,-6.7797,-6.8531,-6.7687,-6.6549,-6.721,-6.5742,-6.3686,-6.2805,-6.2622,-6.1741,-5.7776,-5.7409,-5.7336,-5.4987,-5.6198,-5.7409,-5.5831,-5.6124,-5.6198,-5.462,-5.3702,-5.2637,-5.1063,-5.0805,0.0,0.0,-4.8319,-4.9819,-5.5177,-5.6526,-5.6573,-5.5325,-5.5236,-5.5402,-5.5758,-5.5451,-5.5656,-5.6496,-5.8796,-6.0675,-6.1916,-6.2509,-6.3062,-6.3587,-6.311,-6.3246,-6.409,-6.4934,-6.5742,-6.6512,-6.7357,-6.8164,-6.8972,-6.9779,-7.0587,-7.1358,-7.2165,-7.2496,-7.2496,-7.2496,-7.2496,-7.2496,-7.2569,-7.3083,-7.3744,0.0,0.0,0.0,0.0,0.0,0.0,0.0,-5.2056,0.0,0.0,0.0,0.0,0.0,-6.7865,-6.8571,0.0,0.0,-6.5053,-6.4613,-6.1535,0.0,0.0,0.0,-5.4329,0.0,-5.3544,-5.3505,-5.378,-5.4242,-5.4869,-5.562,-5.5603,-5.6171,-5.7167,0.0,-5.5537,0.0,0.0,0.0,0.0,0.0,-6.2181,-6.3576,-6.3025,-6.3503,-6.4677,-6.5999,-6.6843,-6.7393,-6.8238,-6.8495,-6.8641,-6.9449,-6.8972,-6.8054,-6.776,-6.6733,-6.5521,-6.4677,-6.5228,-6.5191,-6.1667,-6.0566,-5.9612,-5.6675,-5.7042,-5.7519,-5.5904,-5.7519,-5.8547,-5.6381,-5.5794,-5.4876,-5.2747,-5.2417,-5.1772,0.0,-4.9027,-4.9105,-5.0636,-5.1072,0.0,-5.1042,-5.0761,-5.0681,-5.0786,-5.1201,-5.2058,-5.3433,-5.6101,-5.8497,-6.0524,-6.1505,-6.2353,-6.3025,-6.2904,-6.2952,-6.3282,-6.464,-6.5448,-6.5742,-6.71,-6.8128,-6.8935,-6.9192,-7.0073,-7.1321,-7.1615,-7.2018,-7.2496,-7.2496,-7.2496,-7.2569,-7.3083,-7.345,-7.3854,-4.3876,0.0,0.0,0.0,0.0,0.0,0.0,0.0,0.0,0.0,-6.4434,0.0,-7.1795,0.0,-7.2183,0.0,-7.1688,-6.9525,-6.7155,-6.5972,0.0,-6.1941,-5.9695,0.0,0.0,-5.6484,-5.575,-5.4864,-5.5931,-5.6418,-5.6381,-5.6675,-5.7079,-5.7519,0.0,-5.6014,-5.6014,0.0,-5.7666,0.0,0.0,-6.2805,0.0,-6.3099,-6.3723,-6.5007,-6.5485,-6.6329,-6.7393,-6.8201,-6.8862,-6.9486,-7.0257,-7.0183,-6.9706,-6.9486,-6.8825,-6.8054,-6.7247,-6.776,-6.7834,-6.4861,-6.3503,-6.2218,-5.9538,-5.9575,-5.9685,-5.807,-5.9391,-6.0346,-5.8804,-5.7593,-5.6308,-5.473,-5.3775,-5.239,0.0,-4.9452,-4.8937,-4.8381,-4.8261,0.0,0.0,-4.8503,-4.8219,-4.7494,-4.8352,-4.9356,-5.0416,-5.3199,-5.5906,-5.8312,-5.9909,-6.1263,-6.2365,-6.2365,-6.2511,-6.2842,-6.42,-6.5007,-6.5338,-6.6659,-6.7871,-6.8898,-6.8898,-6.9816,-7.1321,-7.1321,-7.1798,-7.2496,-7.2496,-7.2496,-7.2606,-7.3377,-7.3891,-7.4294,0.0,0.0,0.0,0.0,-4.758,0.0,0.0,0.0,-6.0848,0.0,-6.8219,-7.2813,-7.4503,-7.5146,-7.5783,-7.6674,-7.5777,-7.3579,-7.006,-7.0451,0.0,0.0,-6.441,-6.2764,-6.0536,-5.9757,-5.8259,-5.5985,-5.7447,-5.7336,-5.5831,-5.6528,-5.6859,-5.6859,-5.6859,0.0,-5.4546,-5.6932,-5.7519,-5.7189,-6.1117,-6.2291,-6.1777,-6.2548,-6.4347,-6.6292,-6.4714,-6.5191,-6.6659,-6.743,-6.8752,-7.022,-7.0991,-7.1321,-7.1578,-7.2349,-7.2055,-7.1321,-7.0513,-7.0257,-6.9706,-6.7283,-6.6072,-6.5044,-6.3356,-6.3686,-6.387,-6.2181,-6.1851,-6.1851,-6.1704,-5.9061,-5.6895,-5.6748,-5.473,-5.2307,-4.9884,-4.9593,-4.9299,-4.8416,-4.8306,0.0,0.0,0.0,-4.7927,-4.5978,-4.6869,0.0,-4.7694,-5.0376,-5.3041,-5.5464,-5.7886,-5.9905,-6.152,-6.1557,-6.1998,-6.2805,-6.3686,-6.453,-6.5338,-6.6145,-6.7357,-6.8862,-6.8898,-6.9816,-7.1248,-7.1284,-7.1798,-7.2496,-7.2496,-7.2569,-7.2716,-7.3413,-7.4221,-7.4918,-4.6244,-4.7124,-4.7936,0.0,-4.8609,-5.0076,0.0,0.0,0.0,0.0,-7.07,-7.4588,-7.718,-7.7054,-7.7302,-7.8694,-7.685,0.0,0.0,0.0,0.0,-7.207,-6.9436,-6.7579,-6.6602,-6.4415,-6.2852,-6.1939,-6.0464,-5.9575,-5.9134,-5.8143,-5.7703,-5.7703,0.0,0.0,-5.4509,-5.6345,-5.7336,-5.7886,-6.0126,-6.1998,-6.3392,-6.2989,-6.4347,-6.6366,-6.5338,-6.6035,-6.7393,-6.7614,-6.8752,-7.0146,-7.033,-7.1651,-7.312,-7.334,-7.367,-7.3817,-7.2973,-7.2789,-7.2202,-6.9779,-6.8568,-6.754,-6.5925,-6.6659,-6.721,-6.5595,-6.5705,-6.5375,-6.2952,-6.0346,-5.7997,-5.6198,-5.4109,-5.2156,-5.0659,-5.0157,-4.9565,-4.8418,-4.8306,-4.8234,0.0,0.0,-4.6465,-4.5904,-4.5616,-4.5989,-4.7169,-4.9706,-5.2197,-5.462,-5.7042,-5.9098,-6.0676,-6.13,-6.1998,-6.2805,-6.3686,-6.453,-6.5338,-6.6145,-6.7063,-6.8017,-6.8641,-6.9486,-7.044,-7.1064,-7.1798,-7.2496,-7.2496,-7.323,-7.4258,-7.3854,-7.4221,-7.4992,-4.7327,0.0,0.0,-4.9424,0.0,0.0,-5.6325,0.0,0.0,-6.6938,-7.1112,0.0,-7.5863,-7.6816,-7.7683,-7.8494,-7.7262,0.0,-7.6929,0.0,0.0,-7.6157,-7.3911,-7.2131,-7.0771,-6.799,0.0,-6.4043,-6.1624,-6.0236,-5.9869,-5.8584,-5.7997,-5.7997,0.0,-5.6859,-5.5023,-5.6271,-5.7483,-5.8657,-6.0272,-6.1741,0.0,-6.2842,-6.4127,-6.5925,-6.5485,-6.6109,-6.721,-6.7577,-6.8752,-7.0146,-7.0513,-7.1798,-7.323,-7.3597,-7.378,-7.3927,-7.4147,-7.4221,-7.3891,-7.2532,-7.1872,-7.1027,-6.9045,-6.9045,-6.9082,-6.7797,-6.7357,-6.6696,-6.5228,-6.2365,-5.9245,-5.6088,-5.4322,-5.2853,-5.1503,-5.1408,0.0,-4.9556,-4.9701,-4.9774,-4.9444,-4.7902,-4.6654,-4.5957,-4.581,-4.614,-4.7058,-4.8783,-5.1169,-5.4289,-5.6418,-5.8437,-6.0382,-6.119,-6.1667,-6.1777,-6.2585,-6.3429,-6.4273,-6.5448,-6.6402,-6.721,-6.8017,-6.9045,-7.0146,-7.0587,-7.1468,-7.2496,-7.2496,-7.3266,-7.4368,-7.4258,-7.4955,-7.5983,0.0,0.0,0.0,0.0,0.0,0.0,0.0,-6.0771,0.0,-6.7083,0.0,-7.3288,-7.3392,-7.5639,-7.7209,-7.752,0.0,-7.699,-7.6886,-7.8231,-7.8853,-7.8531,-7.7655,-7.6249,-7.4189,-7.0985,-6.7847,-6.4954,-6.2099,-6.0309,-5.9501,-5.8474,-5.7997,-5.7997,0.0,0.0,0.0,-5.6308,-5.7446,-5.8914,-6.0713,-6.152,-6.1704,-6.2732,-6.4053,-6.5338,-6.5558,-6.6072,-6.6769,-6.7577,-6.8862,-7.022,-7.1064,-7.1945,-7.2789,-7.3487,-7.3266,-7.312,-7.4404,-7.4845,-7.4845,-7.4661,-7.4735,-7.4331,-7.2129,-7.1064,-7.0367,-6.9669,-6.8164,-6.7136,-6.7724,-6.442,-6.0346,-5.6528,-5.5133,-5.4069,-5.2674,0.0,0.0,0.0,-5.1646,0.0,-5.1169,-4.9517,-4.7865,-4.6471,-4.6948,-4.7278,-4.7278,-4.8049,-5.0215,-5.3959,-5.5757,-5.7813,-6.0236,-6.1043,-6.1153,-6.0566,-6.1263,-6.2034,-6.2879,-6.4567,-6.5742,-6.6549,-6.7467,-6.8715,-7.011,-7.022,-7.1138,-7.2496,-7.2606,-7.3156,-7.3964,-7.4771,-7.6019,-7.7231,0.0,0.0,0.0,0.0,0.0,-6.0068,-6.3158,-6.685,-6.9911,-7.1325,-7.3714,-7.551,-7.619,-7.6028,-7.6707,-7.8608,-7.7046,0.0,0.0,0.0,0.0,-8.0117,-8.0008,-7.9538,-7.8719,-7.4609,-7.1675,-7.0051,-6.4919,-6.1961,-6.1117,-5.8988,-5.7997,-5.7997,0.0,0.0,-5.4656,-5.5464,-5.5978,-5.6492,-5.9428,-6.1006,-6.1851,-6.4053,-6.5044,-6.5485,-6.6806,-6.7357,-6.7614,-6.8421,-6.9302,-7.022,-7.1064,-7.2312,-7.3523,-7.367,-7.4074,-7.4404,-7.4001,-7.4404,-7.4588,-7.3266,-7.3927,-7.4625,-7.3523,-7.3156,-7.301,-7.2899,-7.1064,-6.9302,-6.8788,-6.4787,-6.0713,-5.7997,-5.6345,-5.528,-5.4987,-5.3371,0.0,0.0,-5.2307,-5.2197,-5.2747,-5.0655,-4.9187,-4.8967,-4.8416,-4.8086,-4.8086,-4.8893,-5.0288,-5.2344,-5.462,-5.6969,-5.9391,-6.0236,-6.086,-6.1374,-6.152,-6.2034,-6.2879,-6.4567,-6.5742,-6.6586,-6.8054,-6.9229,-7.0146,-7.0844,-7.1651,-7.2569,-7.323,-7.3964,-7.4808,-7.5579,-7.6497,-7.7304,0.0,0.0,0.0,0.0,0.0,0.0,0.0,-7.0954,-7.316,-7.2053,-7.2768,-7.3578,-7.395,-7.5033,-7.6318,-7.7841,-7.6555,-7.6684,-7.8909,-7.896,-7.9458,-8.0514,-8.116,-8.1099,-8.0461,-7.6282,-7.3398,-7.1945,-6.6256,-6.2842,-6.1557,-5.9979,-5.8804,-5.796,0.0,-5.6969,0.0,-5.6675,-5.7336,-5.8253,-6.0236,-6.1484,-6.2401,-6.4053,-6.4934,-6.5485,-6.6659,-6.7357,-6.7871,-6.9119,-6.9779,-7.0293,-7.1541,-7.2459,-7.3083,-7.3083,-7.334,-7.367,-7.367,-7.3964,-7.4074,-7.3303,-7.3707,-7.4074,-7.3266,-7.3083,-7.3193,-7.3597,-7.2422,-7.0954,-6.9743,-6.6586,-6.3356,-6.0896,-5.8437,-5.6712,-5.6271,-5.484,-5.3995,-5.4399,0.0,-5.3408,-5.3775,-5.238,-5.1242,-5.0875,-5.0068,-4.9407,-4.9003,-4.937,-5.0508,-5.2564,-5.4546,-5.6748,-5.9208,-6.0419,-6.1006,-6.097,-6.141,-6.2034,-6.2879,-6.4567,-6.5742,-6.6549,-6.776,-6.8972,-7.0183,-7.1431,-7.2165,-7.2569,-7.3377,-7.4184,-7.5028,-7.5799,-7.6607,-7.7304,0.0,-5.7273,0.0,0.0,-6.414,0.0,-6.9823,-7.3308,-7.4864,-7.2563,-7.2259,-7.2259,-7.2259,-7.4458,-7.6217,-7.6826,-7.6318,-7.653,-7.8064,-7.8446,-7.9063,-7.988,-8.116,-8.1483,-8.0715,-7.7181,-7.4368,-7.2239,-6.71,-6.3466,-6.1337,-6.0713,-5.9648,-5.8217,-5.7593,-5.7483,-5.7776,-5.8107,-5.8988,-6.0272,-6.1374,-6.2365,-6.3209,-6.42,-6.5007,-6.5668,-6.6476,-6.7136,-6.7944,-6.9559,-7.011,-7.0367,-7.1982,-7.2496,-7.2496,-7.2496,-7.2496,-7.2642,-7.3266,-7.356,-7.367,-7.3487,-7.356,-7.3487,-7.2679,-7.2496,-7.2679,-7.3303,-7.3083,-7.2275,-7.066,-6.8788,-6.6659,-6.4016,-6.119,-5.8951,-5.796,-5.6969,-5.6308,-5.6124,-5.5537,-5.495,-5.4436,-5.3995,-5.3298,-5.2307,-5.1353,-5.0508,-4.9884,-4.9517,-5.0435,-5.2858,-5.4509,-5.6602,-5.9171,-6.0639,-6.1117,-6.0676,-6.13,-6.2034,-6.2879,-6.4567,-6.5742,-6.6549,-6.754,-6.8862,-7.0477,-7.1908,-7.2606,-7.2826,-7.3634,-7.4441,-7.5249,-7.6056,-7.6754,-7.7304,0.0,0.0,0.0,0.0,0.0,-6.9857,-7.0161,-7.3308,-7.5608,-7.5337,-7.5303,-7.5303,-7.5303,-7.6183,-7.6826,-7.6893,-7.6826,-7.6922,-7.7052,-7.7284,-7.7476,-7.7563,-7.9614,-8.037,-7.9575,-7.7887,-7.5249,-7.1431,-6.7981,-6.431,-6.0529,-6.0456,-5.9942,-5.9098,-5.9024,-5.8217,-5.7005,-5.8474,-5.9171,-5.9538,-6.1777,-6.3209,-6.4127,-6.5705,-6.6329,-6.6476,-6.7283,-6.7614,-6.7944,-6.9559,-7.011,-7.0367,-7.1982,-7.2496,-7.2496,-7.2496,-7.2496,-7.2532,-7.2606,-7.312,-7.3523,-7.2789,-7.3156,-7.3487,-7.2679,-7.2496,-7.2532,-7.2606,-7.312,-7.3083,-7.1505,-7.1027,-6.9816,-6.6659,-6.4677,-6.2952,-6.1374,-5.9832,-5.8584,-5.785,-5.7703,-5.6785,-5.462,-5.4987,-5.473,-5.3225,-5.1683,-5.0765,-5.0692,-4.926,-4.9554,-5.2013,-5.3665,-5.6014,-5.9171,-6.0089,-6.086,-6.1484,-6.1557,-6.2034,-6.2879,-6.4567,-6.5742,-6.6586,-6.8128,-6.9706,-7.1284,-7.2165,-7.2936,-7.367,-7.4478,-7.5285,-7.6093,-7.69,-7.7268,-7.7304,0.0,0.0,0.0,0.0,0.0,0.0,0.0,-7.4762,-7.5709,-7.5709,-7.5709,-7.5709,-7.5709,-7.598,-7.6352,-7.686,-7.6454,-7.6386,-7.686,-7.7137,-7.7336,-7.7336,-7.8822,-7.9813,-8.0117,-7.8118,-7.6081,-7.4184,-7.0477,-6.6843,-6.3319,-6.1814,-6.0419,-5.9208,-5.8694,-5.8657,-5.9024,-5.9648,-6.0493,-6.152,-6.2989,-6.409,-6.4934,-6.6072,-6.6512,-6.6623,-6.7393,-6.8017,-6.8605,-6.9706,-7.011,-7.0367,-7.1982,-7.2496,-7.2496,-7.2496,-7.2496,-7.2496,-7.2496,-7.2716,-7.2899,-7.2569,-7.2753,-7.2899,-7.2569,-7.2496,-7.2642,-7.312,-7.3854,-7.3927,-7.2312,-7.2018,-7.1284,-6.9045,-6.6916,-6.4971,-6.3319,-6.086,-5.8914,-5.8107,-5.6308,-5.473,-5.3775,-5.3518,-5.3151,-5.2527,-5.2344,-5.205,-5.1536,-5.0435,-5.0472,-5.194,-5.3078,-5.5244,-5.8437,-5.9758,-6.1043,-6.2328,-6.2842,-6.3503,-6.4347,-6.5485,-6.6733,-6.8017,-6.9119,-7.0257,-7.1358,-7.2165,-7.2973,-7.378,-7.4588,-7.5395,-7.6203,-7.7011,-7.7304,-7.7378,-6.9519,0.0,-6.9586,0.0,-7.2157,-7.2699,-7.5303,-7.5709,-7.5709,-7.5709,-7.5709,-7.5709,-7.5709,-7.5912,-7.6183,-7.6521,-7.6251,-7.6183,-7.6521,-7.6758,-7.6837,-7.6837,-7.7907,-7.8903,-7.9614,-7.8278,-7.6963,-7.5651,-7.2636,-6.9265,-6.5595,-6.3392,-6.1741,-6.0639,-6.0052,-6.0419,-6.1484,-6.1484,-6.2291,-6.3613,-6.4457,-6.5154,-6.5742,-6.6549,-6.699,-6.7283,-6.7834,-6.8568,-6.9376,-7.0183,-7.044,-7.0697,-7.2055,-7.2496,-7.2496,-7.2496,-7.2496,-7.2496,-7.2496,-7.2496,-7.2496,-7.2496,-7.2496,-7.2496,-7.2496,-7.2496,-7.2679,-7.323,-7.4184,-7.4478,-7.312,-7.3046,-7.2606,-7.077,-6.9009,-6.71,-6.4787,-6.2254,-6.0089,-5.8547,-5.6161,-5.4252,-5.3298,-5.2894,-5.2601,-5.238,-5.2894,-5.2858,-5.205,-5.1242,-5.1279,-5.2307,-5.3151,-5.4987,-5.796,-5.9612,-6.1227,-6.2805,-6.3686,-6.464,-6.5705,-6.6733,-6.7944,-6.9302,-7.011,-7.0917,-7.1725,-7.2275,-7.312,-7.4111,-7.4698,-7.5542,-7.6533,-7.7121,-7.7304,-7.7451,-7.3003,-7.3409,-7.3883,-7.5371,-7.5642,-7.5642,-7.5676,-7.5709,-7.5709,-7.5709,-7.5709,-7.5709,-7.5709,-7.642,-7.6555,-7.5777,-7.642,-7.6555,-7.5777,-7.5709,-7.5709,-7.5709,-7.6747,-7.7336,-7.7336,-7.8639,-7.7737,-7.4496,-7.3946,-7.1211,-6.6439,-6.4824,-6.4053,-6.4016,-6.4016,-6.4016,-6.4053,-6.4053,-6.453,-6.5338,-6.6145,-6.6476,-6.6549,-6.7357,-6.8164,-6.8862,-6.8898,-6.9412,-7.022,-7.1027,-7.1321,-7.1431,-7.2239,-7.2496,-7.2496,-7.2496,-7.2496,-7.2496,-7.2496,-7.2496,-7.2496,-7.2496,-7.2496,-7.2496,-7.2496,-7.2496,-7.2496,-7.2496,-7.378,-7.4661,-7.3817,-7.4331,-7.4074,-7.1688,-7.1284,-6.9853,-6.5852,-6.4567,-6.2842,-5.9575,-5.8437,-5.6675,-5.3518,-5.3922,-5.4032,-5.3261,-5.3188,-5.2858,-5.205,-5.1242,-5.1536,-5.3151,-5.3959,-5.5537,-5.796,-5.9612,-6.1227,-6.2805,-6.3686,-6.4934,-6.6549,-6.8164,-6.9339,-7.011,-7.0954,-7.1762,-7.2496,-7.2496,-7.345,-7.4918,-7.4918,-7.5909,-7.7304,-7.7304,-7.7304,-7.7451,-7.4864,-7.4999,-7.5134,-7.5608,-7.5709,-7.5709,-7.5709,-7.5709,-7.5709,-7.5709,-7.5709,-7.5912,-7.6454,-7.6251,-7.6183,-7.6487,-7.6251,-7.6217,-7.6487,-7.6014,-7.5709,-7.5709,-7.602,-7.6508,-7.7336,-7.7964,-7.7873,-7.7016,-7.588,-7.2863,-6.8128,-6.7026,-6.6256,-6.5742,-6.5742,-6.6035,-6.6549,-6.6549,-6.7026,-6.7797,-6.8054,-6.8128,-6.8164,-6.8421,-6.8678,-6.8898,-6.8898,-6.9779,-7.0954,-7.1211,-7.1688,-7.2165,-7.2422,-7.2496,-7.2496,-7.2496,-7.2496,-7.2496,-7.2496,-7.2496,-7.2496,-7.2496,-7.2496,-7.2496,-7.2496,-7.2496,-7.2496,-7.2496,-7.2899,-7.3193,-7.2936,-7.3523,-7.3634,-7.2349,-7.1688,-7.011,-6.6623,-6.398,-6.119,-5.796,-5.6381,-5.495,-5.3371,-5.4436,-5.4876,-5.4069,-5.4509,-5.4473,-5.3665,-5.2858,-5.2931,-5.3995,-5.4803,-5.6381,-5.8804,-5.9869,-6.152,-6.3686,-6.453,-6.6035,-6.8164,-6.8678,-6.9633,-7.0954,-7.1211,-7.2092,-7.3303,-7.3303,-7.4258,-7.5726,-7.5726,-7.6387,-7.7304,-7.7304,-7.7304,-7.7524,-7.5709,-7.5709,-7.5709,-7.5709,-7.5709,-7.5709,-7.5709,-7.5946,-7.6149,-7.6149,-7.6386,-7.6758,-7.7266,-7.686,-7.6657,-7.6893,-7.6149,-7.5912,-7.642,-7.598,-7.5709,-7.5709,-7.5709,-7.602,-7.6656,-7.7705,-7.82,-7.8057,-7.7,-7.4698,-7.1138,-7.033,-6.9339,-6.8311,-6.8311,-6.8421,-6.8605,-6.8605,-6.8898,-6.9339,-6.9339,-6.9339,-6.9339,-6.9339,-6.9559,-6.9816,-6.9816,-7.066,-7.1762,-7.1762,-7.2092,-7.2496,-7.2496,-7.2496,-7.2496,-7.2496,-7.2496,-7.2496,-7.2496,-7.2496,-7.2496,-7.2496,-7.2496,-7.2496,-7.2496,-7.2716,-7.2863,-7.2569,-7.2753,-7.2863,-7.2569,-7.3156,-7.345,-7.2642,-7.1578,-6.9926,-6.732,-6.3613,-6.0309,-5.7997,-5.6271,-5.5097,-5.462,-5.6014,-5.6748,-5.6235,-5.6932,-5.7042,-5.6271,-5.4876,-5.4766,-5.6161,-5.6969,-5.8437,-6.0529,-6.1374,-6.2732,-6.4567,-6.5999,-6.743,-6.8935,-6.9522,-7.0367,-7.1321,-7.1651,-7.2496,-7.3707,-7.3707,-7.4661,-7.6093,-7.6093,-7.6607,-7.7304,-7.7304,-7.7304,-7.7561,-7.5709,-7.5709,-7.5709,-7.5709,-7.5743,-7.5743,-7.5709,-7.6386,-7.6893,-7.6893,-7.7502,-7.7942,-7.8044,-7.7976,-7.7671,-7.7029,-7.6251,-7.5811,-7.5845,-7.5743,-7.5709,-7.5709,-7.5709,-7.5676,-7.5771,-7.7907,-7.8673,-7.8008,-7.7637,-7.668,-7.5139,-7.4258,-7.3083,-7.1651,-7.1578,-7.1101,-7.033,-7.033,-7.033,-7.0257,-7.0257,-7.022,-7.0183,-7.0183,-7.066,-7.1321,-7.1321,-7.1835,-7.2496,-7.2496,-7.2496,-7.2496,-7.2496,-7.2496,-7.2496,-7.2496,-7.2532,-7.2569,-7.2532,-7.2569,-7.2642,-7.2532,-7.2496,-7.2496,-7.2569,-7.3156,-7.3487,-7.2826,-7.323,-7.345,-7.2716,-7.3156,-7.334,-7.2569,-7.1064,-6.9449,-6.776,-6.3466,-6.0162,-5.9318,-5.7923,-5.7042,-5.7042,-5.851,-5.9501,-5.9538,-6.0126,-6.0236,-5.9575,-5.7336,-5.7079,-5.9245,-6.0126,-6.13,-6.2879,-6.3686,-6.4567,-6.5521,-6.7871,-6.9009,-6.9119,-7.0624,-7.1358,-7.1431,-7.2239,-7.3046,-7.378,-7.3817,-7.4771,-7.6166,-7.6166,-7.6644,-7.7304,-7.7304,-7.7304,-7.7561,-7.5709,-7.5709,-7.5709,-7.5709,-7.6217,-7.642,-7.5777,-7.6386,-7.6893,-7.6893,-7.7063,-7.7604,-7.872,-7.7841,-7.7299,-7.7705,-7.7063,-7.686,-7.7401,-7.6352,-7.5709,-7.5709,-7.5709,-7.6114,-7.6927,-7.8328,-7.941,-8.0203,-7.9572,-7.8699,-7.7708,-7.6203,-7.5322,-7.4955,-7.4331,-7.3597,-7.2826,-7.2826,-7.2496,-7.1945,-7.1945,-7.1578,-7.1027,-7.1027,-7.1138,-7.1321,-7.1321,-7.1835,-7.2496,-7.2496,-7.2496,-7.2496,-7.2496,-7.2496,-7.2496,-7.2496,-7.2936,-7.3266,-7.2679,-7.3413,-7.4037,-7.2826,-7.2496,-7.2679,-7.3266,-7.356,-7.3817,-7.4258,-7.4001,-7.3634,-7.345,-7.3083,-7.2532,-7.1725,-7.0257,-6.8421,-6.6182,-6.3246,-6.0786,-5.9391,-5.9428,-5.9538,-5.9538,-6.1006,-6.2218,-6.2879,-6.1924,-6.1777,-6.2879,-6.1777,-6.0786,-6.0162,-6.1484,-6.2732,-6.3759,-6.398,-6.5118,-6.7136,-6.8972,-7.0146,-7.077,-7.1138,-7.1651,-7.2275,-7.3083,-7.3854,-7.4661,-7.5285,-7.613,-7.7047,-7.7047,-7.7157,-7.7304,-7.7304,-7.7304,-7.7451,-7.5709,-7.5709,-7.5709,-7.5709,-7.6048,-7.6318,-7.6251,-7.6623,-7.7029,-7.7367,-7.7705,-7.8213,-7.9025,-7.8416,-7.8077,-7.8483,-7.7164,-7.6521,-7.6927,-7.6149,-7.5709,-7.5709,-7.6173,-7.6656,-7.7336,-7.8903,-8.0297,-8.1562,-8.1085,-8.0498,-7.9653,-7.8369,-7.7378,-7.6607,-7.5836,-7.4808,-7.3707,-7.3707,-7.323,-7.2496,-7.2496,-7.2239,-7.1872,-7.1872,-7.1872,-7.1872,-7.1872,-7.2129,-7.2496,-7.2496,-7.2496,-7.2496,-7.2496,-7.2496,-7.2496,-7.2496,-7.3083,-7.3597,-7.3156,-7.3964,-7.4625,-7.3377,-7.2789,-7.2716,-7.3523,-7.3707,-7.3927,-7.4735,-7.4551,-7.4147,-7.378,-7.3046,-7.2129,-7.0954,-6.9082,-6.721,-6.5558,-6.2842,-6.1006,-6.086,-6.1227,-6.1814,-6.2585,-6.4457,-6.5485,-6.5228,-6.5044,-6.4861,-6.464,-6.5264,-6.4677,-6.2695,-6.42,-6.5448,-6.6292,-6.6659,-6.7504,-6.8788,-7.0073,-7.0881,-7.1321,-7.1688,-7.2312,-7.3083,-7.3487,-7.4368,-7.5469,-7.5909,-7.657,-7.7304,-7.7304,-7.7304,-7.7304,-7.7304,-7.7304,-7.7451,-7.5709,-7.5709,-7.5709,-7.5709,-7.5811,-7.6082,-7.6623,-7.6927,-7.7299,-7.7908,-7.8653,-7.916,-7.9261,-7.9092,-7.8923,-7.8923,-7.6961,-7.5743,-7.5879,-7.5777,-7.5709,-7.5709,-7.6599,-7.7248,-7.7563,-7.9691,-8.1336,-8.2186,-8.2076,-8.1672,-8.0975,-8.0167,-7.8993,-7.7488,-7.679,-7.5579,-7.4037,-7.4037,-7.3597,-7.2863,-7.2863,-7.2789,-7.2679,-7.2679,-7.2606,-7.2496,-7.2496,-7.2496,-7.2532,-7.2642,-7.2679,-7.2716,-7.2826,-7.2863,-7.2863,-7.2716,-7.334,-7.4001,-7.3744,-7.4294,-7.4735,-7.4037,-7.3377,-7.3046,-7.3707,-7.3964,-7.4294,-7.5102,-7.5175,-7.4845,-7.4037,-7.312,-7.1982,-7.0367,-6.7981,-6.6072,-6.5411,-6.2695,-6.1374,-6.2989,-6.3503,-6.4273,-6.5705,-6.7834,-6.8568,-6.732,-6.8274,-6.8128,-6.6329,-6.8054,-6.8164,-6.6109,-6.7357,-6.8385,-6.9082,-6.9889,-7.0293,-7.0293,-7.1101,-7.1541,-7.1688,-7.2386,-7.312,-7.3891,-7.4001,-7.4845,-7.6093,-7.624,-7.668,-7.7304,-7.7304,-7.7304,-7.7304,-7.7304,-7.7304,-7.7414,-7.5709,-7.5709,-7.5709,-7.5709,-7.6251,-7.6521,-7.598,-7.6995,-7.7874,-7.7976,-7.8653,-7.9363,-7.9972,-7.8923,-7.8145,-7.8145,-7.6657,-7.598,-7.6657,-7.6082,-7.5709,-7.5709,-7.5865,-7.6837,-7.874,-8.084,-8.2018,-8.2186,-8.1525,-8.1122,-8.0975,-8.0167,-7.9286,-7.8405,-7.8259,-7.7304,-7.5726,-7.5726,-7.5249,-7.4551,-7.4551,-7.4111,-7.3487,-7.3487,-7.3083,-7.2496,-7.2496,-7.2496,-7.2606,-7.3266,-7.3487,-7.3634,-7.4331,-7.4551,-7.4404,-7.3707,-7.4551,-7.5432,-7.4074,-7.4294,-7.4882,-7.4735,-7.4625,-7.4588,-7.4698,-7.5249,-7.5946,-7.679,-7.6387,-7.5689,-7.4882,-7.3523,-7.1982,-7.0367,-6.7504,-6.5448,-6.5338,-6.3649,-6.3062,-6.4714,-6.6733,-6.8054,-6.8311,-6.9302,-7.011,-7.055,-6.9522,-6.9339,-7.033,-7.0073,-6.9743,-6.9376,-6.9596,-6.9779,-6.9926,-7.0734,-7.1138,-7.1138,-7.1945,-7.2679,-7.334,-7.345,-7.3964,-7.4771,-7.5432,-7.5873,-7.6166,-7.6827,-7.7194,-7.7304,-7.7304,-7.7304,-7.7304,-7.7304,-7.7304,-7.7341,-7.5709,-7.5709,-7.5709,-7.5709,-7.6014,-7.6284,-7.6352,-7.6961,-7.7536,-7.7942,-7.8653,-7.9092,-7.9025,-7.8382,-7.7841,-7.7435,-7.6352,-7.5845,-7.6217,-7.5912,-7.5709,-7.5709,-7.6266,-7.7563,-7.9804,-8.1405,-8.2186,-8.2186,-8.1819,-8.1636,-8.1636,-8.0351,-7.958,-7.9213,-7.8295,-7.7231,-7.6093,-7.6093,-7.5652,-7.4918,-7.4918,-7.4698,-7.4368,-7.4368,-7.3854,-7.3156,-7.3156,-7.3156,-7.3193,-7.356,-7.4001,-7.4404,-7.4808,-7.4625,-7.4184,-7.3817,-7.4515,-7.5469,-7.5616,-7.5616,-7.5542,-7.5542,-7.5212,-7.5028,-7.5469,-7.5836,-7.635,-7.7157,-7.7011,-7.6387,-7.5139,-7.3597,-7.1982,-7.0367,-6.7393,-6.5301,-6.5301,-6.464,-6.4787,-6.6402,-6.8348,-7.0073,-7.1358,-7.1798,-7.2018,-7.1945,-7.1284,-7.0991,-7.1284,-7.0954,-7.0954,-7.1394,-7.0991,-7.0954,-7.1394,-7.1762,-7.1945,-7.1982,-7.2753,-7.334,-7.3707,-7.4147,-7.4808,-7.5579,-7.5946,-7.635,-7.679,-7.7157,-7.7304,-7.7304,-7.7304,-7.7304,-7.7304,-7.7304,-7.7304,-7.7243,-7.5709,-7.5709,-7.5709,-7.5709,-7.5709,-7.5912,-7.6521,-7.6792,-7.7164,-7.7874,-7.8483,-7.8686,-7.828,-7.7942,-7.7502,-7.6961,-7.6149,-7.5709,-7.5709,-7.5709,-7.5709,-7.5709,-7.7016,-7.8659,-8.0514,-8.1647,-8.2186,-8.2186,-8.2186,-8.2186,-8.215,-8.0718,-7.9984,-7.9727,-7.8259,-7.7157,-7.6387,-7.6387,-7.6019,-7.5469,-7.5469,-7.5359,-7.5175,-7.5175,-7.4698,-7.3964,-7.3964,-7.3964,-7.4001,-7.4184,-7.4661,-7.5212,-7.5395,-7.5028,-7.4515,-7.4294,-7.4698,-7.5506,-7.6937,-7.6864,-7.635,-7.6166,-7.5799,-7.5579,-7.6019,-7.624,-7.657,-7.7194,-7.7304,-7.69,-7.5432,-7.3854,-7.2239,-7.0624,-6.7834,-6.5852,-6.5852,-6.5852,-6.6512,-6.8311,-6.9963,-7.1725,-7.378,-7.4147,-7.3927,-7.312,-7.3083,-7.2789,-7.2165,-7.2165,-7.2422,-7.3046,-7.2275,-7.2239,-7.3046,-7.3083,-7.2973,-7.2789,-7.3597,-7.3964,-7.4001,-7.4625,-7.5432,-7.6387,-7.6166,-7.657,-7.7304,-7.7304,-7.7304,-7.7304,-7.7304,-7.7304,-7.7304,-7.7304,-7.7304,-7.7181,-7.5709,-7.5709,-7.5709,-7.5709,-7.5709,-7.5709,-7.5777,-7.642,-7.7164,-7.7874,-7.8044,-7.8314,-7.8957,-7.7807,-7.6961,-7.6893,-7.6149,-7.5709,-7.5709,-7.5709,-7.5709,-7.5709,-7.7736,-7.938,-8.0587,-8.1647,-8.2186,-8.2186,-8.2186,-8.2186,-8.2186,-8.1305,-8.0498,-7.9764,-7.8883,-7.8038,-7.7231,-7.7231,-7.7194,-7.7157,-7.7157,-7.668,-7.6019,-7.6019,-7.5506,-7.4808,-7.4808,-7.4808,-7.4955,-7.5689,-7.5946,-7.613,-7.69,-7.7084,-7.69,-7.613,-7.5983,-7.6203,-7.7084,-7.7268,-7.7047,-7.6276,-7.6644,-7.6974,-7.6276,-7.668,-7.7268,-7.7304,-7.7304,-7.7047,-7.6166,-7.4698,-7.3083,-7.1468,-6.9155,-6.7504,-6.7504,-6.7504,-6.8385,-7.077,-7.2459,-7.378,-7.4735,-7.5506,-7.5579,-7.4808,-7.4735,-7.4698,-7.4661,-7.4625,-7.4661,-7.4735,-7.3927,-7.3927,-7.4735,-7.4735,-7.4368,-7.3597,-7.4441,-7.4808,-7.4808,-7.4882,-7.5763,-7.7194,-7.6423,-7.657,-7.7304,-7.7304,-7.7304,-7.7304,-7.7304,-7.7304,-7.7304,-7.7304,-7.7304,-7.7181,-7.5709,-7.5709,-7.5709,-7.5709,-7.5709,-7.5709,-7.5709,-7.6386,-7.6995,-7.7266,-7.7705,-7.7908,-7.7739,-7.7232,-7.669,-7.6183,-7.5879,-7.5709,-7.5709,-7.5709,-7.5709,-7.5709,-7.7822,-7.9222,-7.965,-8.1299,-8.2186,-8.2186,-8.2186,-8.2186,-8.2186,-8.1379,-8.0828,-8.0498,-7.9176,-7.8699,-7.8772,-7.7745,-7.7635,-7.8075,-7.7524,-7.7121,-7.6864,-7.6864,-7.635,-7.5652,-7.5652,-7.5652,-7.5689,-7.6019,-7.6423,-7.69,-7.7231,-7.6974,-7.6497,-7.6203,-7.6093,-7.6276,-7.7084,-7.7304,-7.7268,-7.6937,-7.7084,-7.7231,-7.6937,-7.7084,-7.7304,-7.7304,-7.7304,-7.7084,-7.624,-7.5212,-7.4258,-7.3634,-7.1505,-7.011,-7.0624,-7.066,-7.1027,-7.1945,-7.345,-7.4771,-7.5579,-7.5909,-7.5983,-7.5689,-7.5652,-7.5652,-7.5652,-7.5652,-7.5652,-7.5652,-7.5359,-7.5102,-7.4918,-7.4918,-7.4771,-7.4441,-7.5249,-7.5652,-7.5652,-7.6166,-7.6754,-7.7304,-7.7011,-7.7047,-7.7304,-7.7304,-7.7304,-7.7304,-7.7304,-7.7304,-7.7304,-7.7304,-7.7304,-7.7181,-7.5709,-7.5709,-7.5709,-7.5709,-7.5709,-7.5709,-7.5709,-7.6183,-7.6623,-7.686,-7.7096,-7.7164,-7.6927,-7.6657,-7.6284,-7.5743,-7.5709,-7.5709,-7.5709,-7.5709,-7.5865,-7.6173,-7.7992,-7.9143,-7.9494,-8.1299,-8.2186,-8.2186,-8.2186,-8.2186,-8.2186,-8.1379,-8.1012,-8.0938,-7.958,-7.9286,-7.969,-7.8589,-7.8295,-7.8552,-7.7965,-7.7561,-7.7304,-7.7304,-7.6974,-7.6497,-7.6497,-7.6497,-7.6497,-7.6497,-7.6864,-7.7304,-7.7304,-7.6937,-7.6497,-7.6497,-7.6497,-7.668,-7.7488,-7.7524,-7.7304,-7.7304,-7.7524,-7.7671,-7.7378,-7.7524,-7.7708,-7.7708,-7.7928,-7.7855,-7.7047,-7.6203,-7.5506,-7.4992,-7.3523,-7.2532,-7.2826,-7.3083,-7.334,-7.3597,-7.4588,-7.5616,-7.6423,-7.6497,-7.6497,-7.6497,-7.6497,-7.6497,-7.6497,-7.6497,-7.6497,-7.6497,-7.6497,-7.6203,-7.5689,-7.5652,-7.5542,-7.5285,-7.6093,-7.635,-7.613,-7.668,-7.7084,-7.7304,-7.7047,-7.7084,-7.7304,-7.7304,-7.7304,-7.7304,-7.7304,-7.7304,-7.7304,-7.7304,-7.7488,-7.7547,-7.5709,-7.5709,-7.5709,-7.5709,-7.5709,-7.5709,-7.5709,-7.5709,-7.598,-7.6792,-7.6183,-7.6014,-7.6792,-7.6183,-7.5709,-7.5709,-7.5709,-7.5709,-7.5709,-7.5709,-7.6173,-7.7248,-7.8411,-7.9458,-8.0514,-8.1647,-8.2186,-8.2186,-8.2186,-8.2186,-8.2186,-8.1379,-8.1012,-8.0975,-8.0167,-7.98,-7.98,-7.98,-7.9323,-7.8626,-7.8589,-7.8075,-7.7341,-7.7304,-7.7304,-7.7304,-7.7304,-7.7304,-7.7304,-7.7304,-7.7304,-7.7304,-7.7304,-7.7304,-7.7304,-7.7341,-7.7341,-7.7524,-7.8369,-7.8002,-7.7341,-7.7341,-7.7965,-7.8369,-7.7524,-7.8002,-7.8589,-7.8589,-7.9213,-7.9543,-7.8772,-7.7892,-7.6827,-7.5212,-7.4918,-7.4661,-7.3817,-7.4441,-7.5212,-7.6019,-7.6093,-7.6423,-7.7231,-7.7304,-7.7304,-7.7304,-7.7304,-7.7304,-7.7304,-7.7304,-7.7304,-7.7304,-7.7304,-7.7304,-7.7304,-7.7304,-7.69,-7.613,-7.6937,-7.69,-7.6093,-7.6093,-7.6533,-7.7268,-7.646,-7.657,-7.7304,-7.7341,-7.7341,-7.7304,-7.7341,-7.7341,-7.7304,-7.7304,-7.7855,-7.8427,-7.5709,-7.5709,-7.5709,-7.5709,-7.5709,-7.5709,-7.5709,-7.5709,-7.5777,-7.6014,-7.5845,-7.5777,-7.6014,-7.5845,-7.5709,-7.5709,-7.5709,-7.5709,-7.5709,-7.5709,-7.6173,-7.7248,-7.8411,-7.9143,-7.9458,-8.123,-8.2186,-8.2186,-8.2186,-8.2186,-8.2186,-8.1929,-8.1819,-8.1819,-8.1012,-8.0975,-8.1415,-8.0277,-7.9984,-8.0204,-7.9066,-7.8442,-7.8148,-7.7561,-7.7304,-7.7304,-7.7304,-7.7304,-7.7304,-7.7304,-7.7304,-7.7304,-7.7304,-7.7304,-7.7451,-7.8038,-7.7781,-7.7635,-7.9029,-7.925,-7.8919,-7.8369,-7.8405,-7.8516,-7.8259,-7.8846,-7.9433,-7.9433,-7.9617,-7.9727,-7.947,-7.8772,-7.8075,-7.7561,-7.6974,-7.6533,-7.6276,-7.646,-7.668,-7.6937,-7.6937,-7.7047,-7.7304,-7.7304,-7.7304,-7.7304,-7.7304,-7.7304,-7.7304,-7.7304,-7.7304,-7.7304,-7.7304,-7.7304,-7.7304,-7.7304,-7.7194,-7.6937,-7.7194,-7.7194,-7.6937,-7.6937,-7.7084,-7.7304,-7.7047,-7.7084,-7.7378,-7.7965,-7.7855,-7.7378,-7.7965,-7.7855,-7.7304,-7.7304,-7.7855,-7.8526,-7.5709,-7.5709,-7.5709,-7.5709,-7.5709,-7.5709,-7.5709,-7.5709,-7.5709,-7.5709,-7.5709,-7.5709,-7.5709,-7.5709,-7.5709,-7.5709,-7.5709,-7.5709,-7.5709,-7.5709,-7.602,-7.669,-7.8161,-7.9222,-7.9614,-8.1299,-8.2186,-8.2186,-8.2186,-8.2186,-8.2186,-8.2186,-8.2186,-8.2186,-8.1672,-8.1746,-8.215,-8.1158,-8.0828,-8.0938,-7.9947,-7.936,-7.8993,-7.8148,-7.7818,-7.7781,-7.7451,-7.7304,-7.7304,-7.7304,-7.7304,-7.7304,-7.7304,-7.7304,-7.7414,-7.7928,-7.7708,-7.7671,-7.9323,-7.9323,-7.8919,-7.9433,-7.9543,-7.947,-7.914,-7.969,-8.0277,-8.0277,-8.0534,-8.0645,-8.0314,-7.9874,-7.9433,-7.914,-7.8369,-7.7818,-7.7818,-7.7524,-7.7304,-7.7304,-7.7304,-7.7304,-7.7304,-7.7304,-7.7304,-7.7304,-7.7304,-7.7304,-7.7304,-7.7304,-7.7304,-7.7304,-7.7304,-7.7304,-7.7304,-7.7304,-7.7304,-7.7304,-7.7304,-7.7304,-7.7304,-7.7304,-7.7304,-7.7304,-7.7304,-7.7524,-7.7855,-7.8369,-7.8479,-7.8332,-7.8883,-7.8552,-7.7855,-7.8185,-7.8626,-7.9103,-7.5709,-7.5709,-7.5709,-7.5709,-7.5709,-7.5709,-7.5709,-7.5709,-7.5709,-7.5709,-7.5709,-7.5709,-7.5709,-7.5709,-7.5709,-7.5709,-7.5709,-7.5709,-7.5709,-7.5709,-7.5771,-7.5865,-7.7736,-7.938,-8.0587,-8.1647,-8.2186,-8.2186,-8.2186,-8.2186,-8.2186,-8.2186,-8.2186,-8.2186,-8.2186,-8.2186,-8.2186,-8.2186,-8.1782,-8.1122,-8.1048,-8.0571,-7.98,-7.8993,-7.8662,-7.8516,-7.7708,-7.7378,-7.7341,-7.7414,-7.7451,-7.7451,-7.7524,-7.7524,-7.7561,-7.7635,-7.7561,-7.7781,-7.9433,-7.8736,-7.8112,-8.0424,-8.1048,-8.0901,-8.0094,-8.0534,-8.1122,-8.1122,-8.1672,-8.1966,-8.1232,-8.1048,-8.0755,-8.0021,-7.9176,-7.8589,-7.8589,-7.7855,-7.7304,-7.7304,-7.7304,-7.7304,-7.7304,-7.7304,-7.7304,-7.7304,-7.7304,-7.7304,-7.7304,-7.7304,-7.7304,-7.7304,-7.7304,-7.7304,-7.7304,-7.7304,-7.7304,-7.7304,-7.7304,-7.7304,-7.7304,-7.7304,-7.7304,-7.7304,-7.7414,-7.7818,-7.8516,-7.8736,-7.914,-7.969,-7.9837,-7.936,-7.8699,-7.9396,-7.9727,-7.991,-7.5709,-7.5709,-7.5709,-7.5709,-7.5709,-7.5709,-7.5709,-7.5709,-7.5709,-7.5709,-7.5709,-7.5709,-7.5709,-7.5709,-7.5709,-7.5709,-7.5709,-7.5709,-7.5709,-7.5709,-7.6114,-7.6927,-7.7424,-7.8541,-8.0514,-8.1647,-8.2186,-8.2186,-8.2186,-8.2186,-8.2186,-8.2186,-8.2186,-8.2186,-8.2186,-8.2186,-8.2186,-8.2186,-8.2113,-8.1893,-8.1269,-8.0901,-8.0645,-7.9837,-7.914,-7.8589,-7.8405,-7.7892,-7.7414,-7.8112,-7.8332,-7.8442,-7.9066,-7.925,-7.936,-8.0021,-7.9323,-7.8662,-8.0314,-8.0021,-7.9543,-8.0718,-8.1489,-8.1746,-8.0938,-8.1342,-8.1929,-8.1929,-8.2076,-8.215,-8.1966,-8.1415,-8.0938,-8.0755,-7.9543,-7.8589,-7.8589,-7.7855,-7.7304,-7.7304,-7.7304,-7.7304,-7.7304,-7.7304,-7.7304,-7.7304,-7.7304,-7.7304,-7.7304,-7.7304,-7.7304,-7.7304,-7.7304,-7.7304,-7.7304,-7.7304,-7.7304,-7.7304,-7.7304,-7.7304,-7.7304,-7.7304,-7.7304,-7.7378,-7.8038,-7.8038,-7.7745,-7.969,-7.9837,-7.8993,-8.0241,-7.9874,-7.8626,-7.8809,-7.925,-7.9755,-7.5709,-7.5709,-7.5709,-7.5709,-7.5709,-7.5709,-7.5709,-7.5709,-7.5709,-7.5709,-7.5709,-7.5709,-7.5709,-7.5709,-7.5709,-7.5709,-7.5709,-7.5709,-7.5709,-7.5709,-7.5926,-7.6508,-7.6982,-7.7822,-7.8948,-8.0107,-8.116,-8.2186,-8.2186,-8.2186,-8.2186,-8.2186,-8.2186,-8.2186,-8.2186,-8.2186,-8.2186,-8.2186,-8.2186,-8.215,-8.1746,-8.1562,-8.1452,-8.0241,-7.9543,-7.9066,-7.8259,-7.7708,-7.7378,-7.7855,-7.8259,-7.8662,-7.9066,-7.947,-7.9874,-8.0277,-7.9837,-7.936,-8.0204,-8.0094,-7.9984,-8.0791,-8.1342,-8.1636,-8.1562,-8.1893,-8.2186,-8.2186,-8.2186,-8.2186,-8.2186,-8.1856,-8.1562,-8.1562,-8.0534,-7.9727,-7.9727,-7.9029,-7.8369,-7.7965,-7.8259,-7.8479,-7.8479,-7.8479,-7.8479,-7.8479,-7.8148,-7.8112,-7.8479,-7.7745,-7.7524,-7.7928,-7.7524,-7.7304,-7.7304,-7.7304,-7.7524,-7.7928,-7.7524,-7.7304,-7.7304,-7.7304,-7.7561,-7.7965,-7.8405,-7.8552,-7.8626,-8.0314,-8.0277,-7.9286,-8.0534,-8.0021,-7.8699,-7.947,-8.0241,-8.0882,-7.5709,-7.5709,-7.5709,-7.5709,-7.5709,-7.5709,-7.5709,-7.5709,-7.5709,-7.5709,-7.5709,-7.5709,-7.5709,-7.5709,-7.5709,-7.5709,-7.5709,-7.5709,-7.5709,-7.5709,-7.5709,-7.5709,-7.6508,-7.7071,-7.7336,-7.8245,-7.9691,-8.1647,-8.1885,-8.1952,-8.1952,-8.2121,-8.2186,-8.2186,-8.2186,-8.2186,-8.2186,-8.2186,-8.2186,-8.2186,-8.2186,-8.2186,-8.2039,-8.0571,-7.991,-7.958,-7.8075,-7.7451,-7.7341,-7.7488,-7.8002,-7.8662,-7.8919,-7.947,-7.9984,-7.9984,-7.9984,-7.9984,-7.9837,-7.9874,-8.0167,-8.0828,-8.1122,-8.1379,-8.2039,-8.2186,-8.2186,-8.2186,-8.2186,-8.2186,-8.2186,-8.2186,-8.2186,-8.2186,-8.1525,-8.1012,-8.1012,-8.0167,-7.9396,-7.8883,-7.9396,-7.98,-7.98,-7.98,-7.98,-7.98,-7.9176,-7.9029,-7.9543,-7.8405,-7.8002,-7.8589,-7.7892,-7.7598,-7.7745,-7.7598,-7.7965,-7.8809,-7.8075,-7.7745,-7.7745,-7.7745,-7.8112,-7.8809,-7.8956,-7.9286,-7.9874,-8.0828,-8.0645,-7.9874,-8.0828,-8.0131,-7.8772,-8.0011,-8.0963,-8.152,-7.5709,-7.5709,-7.5709,-7.5709,-7.5709,-7.5709,-7.5709,-7.5709,-7.5709,-7.5709,-7.5709,-7.5709,-7.5709,-7.5709,-7.5709,-7.5709,-7.5709,-7.5709,-7.5709,-7.5709,-7.5709,-7.5709,-7.5865,-7.6358,-7.7248,-7.7476,-7.8161,-7.9458,-8.0366,-8.084,-8.084,-8.1782,-8.2186,-8.2186,-8.2186,-8.2186,-8.2186,-8.2186,-8.2186,-8.2186,-8.2186,-8.2186,-8.2113,-8.1195,-8.0388,-7.9653,-7.8772,-7.7965,-7.7451,-7.8185,-7.8516,-7.8846,-8.0241,-8.0755,-8.0828,-8.0828,-8.0828,-8.0681,-7.9984,-8.0314,-8.0865,-8.0975,-8.1525,-8.2076,-8.2186,-8.2186,-8.2186,-8.2186,-8.2186,-8.2186,-8.2186,-8.2186,-8.2186,-8.2186,-8.1525,-8.1012,-8.1012,-7.9727,-7.8993,-7.9543,-7.9727,-7.98,-7.98,-7.98,-7.98,-7.98,-7.969,-7.936,-7.8772,-7.9213,-7.9176,-7.8626,-7.8479,-7.8772,-7.9433,-7.8772,-7.8809,-7.9617,-7.9507,-7.9433,-7.9433,-7.9433,-7.9507,-7.9653,-8.0351,-8.0351,-7.991,-8.1415,-8.1158,-7.9947,-8.1452,-8.0645,-7.8636,-7.8618,-7.8635,-7.8817,-7.5709,-7.5709,-7.5709,-7.5709,-7.5709,-7.5709,-7.5709,-7.5709,-7.5709,-7.5709,-7.5709,-7.5709,-7.5709,-7.5709,-7.5709,-7.5709,-7.5709,-7.5709,-7.5709,-7.5709,-7.5709,-7.5709,-7.5709,-7.596,-7.645,-7.645,-7.669,-7.7194,-7.8903,-7.9727,-7.9727,-8.084,-8.1336,-8.1336,-8.1952,-8.2186,-8.2186,-8.2186,-8.2186,-8.2186,-8.2186,-8.1929,-8.1452,-8.0645,-7.9837,-7.9029,-7.8185,-7.7965,-7.8075,-7.8479,-7.9213,-8.0057,-8.0791,-8.1305,-8.1672,-8.1672,-8.1672,-8.1489,-8.0681,-8.1048,-8.1562,-8.1122,-8.1599,-8.2186,-8.2186,-8.2186,-8.2186,-8.2186,-8.2186,-8.2186,-8.2186,-8.2186,-8.2186,-8.2186,-8.1893,-8.1672,-8.1672,-8.1048,-8.0718,-8.1085,-8.0718,-8.0645,-8.1085,-8.1122,-8.1122,-8.1122,-8.0718,-8.0498,-8.0608,-8.0094,-7.9837,-7.9947,-7.9507,-7.9433,-7.98,-7.9433,-7.9653,-8.0461,-8.0461,-8.0241,-7.98,-7.98,-8.0021,-8.0498,-8.0865,-8.0791,-8.0571,-8.1709,-8.1232,-7.991,-8.1085,-8.0865,-7.9819,-7.9133,-7.9179,-7.9504]}]]